[[{"header":{"parameterUnit":"m.s-1","parameterCategory":1,"la1":31.0,"la2":29.5877,"lo1":-88.7671,"lo2":-86.6584,"dy":0.0162,"dx":0.0185,"nx":115,"ny":88,"refTime":"2023-10-07T00:00:00:Z","depth":0,"parameterNumber":2,"parameterNumberName":"U-component_of_WINDS"},"data":[0.0,0.0,0.0,0.0,0.0,0.0,0.0,0.0,0.0,0.0,0.0,0.0,0.0,0.0,0.0,0.0,0.0,0.0,0.0,0.0,0.0,0.0,0.0,0.0,0.0,0.0,0.0,0.0,0.0,0.0,0.0,0.0,0.0,0.0,0.0,0.0,0.0,0.0,0.0,0.0,0.0,0.0,0.0,0.0,0.0,0.0,0.0,0.0,0.0,0.0,0.0,0.0,0.0,0.0,0.0,0.0,0.0,0.0,0.0,0.0,0.0,0.0,0.0,0.0,0.0,0.0,0.0,0.0,0.0,0.0,0.0,0.0,0.0,0.0,0.0,0.0,0.0,0.0,0.0,0.0,0.0,0.0,0.0,0.0,0.0,0.0,0.0,0.0,0.0,0.0,0.0,0.0,0.0,0.0,0.0,0.0,0.0,0.0,0.0,0.0,0.0,0.0,0.0,0.0,0.0,0.0,0.0,0.0,0.0,0.0,0.0,0.0,0.0,0.0,0.0,0.0,0.0,0.0,0.0,0.0,0.0,0.0,0.0,0.0,0.0,0.0,0.0,0.0,0.0,0.0,0.0,0.0,0.0,0.0,0.0,0.0,0.0,0.0,0.0,0.0,0.0,0.0,0.0,0.0,0.0,0.0,0.0,0.0,0.0,0.0,0.0,0.0,0.0,0.0,0.0,0.0,0.0,0.0,0.0,0.0,0.0,0.0,0.0,0.0,0.0,0.0,0.0,0.0,0.0,0.0,0.0,0.0,0.0,0.0,0.0,0.0,0.0,0.0,0.0,0.0,0.0,0.0,0.0,0.0,0.0,0.0,0.0,0.0,0.0,0.0,0.0,0.0,0.0,0.0,0.0,0.0,0.0,0.0,0.0,0.0,0.0,0.0,0.0,0.0,0.0,0.0,0.0,0.0,0.0,0.0,0.0,0.0,0.0,0.0,0.0,0.0,0.0,0.0,0.0,0.0,0.0,0.0,0.0,0.0,0.0,0.0,0.0,0.0,0.0,0.0,0.0,0.0,0.0,0.0,0.0,0.0,0.0,0.0,0.0,0.0,0.0,0.0,0.0,0.0,0.0,0.0,0.0,0.0,0.0,0.0,0.0,0.0,0.0,0.0,0.0,0.0,0.0,0.0,0.0,0.0,0.0,0.0,0.0,0.0,0.0,0.0,0.0,0.0,0.0,0.0,0.0,0.0,0.0,0.0,0.0,0.0,0.0,0.0,0.0,0.0,0.0,0.0,0.0,0.0,0.0,0.0,0.0,0.0,0.0,0.0,0.0,0.0,0.0,0.0,0.0,0.0,0.0,0.0,0.0,0.0,0.0,0.0,0.0,0.0,0.0,0.0,0.0,0.0,0.0,0.0,0.0,0.0,0.0,0.0,0.0,0.0,0.0,0.0,0.0,0.0,0.0,0.0,0.0,0.0,0.0,0.0,0.0,0.0,0.0,0.0,0.0,0.0,0.0,0.0,0.0,0.0,0.0,0.0,0.0,0.0,0.0,0.0,0.0,0.0,0.0,0.0,0.0,0.0,0.0,0.0,0.0,0.0,0.0,0.0,0.0,0.0,0.0,0.0,0.0,0.0,0.0,0.0,0.0,0.0,0.0,0.0,0.0,0.0,0.0,0.0,0.0,0.0,0.0,0.0,0.0,0.0,0.0,0.0,0.0,0.0,0.0,0.0,0.0,0.0,0.0,0.0,0.0,0.0,0.0,0.0,0.0,0.0,0.0,0.0,0.0,0.0,0.0,0.0,0.0,0.0,0.0,0.0,0.0,0.0,0.0,0.0,0.0,0.0,0.0,0.0,0.0,0.0,0.0,0.0,0.0,0.0,0.0,0.0,0.0,0.0,0.0,0.0,0.0,0.0,0.0,0.0,0.0,0.0,0.0,0.0,0.0,0.0,0.0,0.0,0.0,0.0,0.0,0.0,0.0,0.0,0.0,0.0,0.0,0.0,0.0,0.0,0.0,0.0,0.0,0.0,0.0,0.0,0.0,0.0,0.0,0.0,0.0,0.0,0.0,0.0,0.0,0.0,0.0,0.0,0.0,0.0,0.0,0.0,0.0,0.0,0.0,0.0,0.0,0.0,0.0,0.0,0.0,0.0,0.0,0.0,0.0,0.0,0.0,0.0,0.0,0.0,0.0,0.0,0.0,0.0,0.0,0.0,0.0,0.0,0.0,0.0,0.0,0.0,0.0,0.0,0.0,0.0,0.0,0.0,0.0,0.0,0.0,0.0,0.0,0.0,0.0,0.0,0.0,0.0,0.0,0.0,0.0,0.0,0.0,0.0,0.0,0.0,0.0,0.0,0.0,0.0,0.0,0.0,0.0,0.0,0.0,0.0,0.0,0.0,0.0,0.0,0.0,0.0,0.0,0.0,0.0,0.0,0.0,0.0,0.0,0.0,0.0,0.0,0.0,0.0,0.0,0.0,0.0,0.0,0.0,0.0,0.0,0.0,0.0,0.0,0.0,0.0,0.0,0.0,0.0,0.0,0.0,0.0,0.0,0.0,0.0,0.0,0.0,0.0,0.0,0.0,0.0,0.0,0.0,0.0,0.0,0.0,0.0,0.0,0.0,0.0,0.0,0.0,0.0,0.0,0.0,0.0,0.0,0.0,0.0,0.0,0.0,0.0,0.0,0.0,0.0,0.0,0.0,0.0,0.0,0.0,0.0,0.0,0.0,0.0,0.0,0.0,0.0,0.0,0.0,0.0,0.0,0.0,0.0,0.0,0.0,0.0,0.0,0.0,0.0,0.0,0.0,0.0,0.0,0.0,0.0,0.0,0.0,0.0,0.0,0.0,0.0,0.0,0.0,0.0,0.0,0.0,0.0,0.0,0.0,0.0,0.0,0.0,0.0,0.0,0.0,0.0,0.0,0.0,0.0,0.0,0.0,0.0,0.0,0.0,0.0,0.0,0.0,0.0,0.0,0.0,0.0,0.0,0.0,0.0,0.0,0.0,0.0,0.0,0.0,0.0,0.0,0.0,0.0,0.0,0.0,0.0,0.0,0.0,0.0,0.0,0.0,0.0,0.0,0.0,0.0,0.0,0.0,0.0,0.0,0.0,0.0,0.0,0.0,0.0,0.0,0.0,0.0,0.0,0.0,0.0,0.0,0.0,0.0,0.0,0.0,0.0,0.0,0.0,0.0,0.0,0.0,0.0,0.0,0.0,0.0,0.0,0.0,0.0,0.0,0.0,0.0,0.0,0.0,0.0,0.0,0.0,0.0,0.0,0.0,0.0,0.0,0.0,0.0,0.0,0.0,0.0,0.0,0.0,0.0,0.0,0.0,0.0,0.0,0.0,0.0,0.0,0.0,0.0,0.0,0.0,0.0,0.0,0.0,0.0,0.0,0.0,0.0,0.0,0.0,0.0,0.0,0.0,0.0,0.0,0.0,0.0,0.0,0.0,0.0,0.0,0.0,0.0,0.0,0.0,0.0,0.0,0.0,0.0,0.0,0.0,0.0,0.0,0.0,0.0,0.0,0.0,0.0,0.0,0.0,0.0,0.0,0.0,0.0,0.0,0.0,0.0,0.0,0.0,0.0,0.0,0.0,0.0,0.0,0.0,0.0,0.0,0.0,0.0,0.0,0.0,0.0,0.0,0.0,0.0,0.0,0.0,0.0,0.0,0.0,0.0,0.0,0.0,0.0,0.0,0.0,0.0,0.0,0.0,0.0,0.0,0.0,0.0,0.0,0.0,0.0,0.0,0.0,0.0,0.0,0.0,0.0,0.0,0.0,0.0,0.0,0.0,0.0,0.0,0.0,0.0,0.0,0.0,0.0,0.0,0.0,0.0,0.0,0.0,0.0,0.0,0.0,0.0,0.0,0.0,0.0,0.0,0.0,0.0,0.0,0.0,0.0,0.0,0.0,0.0,0.0,0.0,0.0,0.0,0.0,0.0,0.0,0.0,0.0,0.0,0.0,0.0,0.0,0.0,0.0,0.0,0.0,0.0,0.0,0.0,0.0,0.0,0.0,0.0,0.0,0.0,0.0,0.0,0.0,0.0,0.0,0.0,0.0,0.0,0.0,0.0,0.0,0.0,0.0,0.0,0.0,0.0,0.0,0.0,0.0,0.0,0.0,0.0,0.0,0.0,0.0,0.0,0.0,0.0,0.0,0.0,0.0,0.0,0.0,0.0,0.0,0.0,0.0,0.0,0.0,0.0,0.0,0.0,0.0,0.0,0.0,0.0,0.0,0.0,0.0,0.0,0.0,0.0,0.0,0.0,0.0,0.0,0.0,0.0,0.0,0.0,3.6813,0.0,0.0,0.0,0.0,0.0,0.0,0.0,0.0,0.0,0.0,0.0,0.0,0.0,0.0,0.0,0.0,0.0,0.0,0.0,0.0,0.0,0.0,0.0,0.0,0.0,0.0,0.0,0.0,0.0,0.0,0.0,0.0,0.0,0.0,0.0,0.0,0.0,0.0,0.0,0.0,0.0,0.0,0.0,0.0,0.0,0.0,0.0,0.0,0.0,0.0,0.0,0.0,0.0,0.0,0.0,0.0,0.0,0.0,0.0,0.0,0.0,0.0,0.0,0.0,0.0,0.0,0.0,0.0,0.0,0.0,0.0,0.0,0.0,0.0,0.0,0.0,0.0,0.0,0.0,0.0,0.0,0.0,0.0,0.0,0.0,0.0,0.0,0.0,0.0,0.0,0.0,0.0,0.0,0.0,0.0,0.0,0.0,0.0,0.0,0.0,0.0,0.0,0.0,0.0,0.0,0.0,0.0,0.0,0.0,0.0,3.9668,3.9578,3.8338,3.7618,3.7587,0.0,0.0,0.0,0.0,0.0,0.0,0.0,0.0,0.0,0.0,0.0,0.0,0.0,0.0,0.0,0.0,0.0,0.0,0.0,0.0,0.0,0.0,0.0,0.0,0.0,0.0,0.0,0.0,0.0,0.0,0.0,0.0,0.0,0.0,0.0,0.0,0.0,0.0,0.0,0.0,0.0,0.0,0.0,0.0,0.0,0.0,0.0,0.0,0.0,0.0,0.0,0.0,0.0,0.0,0.0,0.0,0.0,0.0,0.0,0.0,0.0,0.0,0.0,0.0,0.0,0.0,0.0,0.0,0.0,0.0,0.0,0.0,0.0,0.0,0.0,0.0,0.0,0.0,0.0,0.0,0.0,0.0,0.0,0.0,0.0,0.0,0.0,0.0,0.0,0.0,0.0,0.0,0.0,0.0,0.0,0.0,0.0,0.0,0.0,0.0,0.0,0.0,0.0,0.0,0.0,0.0,0.0,0.0,0.0,0.0,0.0,0.0,3.93,3.8517,3.811,0.0,0.0,0.0,0.0,0.0,0.0,0.0,0.0,0.0,0.0,0.0,0.0,0.0,0.0,0.0,0.0,0.0,0.0,0.0,0.0,0.0,0.0,0.0,0.0,0.0,0.0,0.0,0.0,0.0,0.0,0.0,0.0,0.0,0.0,0.0,0.0,0.0,0.0,0.0,0.0,0.0,0.0,0.0,0.0,0.0,0.0,0.0,0.0,0.0,0.0,0.0,0.0,0.0,0.0,0.0,0.0,0.0,0.0,0.0,0.0,0.0,0.0,0.0,0.0,0.0,0.0,0.0,0.0,0.0,0.0,0.0,0.0,0.0,0.0,0.0,0.0,0.0,0.0,0.0,0.0,0.0,0.0,0.0,0.0,0.0,0.0,0.0,0.0,0.0,0.0,0.0,0.0,0.0,0.0,0.0,0.0,0.0,0.0,0.0,0.0,0.0,0.0,0.0,0.0,0.0,0.0,0.0,0.0,0.0,0.0,4.2238,4.2907,4.1261,0.0,3.8238,0.0,0.0,0.0,0.0,0.0,0.0,0.0,0.0,0.0,0.0,0.0,0.0,0.0,0.0,0.0,0.0,0.0,0.0,0.0,0.0,0.0,0.0,0.0,0.0,0.0,0.0,0.0,0.0,0.0,0.0,0.0,0.0,0.0,0.0,0.0,0.0,0.0,0.0,0.0,0.0,0.0,0.0,0.0,0.0,0.0,0.0,0.0,0.0,0.0,0.0,0.0,0.0,0.0,0.0,0.0,0.0,0.0,0.0,0.0,0.0,0.0,0.0,0.0,0.0,0.0,0.0,0.0,0.0,0.0,0.0,0.0,0.0,0.0,0.0,0.0,0.0,0.0,0.0,0.0,0.0,0.0,0.0,0.0,0.0,0.0,0.0,0.0,0.0,0.0,0.0,0.0,0.0,0.0,0.0,0.0,0.0,0.0,0.0,0.0,0.0,0.0,0.0,0.0,0.0,0.0,0.0,0.0,0.0,0.0,0.0,4.2394,4.3149,4.1957,4.0782,0.0,0.0,0.0,0.0,0.0,0.0,0.0,0.0,0.0,0.0,0.0,0.0,0.0,0.0,0.0,0.0,0.0,0.0,0.0,0.0,0.0,0.0,0.0,0.0,0.0,0.0,0.0,0.0,0.0,0.0,0.0,0.0,0.0,0.0,0.0,0.0,0.0,0.0,0.0,0.0,0.0,0.0,0.0,0.0,0.0,0.0,0.0,0.0,0.0,0.0,0.0,0.0,0.0,0.0,0.0,0.0,0.0,0.0,0.0,0.0,0.0,0.0,0.0,0.0,0.0,0.0,0.0,0.0,0.0,0.0,0.0,0.0,0.0,0.0,0.0,0.0,0.0,0.0,0.0,0.0,0.0,0.0,0.0,0.0,0.0,0.0,0.0,0.0,0.0,0.0,0.0,0.0,0.0,0.0,0.0,0.0,0.0,0.0,0.0,0.0,0.0,0.0,0.0,0.0,0.0,0.0,0.0,0.0,0.0,0.0,4.273,4.2908,4.3331,4.26,4.1757,4.0989,0.0,0.0,0.0,0.0,0.0,0.0,0.0,0.0,0.0,0.0,0.0,0.0,0.0,0.0,0.0,0.0,0.0,0.0,0.0,0.0,0.0,0.0,0.0,0.0,0.0,0.0,0.0,0.0,0.0,0.0,0.0,0.0,0.0,0.0,0.0,0.0,0.0,0.0,0.0,0.0,0.0,0.0,0.0,0.0,0.0,0.0,0.0,0.0,0.0,0.0,0.0,0.0,0.0,0.0,0.0,0.0,0.0,0.0,0.0,0.0,0.0,0.0,0.0,0.0,0.0,0.0,0.0,0.0,0.0,0.0,0.0,0.0,0.0,0.0,0.0,0.0,0.0,0.0,0.0,0.0,0.0,0.0,0.0,0.0,0.0,0.0,0.0,0.0,0.0,0.0,0.0,0.0,0.0,0.0,0.0,0.0,0.0,0.0,0.0,0.0,0.0,0.0,0.0,0.0,0.0,0.0,0.0,0.0,4.4392,4.4402,4.433,4.4211,4.3471,4.2682,0.0,0.0,0.0,0.0,0.0,0.0,0.0,0.0,0.0,0.0,0.0,0.0,0.0,0.0,0.0,0.0,0.0,0.0,0.0,0.0,0.0,0.0,0.0,0.0,0.0,0.0,0.0,0.0,0.0,0.0,0.0,0.0,0.0,0.0,0.0,0.0,0.0,0.0,0.0,0.0,0.0,0.0,0.0,0.0,0.0,0.0,0.0,0.0,0.0,0.0,0.0,0.0,0.0,0.0,0.0,0.0,0.0,0.0,0.0,0.0,0.0,0.0,0.0,0.0,0.0,0.0,0.0,0.0,0.0,0.0,0.0,0.0,0.0,0.0,0.0,0.0,0.0,0.0,0.0,0.0,0.0,0.0,0.0,0.0,0.0,0.0,0.0,0.0,0.0,0.0,0.0,0.0,0.0,0.0,0.0,0.0,0.0,0.0,0.0,0.0,0.0,0.0,0.0,0.0,0.0,0.0,0.0,0.0,0.0,4.4448,4.4952,4.4907,4.4319,4.4007,4.3245,0.0,0.0,0.0,0.0,0.0,0.0,0.0,0.0,0.0,0.0,0.0,0.0,0.0,0.0,0.0,0.0,0.0,0.0,0.0,0.0,0.0,0.0,0.0,0.0,0.0,0.0,0.0,0.0,0.0,0.0,0.0,0.0,0.0,0.0,0.0,0.0,0.0,0.0,0.0,0.0,0.0,0.0,0.0,0.0,0.0,0.0,0.0,0.0,0.0,0.0,0.0,0.0,0.0,0.0,0.0,0.0,0.0,0.0,0.0,0.0,0.0,0.0,0.0,0.0,0.0,0.0,0.0,0.0,0.0,0.0,0.0,0.0,0.0,0.0,0.0,0.0,0.0,0.0,0.0,0.0,0.0,0.0,0.0,0.0,0.0,0.0,0.0,0.0,0.0,0.0,0.0,0.0,0.0,0.0,0.0,0.0,0.0,0.0,0.0,0.0,0.0,0.0,0.0,0.0,0.0,0.0,0.0,0.0,0.0,4.5198,0.0,4.6011,4.5161,4.4858,4.3934,0.0,0.0,0.0,0.0,0.0,0.0,0.0,0.0,0.0,0.0,0.0,0.0,0.0,0.0,0.0,0.0,0.0,0.0,0.0,0.0,0.0,0.0,0.0,0.0,0.0,0.0,0.0,0.0,0.0,0.0,0.0,0.0,0.0,0.0,0.0,0.0,0.0,0.0,0.0,0.0,0.0,0.0,0.0,0.0,0.0,0.0,0.0,0.0,0.0,0.0,0.0,0.0,0.0,0.0,0.0,0.0,0.0,0.0,0.0,0.0,0.0,0.0,0.0,0.0,0.0,0.0,0.0,0.0,0.0,0.0,0.0,0.0,0.0,0.0,0.0,0.0,0.0,0.0,0.0,0.0,0.0,0.0,0.0,0.0,0.0,0.0,0.0,0.0,0.0,0.0,0.0,0.0,0.0,0.0,0.0,0.0,0.0,0.0,0.0,0.0,0.0,0.0,0.0,0.0,0.0,0.0,0.0,0.0,4.4642,4.6811,4.7687,4.7698,4.6926,4.6089,4.486,0.0,0.0,0.0,0.0,0.0,0.0,0.0,0.0,0.0,0.0,0.0,0.0,0.0,0.0,0.0,0.0,0.0,0.0,0.0,0.0,0.0,0.0,0.0,0.0,0.0,0.0,0.0,0.0,0.0,0.0,0.0,0.0,0.0,0.0,0.0,0.0,0.0,0.0,0.0,0.0,0.0,0.0,0.0,0.0,0.0,0.0,0.0,0.0,0.0,0.0,0.0,0.0,0.0,0.0,0.0,0.0,0.0,0.0,0.0,0.0,0.0,0.0,0.0,0.0,0.0,0.0,0.0,0.0,0.0,0.0,0.0,0.0,0.0,0.0,0.0,0.0,0.0,0.0,0.0,0.0,0.0,0.0,0.0,0.0,0.0,0.0,0.0,0.0,0.0,0.0,0.0,0.0,0.0,0.0,0.0,0.0,0.0,0.0,0.0,0.0,0.0,0.0,0.0,0.0,0.0,0.0,0.0,0.0,0.0,4.8658,4.888,4.8857,4.8626,4.7781,4.655,0.0,0.0,0.0,0.0,0.0,0.0,0.0,0.0,0.0,0.0,0.0,0.0,0.0,0.0,0.0,0.0,0.0,0.0,0.0,0.0,0.0,0.0,0.0,0.0,0.0,0.0,0.0,0.0,0.0,0.0,0.0,0.0,0.0,0.0,0.0,0.0,0.0,0.0,0.0,0.0,0.0,0.0,0.0,0.0,0.0,0.0,0.0,0.0,0.0,0.0,0.0,0.0,0.0,0.0,0.0,0.0,0.0,0.0,0.0,0.0,0.0,0.0,0.0,0.0,0.0,0.0,0.0,0.0,0.0,0.0,0.0,0.0,0.0,0.0,0.0,0.0,0.0,0.0,0.0,0.0,0.0,0.0,0.0,0.0,0.0,0.0,0.0,0.0,0.0,0.0,0.0,0.0,0.0,0.0,0.0,0.0,0.0,0.0,0.0,0.0,0.0,0.0,0.0,0.0,0.0,0.0,0.0,0.0,0.0,5.2709,5.1797,5.1165,5.0855,4.9969,4.843,4.6165,0.0,0.0,0.0,0.0,0.0,0.0,0.0,0.0,0.0,0.0,0.0,0.0,0.0,0.0,0.0,0.0,0.0,0.0,0.0,0.0,0.0,0.0,0.0,0.0,0.0,0.0,0.0,0.0,0.0,0.0,0.0,0.0,0.0,0.0,0.0,0.0,0.0,0.0,0.0,0.0,0.0,0.0,0.0,0.0,0.0,0.0,0.0,0.0,0.0,0.0,0.0,0.0,0.0,0.0,0.0,0.0,0.0,0.0,0.0,0.0,0.0,0.0,0.0,0.0,0.0,0.0,0.0,0.0,0.0,0.0,0.0,0.0,0.0,0.0,0.0,0.0,0.0,0.0,0.0,0.0,0.0,0.0,0.0,0.0,0.0,0.0,0.0,0.0,0.0,0.0,0.0,0.0,0.0,0.0,0.0,0.0,0.0,0.0,0.0,0.0,0.0,0.0,0.0,0.0,0.0,0.0,0.0,0.0,5.8508,5.632,5.4666,5.3509,5.2579,5.0541,0.0,0.0,0.0,0.0,0.0,0.0,0.0,0.0,0.0,0.0,0.0,0.0,0.0,0.0,0.0,0.0,0.0,0.0,0.0,0.0,0.0,0.0,0.0,0.0,0.0,0.0,0.0,0.0,0.0,0.0,0.0,0.0,0.0,0.0,0.0,0.0,0.0,0.0,0.0,0.0,0.0,0.0,0.0,0.0,0.0,0.0,0.0,0.0,0.0,0.0,0.0,0.0,0.0,0.0,0.0,0.0,0.0,0.0,0.0,0.0,0.0,0.0,0.0,0.0,0.0,0.0,0.0,0.0,0.0,0.0,0.0,0.0,0.0,0.0,0.0,0.0,0.0,0.0,0.0,0.0,0.0,0.0,0.0,0.0,0.0,0.0,0.0,0.0,0.0,0.0,0.0,0.0,0.0,0.0,0.0,0.0,0.0,0.0,0.0,0.0,0.0,0.0,0.0,0.0,0.0,0.0,0.0,0.0,0.0,6.1854,6.2591,6.1013,5.7125,5.5508,5.3128,0.0,0.0,0.0,0.0,0.0,0.0,0.0,0.0,0.0,0.0,0.0,0.0,0.0,0.0,0.0,0.0,0.0,0.0,0.0,0.0,0.0,0.0,0.0,0.0,0.0,0.0,0.0,0.0,0.0,0.0,0.0,0.0,0.0,0.0,0.0,0.0,0.0,0.0,0.0,0.0,0.0,0.0,0.0,0.0,0.0,0.0,0.0,0.0,0.0,0.0,0.0,0.0,0.0,0.0,0.0,0.0,0.0,0.0,0.0,0.0,0.0,0.0,0.0,0.0,0.0,0.0,0.0,0.0,0.0,0.0,0.0,0.0,0.0,0.0,0.0,0.0,0.0,0.0,0.0,0.0,0.0,0.0,0.0,0.0,0.0,0.0,0.0,0.0,0.0,0.0,0.0,0.0,0.0,0.0,0.0,0.0,0.0,0.0,0.0,0.0,0.0,0.0,0.0,0.0,0.0,0.0,0.0,0.0,6.2044,6.5391,6.7475,6.6822,6.3163,5.9667,5.6089,0.0,0.0,0.0,0.0,0.0,0.0,0.0,0.0,0.0,0.0,0.0,0.0,0.0,0.0,0.0,0.0,0.0,0.0,0.0,0.0,0.0,0.0,0.0,0.0,0.0,0.0,0.0,0.0,0.0,0.0,0.0,0.0,0.0,0.0,0.0,0.0,0.0,0.0,0.0,0.0,0.0,0.0,0.0,0.0,0.0,0.0,0.0,0.0,0.0,0.0,0.0,0.0,0.0,0.0,0.0,0.0,0.0,0.0,0.0,0.0,0.0,0.0,0.0,0.0,0.0,0.0,0.0,0.0,0.0,0.0,0.0,0.0,0.0,0.0,0.0,0.0,0.0,0.0,0.0,0.0,0.0,0.0,0.0,0.0,0.0,0.0,0.0,0.0,0.0,0.0,0.0,0.0,0.0,0.0,0.0,0.0,0.0,0.0,0.0,0.0,0.0,0.0,0.0,0.0,0.0,0.0,0.0,0.0,6.5428,6.889,7.1514,7.2054,7.0281,6.4476,5.9282,0.0,0.0,0.0,0.0,0.0,0.0,0.0,0.0,0.0,0.0,0.0,0.0,0.0,0.0,0.0,0.0,0.0,0.0,0.0,0.0,0.0,0.0,0.0,0.0,0.0,0.0,0.0,0.0,0.0,0.0,0.0,0.0,0.0,0.0,0.0,0.0,0.0,0.0,0.0,0.0,0.0,0.0,0.0,0.0,0.0,0.0,0.0,0.0,0.0,0.0,0.0,0.0,0.0,0.0,0.0,0.0,0.0,0.0,0.0,0.0,0.0,0.0,0.0,0.0,0.0,0.0,0.0,0.0,0.0,0.0,0.0,0.0,0.0,0.0,0.0,0.0,0.0,0.0,0.0,0.0,0.0,0.0,0.0,0.0,0.0,0.0,0.0,0.0,0.0,0.0,0.0,0.0,0.0,0.0,0.0,0.0,0.0,0.0,0.0,0.0,0.0,0.0,0.0,0.0,0.0,0.0,0.0,0.0,6.8282,7.2355,7.5516,7.6366,7.467,6.8244,6.2169,0.0,0.0,0.0,0.0,0.0,0.0,0.0,0.0,0.0,0.0,0.0,0.0,0.0,0.0,0.0,0.0,0.0,0.0,0.0,0.0,0.0,0.0,0.0,0.0,0.0,0.0,0.0,0.0,0.0,0.0,0.0,0.0,0.0,0.0,0.0,0.0,0.0,0.0,0.0,0.0,0.0,0.0,0.0,0.0,0.0,0.0,0.0,0.0,4.0128,0.0,0.0,0.0,0.0,0.0,0.0,0.0,0.0,0.0,0.0,0.0,0.0,0.0,0.0,0.0,0.0,0.0,0.0,0.0,0.0,0.0,0.0,0.0,0.0,0.0,0.0,0.0,0.0,0.0,0.0,0.0,0.0,0.0,0.0,0.0,0.0,0.0,0.0,0.0,0.0,0.0,0.0,0.0,0.0,0.0,0.0,0.0,0.0,0.0,0.0,0.0,0.0,0.0,0.0,0.0,0.0,0.0,0.0,0.0,7.1133,7.5709,7.8402,7.9079,7.7618,7.2353,6.6256,0.0,0.0,0.0,0.0,0.0,0.0,0.0,0.0,0.0,0.0,0.0,0.0,0.0,0.0,0.0,0.0,0.0,0.0,0.0,0.0,0.0,0.0,0.0,0.0,0.0,0.0,0.0,0.0,0.0,0.0,0.0,0.0,0.0,0.0,0.0,0.0,0.0,0.0,0.0,0.0,0.0,0.0,0.0,0.0,0.0,0.0,0.0,0.0,0.0,0.0,0.0,0.0,0.0,0.0,0.0,0.0,0.0,0.0,0.0,0.0,0.0,0.0,0.0,0.0,0.0,0.0,0.0,0.0,0.0,0.0,0.0,0.0,0.0,0.0,0.0,0.0,0.0,0.0,0.0,0.0,0.0,0.0,0.0,0.0,0.0,0.0,0.0,0.0,0.0,0.0,0.0,0.0,0.0,0.0,0.0,0.0,0.0,0.0,0.0,0.0,0.0,0.0,0.0,0.0,0.0,0.0,0.0,6.8273,7.3727,7.869,8.0675,8.1129,8.0019,7.595,7.0251,6.2851,0.0,0.0,0.0,0.0,0.0,0.0,0.0,0.0,0.0,0.0,0.0,0.0,0.0,0.0,0.0,0.0,0.0,0.0,0.0,0.0,0.0,0.0,0.0,0.0,0.0,0.0,0.0,0.0,0.0,0.0,0.0,0.0,0.0,0.0,0.0,0.0,0.0,0.0,3.6609,3.9219,0.0,0.0,0.0,0.0,0.0,0.0,0.0,0.0,4.3096,0.0,0.0,0.0,0.0,0.0,0.0,0.0,0.0,0.0,0.0,0.0,0.0,0.0,0.0,0.0,0.0,0.0,0.0,0.0,0.0,0.0,0.0,0.0,0.0,0.0,0.0,0.0,0.0,0.0,0.0,0.0,0.0,0.0,0.0,0.0,0.0,0.0,0.0,0.0,0.0,0.0,0.0,0.0,0.0,0.0,0.0,0.0,0.0,0.0,0.0,0.0,0.0,0.0,0.0,0.0,0.0,6.4165,6.9938,7.5359,8.0393,8.2819,8.3244,8.1521,7.7454,7.2018,6.516,0.0,0.0,0.0,0.0,0.0,0.0,0.0,0.0,0.0,0.0,0.0,0.0,0.0,0.0,0.0,0.0,0.0,0.0,0.0,0.0,0.0,0.0,0.0,0.0,0.0,0.0,0.0,0.0,0.0,0.0,0.0,0.0,0.0,0.0,0.0,0.0,0.0,0.0,0.0,4.1683,4.2931,0.0,0.0,0.0,0.0,0.0,0.0,0.0,0.0,4.3,0.0,0.0,0.0,0.0,0.0,0.0,0.0,0.0,0.0,0.0,0.0,0.0,0.0,0.0,0.0,0.0,0.0,0.0,0.0,0.0,0.0,0.0,0.0,0.0,0.0,0.0,0.0,0.0,0.0,0.0,0.0,0.0,0.0,0.0,0.0,0.0,0.0,0.0,0.0,0.0,0.0,0.0,0.0,0.0,0.0,0.0,0.0,0.0,0.0,0.0,0.0,0.0,0.0,0.0,0.0,6.6445,7.1904,7.7255,8.2498,8.3876,8.3806,8.229,7.7856,7.2255,0.0,0.0,0.0,0.0,0.0,0.0,0.0,0.0,0.0,0.0,0.0,0.0,0.0,0.0,0.0,0.0,0.0,0.0,0.0,0.0,0.0,0.0,0.0,0.0,0.0,0.0,0.0,0.0,0.0,0.0,0.0,0.0,0.0,0.0,0.0,0.0,0.0,0.0,0.0,0.0,4.387,4.4898,4.5679,0.0,0.0,0.0,0.0,0.0,0.0,4.5632,4.5649,0.0,0.0,0.0,0.0,0.0,0.0,0.0,0.0,0.0,0.0,0.0,0.0,0.0,0.0,0.0,0.0,0.0,0.0,0.0,0.0,0.0,0.0,0.0,0.0,0.0,0.0,0.0,0.0,0.0,0.0,0.0,0.0,0.0,0.0,0.0,0.0,0.0,0.0,0.0,0.0,0.0,0.0,0.0,0.0,0.0,0.0,0.0,0.0,0.0,0.0,0.0,0.0,0.0,0.0,0.0,6.8461,7.3488,7.8756,8.4034,8.4445,8.391,8.2514,7.7762,7.1933,0.0,0.0,0.0,0.0,0.0,0.0,0.0,0.0,0.0,0.0,0.0,0.0,0.0,0.0,0.0,0.0,0.0,0.0,0.0,0.0,0.0,0.0,0.0,0.0,0.0,0.0,0.0,0.0,0.0,0.0,0.0,0.0,0.0,0.0,0.0,0.0,0.0,0.0,0.0,0.0,0.0,4.707,4.847,4.8786,0.0,0.0,0.0,0.0,4.8538,4.8499,0.0,0.0,0.0,0.0,0.0,0.0,0.0,0.0,0.0,0.0,0.0,0.0,0.0,0.0,0.0,0.0,0.0,0.0,0.0,0.0,0.0,0.0,0.0,0.0,0.0,0.0,0.0,0.0,0.0,0.0,0.0,0.0,0.0,0.0,0.0,0.0,0.0,0.0,0.0,0.0,0.0,0.0,0.0,0.0,0.0,0.0,0.0,0.0,0.0,0.0,0.0,0.0,0.0,0.0,0.0,0.0,6.9257,7.4137,7.9013,8.3788,8.4648,8.402,8.2097,7.7349,7.1539,0.0,0.0,0.0,0.0,0.0,0.0,0.0,0.0,0.0,0.0,0.0,0.0,0.0,0.0,0.0,0.0,0.0,0.0,0.0,0.0,0.0,0.0,0.0,0.0,0.0,0.0,0.0,0.0,0.0,0.0,0.0,0.0,0.0,0.0,0.0,0.0,0.0,0.0,0.0,0.0,0.0,4.9326,5.0193,5.0875,5.1029,0.0,0.0,5.1057,5.0331,5.0212,0.0,0.0,0.0,0.0,0.0,0.0,0.0,0.0,0.0,0.0,0.0,0.0,0.0,0.0,0.0,0.0,0.0,0.0,0.0,0.0,0.0,0.0,0.0,0.0,0.0,0.0,0.0,0.0,0.0,0.0,0.0,0.0,0.0,0.0,0.0,0.0,0.0,0.0,0.0,0.0,0.0,0.0,0.0,0.0,0.0,0.0,0.0,0.0,0.0,0.0,0.0,0.0,0.0,0.0,0.0,6.4461,7.0691,7.5074,7.955,8.4131,8.41,8.325,8.1699,7.6456,7.0753,0.0,0.0,0.0,0.0,0.0,0.0,0.0,0.0,0.0,0.0,0.0,0.0,0.0,0.0,0.0,0.0,0.0,0.0,0.0,0.0,0.0,0.0,0.0,0.0,0.0,0.0,0.0,0.0,0.0,0.0,0.0,0.0,0.0,0.0,0.0,0.0,0.0,0.0,0.0,0.0,0.0,0.0,5.2469,5.3657,0.0,0.0,0.0,5.4154,5.3275,0.0,0.0,0.0,0.0,0.0,0.0,0.0,0.0,0.0,0.0,0.0,0.0,0.0,0.0,0.0,0.0,0.0,0.0,0.0,0.0,0.0,0.0,0.0,0.0,0.0,0.0,0.0,0.0,0.0,0.0,0.0,0.0,0.0,0.0,0.0,0.0,0.0,0.0,0.0,0.0,0.0,0.0,0.0,0.0,0.0,0.0,0.0,0.0,0.0,0.0,0.0,0.0,0.0,0.0,0.0,0.0,0.0,7.1693,7.5856,8.0096,8.4341,8.3978,8.288,8.1203,7.59,0.0,0.0,0.0,0.0,0.0,0.0,0.0,0.0,0.0,0.0,0.0,0.0,0.0,0.0,0.0,0.0,0.0,0.0,0.0,0.0,0.0,0.0,0.0,0.0,0.0,0.0,0.0,3.4431,0.0,0.0,0.0,0.0,0.0,0.0,0.0,0.0,0.0,0.0,0.0,0.0,0.0,0.0,5.4307,5.5174,5.6882,5.7664,0.0,0.0,5.75,5.6231,5.5507,5.484,0.0,0.0,0.0,0.0,0.0,0.0,0.0,0.0,0.0,0.0,0.0,0.0,0.0,0.0,0.0,0.0,0.0,0.0,0.0,0.0,0.0,0.0,0.0,0.0,0.0,0.0,0.0,0.0,0.0,0.0,0.0,0.0,0.0,0.0,0.0,0.0,0.0,0.0,0.0,0.0,0.0,0.0,0.0,0.0,0.0,0.0,0.0,0.0,0.0,0.0,0.0,0.0,0.0,0.0,0.0,7.1726,7.6313,8.0492,8.4267,8.4731,8.3559,8.0791,7.6028,7.0399,0.0,0.0,0.0,0.0,0.0,0.0,0.0,0.0,0.0,0.0,0.0,0.0,0.0,0.0,0.0,0.0,0.0,0.0,0.0,0.0,0.0,0.0,0.0,0.0,0.0,0.0,0.0,0.0,0.0,0.0,0.0,0.0,0.0,0.0,0.0,0.0,0.0,0.0,0.0,0.0,0.0,5.6858,5.8307,6.0561,6.1476,0.0,0.0,6.1073,5.8742,5.8325,5.7528,5.5222,0.0,0.0,0.0,0.0,0.0,0.0,0.0,0.0,0.0,0.0,0.0,0.0,0.0,0.0,0.0,0.0,0.0,0.0,0.0,0.0,0.0,0.0,0.0,0.0,0.0,0.0,0.0,0.0,0.0,0.0,0.0,0.0,0.0,0.0,0.0,0.0,0.0,0.0,0.0,0.0,0.0,0.0,0.0,0.0,0.0,0.0,0.0,0.0,0.0,0.0,0.0,0.0,0.0,6.6589,7.2242,7.6792,8.0662,8.3677,8.3839,8.2725,8.043,7.526,6.9964,0.0,0.0,0.0,0.0,0.0,0.0,0.0,0.0,0.0,0.0,0.0,0.0,0.0,0.0,0.0,0.0,0.0,0.0,0.0,0.0,0.0,0.0,0.0,0.0,0.0,0.0,0.0,0.0,3.8933,3.9987,4.1017,0.0,0.0,0.0,0.0,0.0,0.0,0.0,0.0,0.0,0.0,5.9186,6.0576,6.2485,0.0,0.0,6.2729,6.2807,6.0853,5.969,5.8541,5.7089,5.5689,0.0,0.0,0.0,0.0,0.0,0.0,0.0,0.0,0.0,0.0,0.0,0.0,0.0,0.0,0.0,0.0,0.0,0.0,0.0,0.0,0.0,0.0,0.0,0.0,0.0,0.0,0.0,0.0,0.0,0.0,0.0,0.0,0.0,0.0,0.0,0.0,0.0,0.0,0.0,0.0,0.0,0.0,0.0,0.0,0.0,0.0,0.0,0.0,0.0,0.0,0.0,0.0,6.6961,7.253,7.7314,8.0981,8.3451,8.3688,8.2597,8.0102,7.4982,6.9902,0.0,0.0,0.0,0.0,0.0,0.0,0.0,0.0,0.0,0.0,0.0,0.0,0.0,0.0,0.0,0.0,0.0,0.0,0.0,0.0,0.0,0.0,0.0,0.0,0.0,0.0,0.0,0.0,4.0548,4.1956,4.366,0.0,0.0,0.0,0.0,0.0,0.0,0.0,0.0,0.0,0.0,6.1168,6.2492,6.4247,6.5079,6.4099,6.4609,6.4438,6.2603,6.131,6.0057,5.8549,0.0,0.0,0.0,0.0,0.0,0.0,0.0,0.0,0.0,0.0,0.0,0.0,0.0,0.0,0.0,0.0,0.0,0.0,0.0,0.0,0.0,0.0,0.0,0.0,0.0,0.0,0.0,5.0447,0.0,0.0,5.0461,0.0,0.0,0.0,0.0,0.0,0.0,0.0,0.0,0.0,0.0,0.0,0.0,0.0,0.0,0.0,0.0,0.0,0.0,0.0,0.0,0.0,0.0,6.6994,7.2525,7.7832,8.1501,8.341,8.4703,8.3592,8.0045,7.5379,7.0302,6.4801,0.0,0.0,0.0,0.0,0.0,0.0,0.0,0.0,0.0,0.0,0.0,0.0,0.0,0.0,0.0,0.0,0.0,0.0,0.0,0.0,0.0,0.0,0.0,0.0,0.0,0.0,4.2931,4.3009,4.3721,0.0,0.0,0.0,0.0,0.0,0.0,0.0,0.0,0.0,0.0,6.0214,6.2629,6.3995,6.6071,6.7115,6.6253,6.6682,6.6277,6.3842,6.3388,6.2376,0.0,0.0,0.0,0.0,0.0,0.0,0.0,0.0,0.0,0.0,0.0,0.0,0.0,0.0,0.0,0.0,0.0,0.0,0.0,0.0,0.0,0.0,0.0,0.0,0.0,0.0,0.0,5.3109,5.2849,0.0,0.0,0.0,0.0,0.0,0.0,0.0,0.0,0.0,0.0,0.0,5.8794,5.8903,0.0,0.0,0.0,0.0,0.0,0.0,0.0,0.0,0.0,0.0,0.0,0.0,6.7977,7.2394,7.7652,8.1029,8.2426,8.3742,8.2707,7.9168,7.5573,6.9928,6.2058,0.0,0.0,0.0,0.0,0.0,0.0,0.0,0.0,0.0,0.0,0.0,0.0,0.0,0.0,0.0,0.0,0.0,0.0,0.0,0.0,0.0,0.0,0.0,0.0,0.0,4.3548,0.0,0.0,0.0,0.0,0.0,0.0,0.0,0.0,0.0,0.0,0.0,5.7105,6.0118,6.2174,6.4286,6.6651,6.7111,6.7259,0.0,0.0,0.0,0.0,0.0,0.0,0.0,0.0,0.0,0.0,0.0,0.0,0.0,0.0,5.7613,5.5403,5.5438,5.587,5.6144,0.0,0.0,0.0,0.0,0.0,0.0,0.0,0.0,0.0,0.0,0.0,0.0,0.0,0.0,5.6279,0.0,5.5795,0.0,0.0,0.0,0.0,0.0,0.0,0.0,0.0,6.0219,6.0975,6.1998,6.1757,6.165,0.0,6.1239,5.992,0.0,0.0,0.0,0.0,0.0,0.0,0.0,0.0,6.8599,7.2707,7.7649,8.0748,8.1873,8.322,8.2318,7.9057,7.4478,6.8439,6.0862,5.8249,5.5538,0.0,0.0,0.0,0.0,0.0,0.0,0.0,0.0,0.0,0.0,0.0,0.0,0.0,0.0,0.0,0.0,0.0,0.0,0.0,0.0,0.0,0.0,0.0,4.526,0.0,0.0,0.0,0.0,0.0,0.0,0.0,0.0,0.0,5.482,5.6885,5.9347,6.2022,6.4025,6.5984,6.8089,0.0,0.0,0.0,0.0,0.0,0.0,0.0,6.4316,6.2991,6.201,6.1159,6.047,6.0983,6.1334,6.0829,0.0,0.0,5.7768,5.7647,5.817,5.8741,5.9725,6.0614,6.1229,6.2633,6.3842,0.0,0.0,0.0,0.0,0.0,0.0,0.0,0.0,5.8801,5.9178,0.0,5.9095,0.0,0.0,0.0,0.0,0.0,5.8944,0.0,0.0,6.2888,6.3648,6.5116,6.4828,6.4635,6.4591,6.3687,6.2869,6.2039,6.0232,0.0,0.0,0.0,0.0,0.0,0.0,6.8969,7.3485,7.7892,8.0738,8.1862,8.3171,8.2502,7.9587,7.2336,6.6184,6.1584,5.8586,5.6288,5.4723,5.1829,0.0,0.0,0.0,0.0,0.0,0.0,0.0,0.0,0.0,0.0,0.0,0.0,0.0,0.0,0.0,0.0,0.0,0.0,0.0,0.0,4.7602,0.0,0.0,0.0,0.0,0.0,0.0,0.0,0.0,0.0,0.0,5.679,5.8553,6.0674,6.2967,0.0,0.0,0.0,0.0,7.0295,7.0299,7.0206,6.9519,6.8014,6.7734,6.6932,6.4723,0.0,0.0,6.3612,6.3587,6.3654,6.3673,6.3686,6.2795,6.0168,5.9683,6.0038,6.1508,6.192,6.2468,6.4006,6.5619,6.6811,6.6198,0.0,0.0,0.0,0.0,6.1318,6.1834,6.26,6.2593,6.2407,6.2041,6.1353,0.0,0.0,0.0,0.0,0.0,0.0,6.3317,6.62,6.5894,6.6631,6.8221,6.7784,6.7571,6.7531,6.6646,6.59,6.5196,6.4338,6.233,5.9266,0.0,0.0,0.0,0.0,7.0749,7.4156,7.7935,8.0528,8.1741,8.2455,8.1064,7.7391,7.2466,6.8197,6.4748,6.1698,5.883,5.6189,5.4297,0.0,0.0,0.0,0.0,0.0,0.0,0.0,0.0,0.0,0.0,0.0,0.0,0.0,0.0,0.0,0.0,0.0,0.0,0.0,4.8388,4.9166,4.9894,0.0,0.0,0.0,0.0,0.0,0.0,0.0,0.0,0.0,6.1833,6.2093,6.3154,0.0,0.0,6.8608,7.0377,7.0358,7.0359,7.0944,7.0476,0.0,6.9503,6.8919,6.8355,6.7657,6.7152,6.6808,6.6763,6.6779,6.6766,6.6778,6.6765,6.6477,6.5732,6.4224,6.3616,6.4525,6.5211,6.5924,6.7012,6.8482,6.9614,7.3586,6.8951,6.7232,6.6261,6.59,6.6047,6.6361,6.6821,6.6821,6.6367,6.5556,6.4593,6.3756,6.294,6.2061,0.0,0.0,0.0,6.6135,6.9271,6.8848,6.9581,7.107,7.0724,7.0506,7.0471,6.9312,6.8596,6.8234,6.7498,6.6007,6.3851,0.0,0.0,6.6042,6.8999,7.2148,7.535,7.8313,8.0425,8.167,8.1482,7.9729,7.6298,7.2751,6.9286,6.5868,6.2834,6.0015,5.7511,5.5467,5.3889,0.0,0.0,0.0,0.0,0.0,0.0,0.0,0.0,0.0,0.0,0.0,4.7584,4.8084,0.0,0.0,0.0,4.9556,5.0051,5.0441,5.1169,0.0,0.0,0.0,0.0,0.0,0.0,0.0,5.9118,6.1149,6.3274,6.5398,6.5981,6.6859,6.8621,6.9492,7.0583,7.2237,0.0,7.2159,7.2657,7.2332,7.1904,7.1571,7.0851,7.0113,6.9443,6.905,6.8816,6.8875,6.8905,6.89,6.8929,6.9165,6.9352,6.9383,6.8458,6.7713,6.7771,6.8144,6.8852,6.9941,7.1209,7.2087,8.0831,7.7881,7.3475,7.137,7.0996,7.1126,7.1134,7.1171,7.114,7.0692,6.9861,6.8544,6.7434,6.6515,6.5436,0.0,6.7347,6.7397,6.916,7.2195,7.1763,7.2404,7.3886,7.3541,7.3343,7.3195,7.1678,7.1013,7.1096,6.9937,6.949,6.963,6.7168,6.7028,6.9136,7.0749,7.3368,7.6974,7.8979,8.0525,8.1688,8.0489,7.8637,7.6244,7.3216,6.9724,6.5761,6.2689,6.0297,5.8605,5.5824,5.4191,5.4051,0.0,0.0,0.0,0.0,0.0,0.0,0.0,0.0,0.0,0.0,0.0,0.0,0.0,0.0,0.0,5.1991,0.0,5.2865,5.3451,0.0,0.0,0.0,5.6701,5.7548,5.8364,5.9741,6.2093,0.0,0.0,6.7828,6.9833,7.1106,7.132,7.218,7.3081,7.3846,7.4418,7.4896,7.473,7.4849,7.4594,7.372,7.3076,7.219,7.0945,7.0492,7.0567,7.0598,7.0596,7.0534,7.06,7.1083,7.1584,7.1592,7.2053,7.2336,7.1135,7.0855,7.121,7.261,7.3612,7.4185,8.4524,8.3643,8.1336,7.7956,7.4227,7.4222,7.4239,7.4239,7.4243,7.3769,7.2976,7.2161,7.075,6.8952,6.8786,6.931,7.0458,7.0903,7.2572,7.5022,7.465,7.5042,7.604,7.5763,7.5281,7.4584,7.3622,7.3264,7.3471,7.2772,7.2627,7.2935,7.2391,7.1899,7.1506,7.3452,7.5683,7.8162,8.0186,8.1521,8.202,8.0606,7.8923,7.7036,7.4018,7.0791,6.7405,6.4313,6.1635,5.9429,5.754,5.5951,5.4731,5.3972,0.0,0.0,0.0,0.0,0.0,0.0,0.0,0.0,0.0,5.1987,5.1903,0.0,5.2228,0.0,5.3035,5.3886,5.493,5.5702,0.0,0.0,5.7931,5.9081,6.0489,6.0848,6.2103,6.508,6.6191,6.7852,7.0734,7.1874,7.31,7.4775,7.4241,7.3851,7.454,7.4796,7.4883,7.4929,7.4964,7.4824,7.4677,7.4469,7.4158,7.3836,7.3732,7.3765,7.3732,7.3753,7.3766,7.3787,7.3899,7.4052,7.3992,7.4236,7.4455,7.4596,7.3802,7.3215,7.4228,7.507,7.579,8.8059,8.7284,8.6073,8.359,8.0396,7.8968,7.8382,7.8379,7.8382,7.7727,7.6567,7.5143,7.3477,7.1768,7.1865,7.2419,7.3345,7.3631,7.512,7.7412,7.7132,7.7437,7.8208,7.8022,7.7658,7.7143,7.5992,7.5522,7.5715,7.4863,7.456,7.4879,7.5438,7.5519,7.5148,7.6062,7.772,8.0149,8.1745,8.2613,8.268,8.0836,7.8997,7.7289,7.425,7.1103,6.7914,6.4745,6.206,6.0043,5.8193,5.6779,5.59,5.4954,5.4296,0.0,0.0,0.0,0.0,0.0,0.0,0.0,0.0,0.0,0.0,0.0,5.4423,5.5284,5.5576,5.6111,5.7079,5.7831,5.8575,5.9305,6.0148,6.1424,6.3396,6.3625,6.4848,6.8006,6.9004,7.0348,7.2667,7.3851,7.49,7.6233,7.5835,7.554,7.5866,7.5975,7.5956,7.5982,7.5946,7.5841,7.5522,7.5427,7.5315,7.4959,7.4908,7.4878,7.49,7.4889,7.4878,7.4908,7.5187,7.5441,7.5438,7.574,7.6147,7.6349,7.5946,7.5535,7.5898,7.6313,7.6893,9.1395,8.9955,8.9156,8.8385,8.7394,8.4499,8.303,8.2668,8.2668,8.1754,8.0114,7.7769,7.603,7.4887,7.4858,7.5298,7.6025,7.6078,7.7363,7.9535,7.9357,7.9592,8.025,8.0169,8.0,7.9743,7.8324,7.7708,7.7874,7.6741,7.625,7.6445,7.7358,7.8263,7.903,7.8635,7.9703,8.2235,8.3135,8.3513,8.3353,8.1052,7.8997,7.7285,7.4177,7.0994,6.7811,6.4637,6.2169,6.0456,5.8422,5.7193,5.6978,5.5859,5.5265,0.0,5.4918,0.0,0.0,0.0,0.0,0.0,0.0,0.0,0.0,5.5244,5.6527,5.8528,5.8624,5.8803,5.9291,6.0109,6.0888,6.1586,6.2393,6.3807,6.6084,6.6515,6.7702,7.0655,7.1682,7.2699,7.4213,7.5569,7.6361,7.6548,7.6862,7.7092,7.7248,7.7204,7.7163,7.7322,7.7322,7.6895,7.6397,7.6265,7.6052,7.5384,7.5315,7.521,7.5294,7.5283,7.5258,7.5324,7.5831,7.6245,7.6232,7.6824,7.7241,7.7248,7.7138,7.7138,7.7175,7.7175,7.7629,9.4258,9.3313,9.2496,9.1693,9.0776,8.9523,8.7509,8.5131,8.5131,8.4209,8.2545,8.0203,7.9048,7.8858,7.8233,7.8098,7.8378,7.892,8.0124,8.1775,8.1625,8.1643,8.179,8.1766,8.1056,7.9853,7.9474,7.9409,7.9512,7.9279,7.9272,7.9507,7.9754,8.0265,8.1125,0.0,0.0,0.0,8.3386,8.3418,8.3312,8.1052,7.8997,7.7322,7.4173,0.0,6.7811,6.5237,6.2768,6.0526,5.9363,0.0,0.0,0.0,0.0,0.0,0.0,0.0,0.0,0.0,0.0,0.0,5.7888,5.739,5.6997,5.7405,5.8409,6.0015,6.0572,6.1015,6.1586,6.2913,6.4009,6.4682,6.5528,6.673,6.8465,6.9224,7.0404,7.2224,7.3098,7.4156,7.5654,7.6118,7.6391,7.7008,7.7235,7.7285,7.7322,7.7322,7.7322,7.7322,7.7322,7.7244,7.7105,7.7032,7.6962,7.6845,7.6845,7.6793,7.6758,7.677,7.6804,7.6783,7.6947,7.7051,7.7038,7.72,7.7322,7.7322,7.7322,7.7322,7.7322,7.7322,7.7725,9.6203,9.5405,9.4625,9.3786,0.0,9.2579,9.1037,8.8692,8.7912,8.6688,8.5037,8.303,8.197,8.1634,8.1234,8.1098,8.1198,8.1523,8.2341,8.3484,8.3402,8.3398,8.3393,8.3402,8.2741,8.1599,8.1199,8.0807,8.0507,8.0173,8.0079,8.0239,8.1094,8.1768,8.2212,8.372,8.4598,8.4838,8.4664,8.438,8.3903,8.1632,7.9393,7.7322,7.4177,0.0,0.0,0.0,0.0,0.0,0.0,0.0,0.0,5.7961,0.0,5.7166,5.7024,5.725,5.7864,5.8388,5.9132,6.0104,6.0483,6.0401,5.9828,6.0181,6.1069,6.2572,6.3234,6.3839,6.4456,6.5541,6.6664,6.7668,6.8215,6.9246,7.1116,7.1837,7.2709,7.4169,7.4779,7.5467,7.6675,7.6762,7.6852,7.7212,7.7322,7.7322,7.7322,7.7322,7.7322,7.7322,7.7322,7.7285,7.7322,7.7322,7.7322,7.7285,7.7322,7.7322,7.7322,7.7322,7.7322,7.7322,7.7322,7.7322,7.7322,7.7322,7.7322,7.7322,7.7322,7.7322,7.7322,7.7322,7.7795,9.809,9.7273,9.6497,9.5579,9.4708,9.4745,9.379,9.2097,0.0,0.0,0.0,8.5885,8.4784,8.4042,8.3899,8.3752,8.3605,8.3605,8.4123,8.5013,8.4898,8.4903,8.5008,8.4866,8.4384,8.3601,8.2957,8.2264,8.1636,8.1062,8.0794,8.0953,8.231,8.3115,8.3361,8.5116,8.6113,8.6219,8.5979,8.5421,8.4572,8.2251,7.9906,7.7582,7.4397,7.1578,6.9189,6.6299,6.4206,6.305,6.1777,6.093,6.0606,5.9451,5.8748,5.8632,5.8258,5.8433,5.9331,6.0211,6.1249,6.2443,6.3169,6.3319,6.2786,6.3026,6.3833,6.5357,6.6042,6.6632,6.7263,6.8036,6.9097,7.0555,7.0734,7.1603,7.3574,7.4077,7.4605,7.5845,7.6147,7.6536,7.7167,7.7252,7.7322,7.7322,7.7322,7.7322,7.7322,7.7322,7.7322,7.7322,7.7322,7.7322,7.7322,7.7322,7.7322,7.7322,7.7322,7.7322,7.7322,7.7322,7.7322,7.7322,7.7322,7.7322,7.7322,7.7322,7.7322,7.7322,7.7322,7.7322,7.7322,7.7322,7.7828,10.0513,9.9732,9.892,9.7745,9.636,9.6392,9.5442,9.3717,9.0725,8.929,8.8996,8.8087,8.7247,8.6468,8.5783,8.509,8.4454,8.4417,8.5229,8.6582,8.593,8.6004,8.6619,8.5967,8.52,8.4462,8.4315,8.4205,8.4099,8.3965,8.3941,8.3949,8.4223,8.4652,8.5309,8.5692,8.6193,8.6841,8.6163,8.5384,8.4609,8.226,8.0163,7.8402,7.5252,7.2393,7.0,6.8171,6.6192,6.4059,6.3689,6.2925,6.1526,6.1254,6.0861,6.0334,6.0205,6.0578,6.1561,6.18,6.2903,6.5165,6.6038,6.6197,6.5732,6.558,6.6149,6.7574,6.8309,6.8954,6.9717,7.0393,7.146,7.2874,7.3173,7.3632,7.4676,7.5316,7.5816,7.6114,7.6723,7.7115,7.7241,7.7322,7.7322,7.7322,7.7322,7.7322,7.7322,7.7322,7.7322,7.7322,7.7322,7.7322,7.7322,7.7322,7.7322,7.7322,7.7322,7.7322,7.7322,7.7322,7.7322,7.7322,7.7322,7.7322,7.7322,7.7322,7.7322,7.7322,7.7322,7.7322,7.7322,7.7322,7.7872,10.2343,10.1531,10.0723,9.9732,9.8562,9.7273,9.6282,9.5401,9.3083,9.1537,9.0588,8.9409,8.867,8.8303,8.7904,8.7573,8.7206,8.7206,8.7606,8.8262,8.794,8.794,8.823,8.7899,8.7101,8.5995,8.5889,8.5445,8.4682,8.4609,8.4609,8.4646,8.5017,8.5637,8.6444,8.6885,8.7064,8.6978,8.6623,8.5857,8.4605,8.3096,8.1118,7.8666,7.6244,7.3854,7.1471,6.986,6.8281,6.6769,6.5895,6.5047,6.4313,6.3432,6.2836,6.2521,6.2509,6.2778,6.3215,6.417,6.5604,6.762,6.8461,6.9161,6.9731,6.8467,6.8341,6.982,7.0567,7.1269,7.2074,7.2821,7.3751,7.4889,7.4995,7.533,7.6036,7.6512,7.6755,7.6787,7.7065,7.7281,7.7322,7.7322,7.7322,7.7322,7.7322,7.7322,7.7322,7.7322,7.7322,7.7322,7.7322,7.7322,7.7322,7.7322,7.7322,7.7322,7.7322,7.7322,7.7322,7.7322,7.7322,7.7322,7.7322,7.7322,7.7322,7.7322,7.7322,7.7322,7.7322,7.7322,7.7318,7.7656,7.8438,10.4105,10.3476,10.2453,10.1467,10.0398,9.819,9.7163,9.6832,9.5442,9.4006,9.2537,9.0946,9.0134,8.9913,8.9767,8.9579,8.94,8.94,8.9477,8.9657,8.9473,8.9477,8.9624,8.951,8.8743,8.7642,8.7537,8.6913,8.5775,8.5665,8.5702,8.5738,8.6293,8.6921,8.7569,8.8165,8.8165,8.7569,8.7532,8.6697,8.4903,8.3903,8.2105,7.9547,7.7447,7.5428,7.341,7.1765,7.0444,6.9475,6.8234,6.743,6.7023,6.5855,6.5091,6.495,6.4957,6.5075,6.5375,6.6894,6.851,6.9881,7.0753,7.1774,7.2854,7.1516,7.0887,7.2083,7.27,7.3344,7.4089,7.472,7.5484,7.6232,7.6384,7.654,7.716,7.7322,7.7322,7.7322,7.7322,7.7322,7.7322,7.7322,7.7322,7.7322,7.7322,7.7322,7.7322,7.7322,7.7322,7.7322,7.7322,7.7322,7.7322,7.7322,7.7322,7.7322,7.7322,7.7322,7.7322,7.7322,7.7322,7.7322,7.7322,7.7322,7.7322,7.7322,7.7322,7.7322,7.7322,7.7322,7.7322,7.7729,7.8626,10.6088,10.5794,10.4325,10.2789,10.1242,9.9585,9.8484,9.7755,9.6832,9.5983,9.4983,9.3446,9.2313,9.1546,9.0844,9.0175,8.9546,8.94,8.9803,9.0363,8.973,8.9808,9.0404,8.9771,8.9326,8.9138,8.9143,8.8996,8.8702,8.8776,8.889,8.8959,8.9033,8.9033,8.9143,8.9216,8.9253,8.9179,8.9179,8.8046,8.5788,8.4197,8.2908,8.1901,7.8834,7.6775,7.5763,7.4221,7.2642,7.1233,7.094,7.0173,6.8895,6.8525,6.8128,6.7477,6.738,6.7674,6.8471,6.9977,7.125,7.2128,7.2924,7.3721,7.4573,7.4456,7.4375,7.4562,7.4625,7.4948,7.573,7.5936,7.6304,7.6966,7.7127,7.7237,7.7281,7.7322,7.7322,7.7322,7.7322,7.7322,7.7322,7.7322,7.7322,7.7322,7.7322,7.7322,7.7322,7.7322,7.7322,7.7322,7.7322,7.7322,7.7322,7.7322,7.7322,7.7322,7.7322,7.7322,7.7322,7.7322,7.7322,7.7322,7.7322,7.7322,7.7322,7.7322,7.7322,7.7322,7.7322,7.7322,7.7322,7.7432,7.8067,10.7391,10.7016,10.5873,10.4137,10.2191,10.098,10.0062,9.9223,9.7975,9.7241,9.6759,9.5212,9.4074,9.3244,9.2427,9.1868,9.1569,9.106,9.0991,9.1289,9.0955,9.0987,9.1253,9.0996,9.0583,9.0138,9.0101,8.9845,8.9473,8.94,8.94,8.94,8.94,8.94,8.9432,8.9881,8.9877,8.9436,8.9877,8.9409,8.794,8.6362,8.4458,8.2333,8.0865,7.9319,7.7671,7.6456,7.5315,7.418,7.3223,7.2419,7.1765,7.1277,7.0881,7.055,7.0517,7.0881,7.1685,7.2386,7.3083,7.3879,7.4658,7.5285,7.5575,7.6041,7.6331,7.6257,7.5894,7.5942,7.6673,7.6813,7.6923,7.7252,7.7322,7.7322,7.7322,7.7322,7.7322,7.7322,7.7322,7.7322,7.7322,7.7322,7.7322,7.7322,7.7322,7.7322,7.7322,7.7322,7.7322,7.7322,7.7322,7.7322,7.7322,7.7322,7.7322,7.7322,7.7322,7.7322,7.7322,7.7322,7.7322,7.7322,7.7322,7.7322,7.7322,7.7322,7.7322,7.7322,7.7322,7.7322,7.7322,7.7322,7.7843,10.8434,10.7765,10.6607,10.5013,10.3282,10.227,10.1394,10.0508,9.915,9.8452,9.8085,9.6754,9.5841,9.5144,9.4006,9.3414,9.334,9.2762,9.2354,9.217,9.2134,9.2019,9.1812,9.1812,9.1473,9.0991,9.0918,9.0624,9.0106,9.0065,9.0065,9.0065,9.0065,9.006,9.0101,9.0656,9.0656,9.0179,9.0656,9.0546,8.9665,8.8601,8.655,8.3769,8.2627,8.1346,7.9694,7.8581,7.759,7.6794,7.5436,7.4592,7.4335,7.3593,7.3153,7.3153,7.3145,7.352,7.4294,7.4551,7.5025,7.5865,7.6644,7.7125,7.7198,7.7664,7.7953,7.7957,7.7443,7.7337,7.7175,7.7322,7.7322,7.7322,7.7322,7.7322,7.7322,7.7322,7.7322,7.7322,7.7322,7.7322,7.7322,7.7322,7.7322,7.7322,7.7322,7.7322,7.7322,7.7322,7.7322,7.7322,7.7322,7.7322,7.7322,7.7322,7.7322,7.7322,7.7322,7.7322,7.7322,7.7322,7.7322,7.7322,7.7322,7.7322,7.7322,7.7322,7.7322,7.7322,7.7322,7.7322,7.7322,7.7322,7.7546,10.924,10.841,10.6182,10.5149,10.4861,10.3324,10.2191,10.1399,10.0508,9.9769,9.8993,9.8122,9.776,9.7429,9.5337,9.4267,9.4226,9.4121,9.368,9.3083,9.2973,9.257,9.1812,9.1812,9.1776,9.1661,9.1624,9.162,9.1579,9.1624,9.1693,9.1624,9.1537,9.1611,9.156,9.1588,9.1725,9.1524,9.1597,9.1322,9.062,9.0436,8.9115,8.6725,8.3875,8.23,8.1827,8.051,7.9331,7.8523,7.7627,7.6775,7.6056,7.5282,7.4911,7.4907,7.487,7.5208,7.6016,7.6709,7.744,7.8259,7.8927,7.9522,7.9302,7.9368,7.9441,7.9633,7.9368,7.885,7.7696,7.7509,7.7395,7.7322,7.7322,7.7322,7.7322,7.7322,7.7322,7.7322,7.7322,7.7322,7.7322,7.7322,7.7322,7.7322,7.7322,7.7322,7.7322,7.7322,7.7322,7.7322,7.7322,7.7322,7.7322,7.7322,7.7322,7.7322,7.7322,7.7322,7.7322,7.7322,7.7322,7.7322,7.7322,7.7322,7.7322,7.7322,7.7322,7.7322,7.7322,7.7322,7.7322,7.7322,7.7472,10.9577,10.8688,10.7299,10.6082,10.5075,10.4457,10.3508,10.2223,10.1389,10.0618,9.98,9.903,9.8374,9.7838,9.7025,9.6025,9.507,9.4561,9.4157,9.3822,9.3345,9.2941,9.2611,9.206,9.1812,9.1812,9.1812,9.1812,9.1812,9.1812,9.1812,9.1785,9.1675,9.162,9.1597,9.1494,9.149,9.161,9.1578,9.1533,9.1308,9.0881,9.0143,8.9262,8.6693,8.4784,8.3765,8.2194,8.1203,8.0901,7.9661,7.8772,7.8487,7.8193,7.8042,7.8046,7.8046,7.8152,7.845,7.874,7.9033,7.9335,7.9592,7.9853,7.9816,7.9816,7.9816,7.9816,7.9816,7.9408,7.8997,7.8442,7.7884,7.7432,7.7322,7.7322,7.7322,7.7322,7.7322,7.7322,7.7322,7.7322,7.7322,7.7322,7.7322,7.7322,7.7322,7.7322,7.7322,7.7322,7.7322,7.7322,7.7322,7.7322,7.7322,7.7322,7.7322,7.7322,7.7322,7.7322,7.7322,7.7322,7.7322,7.7322,7.7322,7.7322,7.7322,7.7322,7.7322,7.7322,7.7322,7.7322,7.7322,7.7322,7.7322,10.9786,10.9071,10.8044,10.6969,10.5893,10.5343,10.4488,10.3361,10.2338,10.1567,10.0943,9.9984,9.9181,9.8604,9.8127,9.7351,9.624,9.5442,9.4928,9.4666,9.4111,9.3597,9.3047,9.2501,9.206,9.1845,9.1812,9.1812,9.1799,9.1744,9.1716,9.1703,9.1513,9.1415,9.1391,9.1278,9.1282,9.1405,9.1439,9.1583,9.1634,9.1262,9.0844,9.0404,8.9,8.728,8.5449,8.3834,8.2998,8.2778,8.1464,8.0363,7.9893,7.9816,7.9816,7.9816,7.9779,7.9922,8.0139,8.0175,8.0285,8.0583,8.0579,8.0579,8.0579,8.0583,8.0583,8.0587,8.0587,8.051,8.0139,7.9694,7.8915,7.7917,7.7472,7.7322,7.7322,7.7322,7.7322,7.7322,7.7322,7.7322,7.7322,7.7322,7.7322,7.7322,7.7322,7.7322,7.7322,7.7322,7.7322,7.7322,7.7322,7.7322,7.7322,7.7322,7.7322,7.7322,7.7322,7.7322,7.7322,7.7322,7.7322,7.7322,7.7322,7.7322,7.7322,7.7322,7.7322,7.7322,7.7322,7.7322,7.7322,7.7322,7.7322,10.9773,10.9689,10.8264,10.7593,10.7194,10.5825,10.5112,10.4677,10.3398,10.27,10.2223,10.1012,10.0319,9.9884,9.8636,9.7906,9.7571,9.68,9.6093,9.5533,9.5354,9.4547,9.3235,9.3047,9.2501,9.1803,9.1812,9.1803,9.1771,9.162,9.1532,9.1466,9.1351,9.1258,9.1182,9.1142,9.118,9.1211,9.1353,9.1444,9.1536,9.1639,9.1363,9.0771,9.0436,8.9298,8.7129,8.549,8.4605,8.4458,8.3067,8.1493,8.044,8.0257,8.0036,8.0216,8.0036,8.0359,8.1004,8.1232,8.1599,8.2043,8.2227,8.2194,8.2194,8.219,8.2154,8.208,8.208,8.1864,8.1154,8.0824,8.0127,7.8813,7.788,7.7469,7.7322,7.7322,7.7322,7.7322,7.7322,7.7322,7.7322,7.7322,7.7322,7.7322,7.7322,7.7322,7.7322,7.7322,7.7322,7.7322,7.7322,7.7322,7.7322,7.7322,7.7322,7.7322,7.7322,7.7322,7.7322,7.7322,7.7322,7.7322,7.7322,7.7322,7.7322,7.7322,7.7322,7.7322,7.7322,7.7322,7.7322,7.7322,7.7322,10.9835,10.9605,10.859,10.7924,10.7488,10.6455,10.5673,10.5117,10.453,10.3723,10.2737,10.2186,10.1342,10.0246,9.9181,9.8411,9.787,9.7094,9.657,9.6272,9.5763,9.4992,9.4006,9.3345,9.2643,9.1923,9.1812,9.1735,9.1615,9.1541,9.1386,9.1183,9.1459,9.1213,9.0696,9.0927,9.103,9.0842,9.099,9.1221,9.1458,9.1707,9.1661,9.14,9.0877,9.0184,8.9404,8.7427,8.6325,8.6215,8.4719,8.3618,8.3181,8.3108,8.3104,8.3108,8.3108,8.3177,8.3398,8.343,8.3471,8.3765,8.3834,8.3875,8.3838,8.3801,8.3544,8.3136,8.3026,8.2692,8.1929,8.1301,8.0384,7.8776,7.8324,7.7917,7.7443,7.7322,7.7322,7.7322,7.7322,7.7322,7.7322,7.7322,7.7322,7.7322,7.7322,7.7322,7.7322,7.7322,7.7322,7.7322,7.7322,7.7322,7.7322,7.7322,7.7322,7.7322,7.7322,7.7322,7.7322,7.7322,7.7322,7.7322,7.7322,7.7322,7.7322,7.7322,7.7322,7.7322,7.7322,7.7322,7.7322,7.7322,7.7322,10.9829,10.9678,10.9091,10.8484,10.7841,10.7115,10.6344,10.56,10.5228,10.4347,10.3287,10.281,10.1971,10.0765,9.9916,9.9108,9.8305,9.753,9.6984,9.6685,9.6245,9.5506,9.4666,9.3597,9.2648,9.1918,9.1812,9.1707,9.1513,9.1641,9.1514,9.1225,9.1589,9.1499,9.0796,9.0882,9.0885,9.0794,9.0817,9.0985,9.1349,9.1597,9.173,9.1721,9.1289,9.1069,9.0918,8.9262,8.8197,8.7684,8.6362,8.5298,8.4715,8.4535,8.4609,8.4609,8.4572,8.4535,8.4609,8.4462,8.4609,8.4609,8.4609,8.4572,8.4572,8.4609,8.4307,8.394,8.3569,8.3206,8.2659,8.1929,8.0865,7.9657,7.9213,7.8715,7.7948,7.7488,7.7322,7.7322,7.7322,7.7322,7.7322,7.7322,7.7322,7.7322,7.7322,7.7322,7.7322,7.7322,7.7322,7.7322,7.7322,7.7322,7.7322,7.7322,7.7322,7.7322,7.7322,7.7322,7.7322,7.7322,7.7322,7.7322,7.7322,7.7322,7.7322,7.7322,7.7322,7.7322,7.7322,7.7322,7.7322,7.7322,7.7322,10.9777,10.9947,10.9681,10.9074,10.833,10.7758,10.7047,10.6308,10.5595,10.4798,10.3953,10.3214,10.2375,10.1504,10.0576,9.9727,9.9025,9.8158,9.7356,9.6874,9.6575,9.613,9.5249,9.396,9.2868,9.2102,9.2042,9.1872,9.1652,9.1948,9.1853,9.1423,9.1676,9.1754,9.1327,9.1028,9.1009,9.1078,9.081,9.0875,9.1277,9.1419,9.162,9.1799,9.1734,9.1698,9.1551,9.0844,9.0106,8.929,8.7822,8.6546,8.5306,8.4903,8.5192,8.5302,8.4972,8.5155,8.5013,8.5408,8.5229,8.5196,8.5196,8.4751,8.5008,8.5045,8.4939,8.4682,8.4119,8.3642,8.3389,8.2733,8.1888,8.1118,8.0175,7.9366,7.8661,7.7897,7.7553,7.7358,7.7322,7.7322,7.7322,7.7322,7.7322,7.7322,7.7322,7.7322,7.7322,7.7322,7.7322,7.7322,7.7322,7.7322,7.7322,7.7322,7.7322,7.7322,7.7322,7.7322,7.7322,7.7322,7.7322,7.7322,7.7322,7.7322,7.7322,7.7322,7.7322,7.7322,7.7322,7.7322,7.7322,7.7322,7.7513,10.9185,10.974,10.9429,10.8954,10.8345,10.7832,10.7163,10.6418,10.6161,10.5495,10.4719,10.3953,10.3109,10.2265,10.0907,9.9837,9.9103,9.8305,9.7466,9.68,9.6727,9.624,9.5465,9.452,9.3565,9.2877,9.3008,9.2867,9.2031,9.2313,9.2064,9.1294,9.174,9.1584,9.0944,9.125,9.1459,9.1443,9.1124,9.1232,9.1715,9.159,9.161,9.179,9.1812,9.1812,9.1812,9.1583,9.0812,8.951,8.9065,8.8629,8.8009,8.7936,8.7826,8.7863,8.7973,8.8046,8.8009,8.7968,8.7794,8.7325,8.7101,8.699,8.6399,8.6362,8.6077,8.5641,8.5241,8.487,8.4311,8.3536,8.2733,8.1897,8.0763,7.9616,7.8895,7.8423,7.8031,7.7469,7.7362,7.7358,7.7322,7.7322,7.7322,7.7322,7.7322,7.7322,7.7322,7.7322,7.7322,7.7322,7.7322,7.7322,7.7322,7.7322,7.7322,7.7322,7.7322,7.7322,7.7322,7.7322,7.7322,7.7322,7.7322,7.7322,7.7322,7.7322,7.7322,7.7322,7.7322,7.7322,7.7322,7.7322,7.7774,10.8548,10.9204,10.9453,10.9047,10.8279,10.8113,10.7446,10.6528,10.6381,10.5899,10.5081,10.4242,10.3439,10.259,10.1389,10.0393,9.9585,9.8778,9.797,9.7241,9.6869,9.6272,9.5538,9.4955,9.4331,9.354,9.3761,9.3314,9.2693,9.2811,9.2425,9.1769,9.1834,9.1634,9.1128,9.1155,9.1516,9.1606,9.1275,9.1325,9.1984,9.1612,9.1564,9.1739,9.1812,9.1812,9.1812,9.1812,9.1179,9.0175,8.9881,8.9767,8.9432,8.94,8.94,8.94,8.94,8.9363,8.94,8.94,8.9179,8.8785,8.8711,8.8491,8.8046,8.7753,8.7219,8.6926,8.6269,8.5608,8.5054,8.4091,8.3275,8.2659,8.1566,8.0473,7.9677,7.9331,7.8755,7.8139,7.7834,7.7656,7.7399,7.7322,7.7322,7.7322,7.7322,7.7322,7.7322,7.7322,7.7322,7.7322,7.7322,7.7322,7.7322,7.7322,7.7322,7.7322,7.7469,7.7432,7.7407,7.7403,7.7322,7.7322,7.7322,7.7322,7.7322,7.7322,7.7322,7.7322,7.7322,7.7322,7.7358,7.7613,7.8062,10.7937,10.8584,10.9481,10.9173,10.8184,10.8451,10.7703,10.6565,10.6386,10.5988,10.5186,10.4279,10.3488,10.2738,10.179,10.0997,10.0204,9.9355,9.8484,9.7645,9.6979,9.6313,9.5836,9.569,9.5039,9.4254,9.4045,9.3679,9.3226,9.323,9.2817,9.2047,9.1841,9.1733,9.1319,9.1077,9.1261,9.1806,9.1414,9.1435,9.1947,9.1686,9.1577,9.1689,9.1799,9.1808,9.1812,9.1771,9.1436,9.0771,9.0734,9.04,8.9808,8.9693,8.9734,8.9808,8.9881,8.984,8.973,8.9877,8.9657,8.9583,8.9514,8.9473,8.9179,8.8638,8.8202,8.7912,8.6857,8.6196,8.5572,8.4462,8.383,8.3463,8.2774,8.2003,8.131,8.0462,7.9612,7.885,7.8682,7.8189,7.7729,7.7355,7.7322,7.7322,7.7322,7.7322,7.7322,7.7322,7.7322,7.7322,7.7322,7.7322,7.7322,7.7322,7.7322,7.7322,7.7619,7.7737,7.765,7.7573,7.7403,7.7322,7.7322,7.7322,7.7322,7.7322,7.7358,7.7322,7.7322,7.7395,7.7513,7.7982,7.8454,10.7751,10.8512,10.889,10.8658,10.8027,10.7865,10.7299,10.6418,10.6376,10.6107,10.5524,10.4315,10.3583,10.3274,10.1904,10.0892,10.0289,9.946,9.8369,9.7016,9.6837,9.6649,9.6424,9.6377,9.5827,9.5128,9.5173,9.4576,9.3659,9.3195,9.2724,9.1797,9.1311,9.1048,9.0953,9.0899,9.1318,9.2047,9.1894,9.186,9.2133,9.2068,9.1843,9.1756,9.1739,9.1808,9.1812,9.1812,9.1698,9.1588,9.1473,9.1294,9.1138,9.1138,9.1101,9.1106,9.1179,9.1216,9.1248,9.1101,9.0991,9.0432,9.0326,9.0065,8.9436,8.9326,8.8854,8.8385,8.7839,8.7073,8.6012,8.5535,8.4943,8.4348,8.365,8.3047,8.268,8.159,8.0462,7.9689,7.9044,7.8548,7.8349,7.7762,7.7579,7.7395,7.7362,7.7322,7.7358,7.7395,7.7322,7.7322,7.7322,7.7322,7.7358,7.7517,7.776,7.7907,7.8164,7.8281,7.8195,7.8036,7.794,7.7627,7.7322,7.7399,7.7822,7.7582,7.7729,7.7505,7.7505,7.7839,7.8234,7.8564,7.9021,10.7347,10.8254,10.8515,10.8354,10.7962,10.7562,10.696,10.6274,10.6093,10.5949,10.5485,10.4117,10.3429,10.3266,10.179,10.0881,10.0525,9.9577,9.8442,9.7424,9.6947,9.6727,9.6693,9.6574,9.6177,9.5592,9.5497,9.4852,9.4019,9.3311,9.2654,9.1613,9.0916,9.0574,9.0461,9.0548,9.1111,9.1829,9.205,9.2238,9.2647,9.2677,9.2539,9.2177,9.1973,9.1812,9.1812,9.1812,9.1812,9.1812,9.1812,9.1812,9.1812,9.1812,9.1812,9.1812,9.1812,9.1812,9.1776,9.1776,9.1583,9.1216,9.1175,9.095,9.051,9.0212,8.9808,8.9262,8.8605,8.7651,8.6518,8.5898,8.5567,8.52,8.4421,8.3839,8.3313,8.228,8.1253,8.0532,8.0055,7.9593,7.9128,7.8541,7.8504,7.8614,7.8089,7.8048,7.7795,7.7758,7.7395,7.7322,7.7322,7.7322,7.7428,7.7749,7.8317,7.8655,7.9022,7.9125,7.9115,7.8872,7.8624,7.8379,7.8222,7.8518,7.8783,7.8462,7.8345,7.8618,7.8769,7.8842,7.9053,7.956,7.9989,10.6958,10.7938,10.8096,10.8046,10.7784,10.7162,10.6463,10.5929,10.5594,10.5444,10.5131,10.3733,10.3008,10.2715,10.1404,10.0881,10.0593,9.9738,9.8557,9.7796,9.7016,9.6725,9.6579,9.6379,9.607,9.5838,9.5394,9.4783,9.4,9.3292,9.2259,9.1395,9.0606,9.0152,9.0031,9.0234,9.0753,9.1477,9.1972,9.2385,9.3091,9.3267,9.3328,9.3137,9.2524,9.2175,9.2102,9.1959,9.1812,9.1812,9.1812,9.1812,9.1812,9.1812,9.1812,9.1812,9.1812,9.1812,9.1812,9.1812,9.1776,9.1812,9.1771,9.1771,9.1551,9.1101,9.0698,8.9996,8.9193,8.7835,8.7055,8.6513,8.6114,8.582,8.5261,8.4515,8.3831,8.2957,8.208,8.1342,8.0788,8.0322,8.0028,7.9617,7.9727,7.9735,7.9169,7.8752,7.8535,7.834,7.8106,7.8062,7.8212,7.8295,7.8361,7.8402,7.8933,7.9312,7.9806,7.9956,8.004,8.0161,7.9987,7.9561,7.951,7.9617,7.9584,7.9317,7.9346,7.9773,7.9771,7.9515,7.9917,8.052,8.0998,10.6841,10.7626,10.7296,10.7232,10.7226,10.6168,10.5537,10.5399,10.5077,10.4882,10.4454,10.3086,10.2423,10.2113,10.0931,10.0246,10.0145,9.9473,9.8685,9.7933,9.7116,9.6623,9.6424,9.6097,9.5654,9.5194,9.4819,9.424,9.335,9.2382,9.1587,9.068,9.0017,8.9648,8.9723,8.9935,9.0434,9.1189,9.184,9.2453,9.2956,9.3563,9.4013,9.3967,9.329,9.2937,9.268,9.2212,9.1812,9.1812,9.1812,9.1812,9.1812,9.1812,9.1812,9.1812,9.1812,9.1812,9.1812,9.1812,9.1812,9.1812,9.1812,9.1812,9.1771,9.162,9.1179,9.0372,8.9229,8.7908,8.7092,8.6803,8.6803,8.6569,8.6095,8.5498,8.5083,8.4167,8.3022,8.2304,8.1648,8.1052,8.0775,8.0534,8.0445,8.0327,7.9947,7.9652,7.9522,7.939,7.9284,7.9338,7.9454,7.9484,7.9518,7.9515,7.9718,8.0012,8.0415,8.0751,8.1004,8.1514,8.146,8.0747,8.0257,8.011,8.0047,8.0052,8.0117,8.038,8.0225,8.0106,8.0823,8.1545,8.1998,10.6324,10.6716,10.6517,10.6455,10.6269,10.5178,10.4678,10.462,10.424,10.3796,10.3101,10.2144,10.1472,10.1071,10.0259,9.9966,10.0079,9.9342,9.8801,9.8298,9.7336,9.6579,9.6335,9.5925,9.5378,9.4786,9.4207,9.3613,9.2929,9.1935,9.1068,9.0428,8.9792,8.9434,8.9372,8.9613,9.0118,9.0811,9.1572,9.2354,9.2973,9.385,9.4382,9.4489,9.4142,9.3781,9.3565,9.2937,9.2501,9.2395,9.206,9.1845,9.1812,9.1812,9.1812,9.1812,9.1812,9.1812,9.1812,9.1812,9.1812,9.1812,9.1812,9.1812,9.1812,9.1698,9.1436,9.0551,8.9665,8.8491,8.7725,8.7243,8.7019,8.6936,8.6604,8.6231,8.5782,8.5048,8.4266,8.3361,8.2492,8.1913,8.1656,8.1375,8.113,8.0894,8.0666,8.058,8.0534,8.0284,8.0139,8.0087,8.0142,8.0261,8.0343,8.0436,8.0673,8.0966,8.113,8.1501,8.1717,8.2105,8.1982,8.1492,8.1093,8.0784,8.1073,8.1273,8.1135,8.0988,8.1171,8.1419,8.197,8.2492,8.2945,10.546,10.5618,10.5555,10.548,10.5198,10.4213,10.3774,10.3676,10.3215,10.2566,10.1808,10.1111,10.0506,10.0089,9.9852,9.9899,10.0411,9.9232,9.8827,9.8398,9.731,9.6497,9.6182,9.5684,9.5018,9.4173,9.3374,9.2838,9.2358,9.1485,9.0786,9.0159,8.9628,8.9323,8.9198,8.9407,8.984,9.0461,9.1189,9.2178,9.3359,9.4296,9.4942,9.5321,9.4856,9.4524,9.4483,9.3749,9.323,9.29,9.2459,9.2033,9.1849,9.1812,9.1812,9.1812,9.1812,9.1812,9.1812,9.1812,9.1812,9.1812,9.1812,9.1812,9.1812,9.1739,9.1478,9.0661,8.9808,8.9,8.8128,8.7463,8.7092,8.7019,8.6936,8.6777,8.6274,8.5741,8.5326,8.4417,8.3361,8.2969,8.2872,8.2818,8.2679,8.2419,8.2231,8.1844,8.1676,8.1016,8.0759,8.0629,8.0649,8.0894,8.1045,8.1236,8.1595,8.2141,8.2223,8.2406,8.2451,8.2537,8.2292,8.2105,8.188,8.1693,8.2076,8.2296,8.2023,8.1978,8.2288,8.2663,8.3141,8.3495,8.3858,10.4072,10.4222,10.4061,10.4076,10.4082,10.3133,10.2685,10.2614,10.2103,10.1421,10.0574,10.0154,9.9694,9.9529,9.9836,9.9755,9.9456,9.9051,9.8519,9.8073,9.7002,9.6246,9.5751,9.505,9.4355,9.3543,9.2651,9.2035,9.1682,9.0973,9.0226,8.9689,8.94,8.9128,8.9135,8.9309,8.9833,9.0414,9.1183,9.2484,9.4113,9.5049,9.5635,9.5894,9.5717,9.5354,9.5249,9.4593,9.3969,9.3304,9.3083,9.2537,9.1996,9.1812,9.1812,9.1812,9.1812,9.1812,9.1812,9.1812,9.1812,9.1812,9.1812,9.1812,9.1812,9.1776,9.1478,9.0698,8.9918,8.9179,8.8422,8.7541,8.7133,8.7019,8.6982,8.6978,8.6712,8.6336,8.5917,8.5684,8.473,8.4483,8.4369,8.4368,8.4309,8.4021,8.3687,8.3259,8.2872,8.2272,8.1937,8.1933,8.1913,8.2092,8.2186,8.2337,8.2582,8.3174,8.3231,8.3263,8.3263,8.3213,8.2871,8.2684,8.2586,8.2512,8.2712,8.279,8.2729,8.2912,8.3197,8.3715,8.4278,8.4551,8.4718,10.1942,10.2805,10.2912,10.2865,10.265,10.203,10.1675,10.1366,10.0647,9.973,9.8888,9.8353,9.8268,9.8591,9.9161,9.9406,9.9167,9.8797,9.8329,9.7762,9.6861,9.6137,9.5638,9.4949,9.4098,9.3156,9.2323,9.1794,9.1302,9.0681,8.9929,8.9585,8.9267,8.9107,8.9161,8.9239,8.9607,9.0347,9.1402,9.2743,9.4047,9.4998,9.5689,9.6187,9.6145,9.6138,9.5946,9.5405,9.4891,9.4295,9.3776,9.2978,9.2501,9.2138,9.1812,9.1812,9.1812,9.1812,9.1812,9.1812,9.1812,9.1812,9.1812,9.1812,9.1812,9.1776,9.1698,9.1322,9.0551,8.9776,8.8945,8.8172,8.753,8.7224,8.7275,8.7183,8.7146,8.6844,8.6477,8.6345,8.6185,8.598,8.5606,8.5097,8.4932,8.4656,8.4392,8.4074,8.3929,8.377,8.3569,8.3547,8.3545,8.3603,8.3639,8.3688,8.3664,8.4056,8.4071,8.4091,8.4072,8.3941,8.3694,8.3687,8.3737,8.3643,8.3474,8.3318,8.33,8.3652,8.4094,8.4588,8.5082,8.527,8.5514,10.0051,10.1202,10.1517,10.1499,10.1205,10.0712,10.0335,10.0047,9.9009,9.8021,9.7248,9.6892,9.7147,9.7846,9.8599,9.897,9.8823,9.8542,9.801,9.7385,9.6686,9.592,9.5236,9.4595,9.3783,9.3056,9.2193,9.1722,9.1418,9.0926,9.0439,8.9943,8.9692,8.9465,8.9357,8.9305,8.9476,9.0361,9.1645,9.2834,9.3905,9.4842,9.5462,9.5978,9.6387,9.6727,9.6617,9.6181,9.5809,9.5171,9.4474,9.3707,9.3047,9.2537,9.2065,9.1918,9.1812,9.1812,9.1812,9.1812,9.1812,9.1812,9.1812,9.1812,9.1812,9.1812,9.1776,9.1693,9.095,9.0285,8.972,8.8991,8.8436,8.8021,8.7826,8.7673,8.7589,8.7565,8.7617,8.7651,8.7537,8.7219,8.671,8.5855,8.5458,8.5271,8.5059,8.4856,8.4777,8.4726,8.4578,8.4375,8.435,8.4316,8.4394,8.4528,8.4669,8.4882,8.49,8.4886,8.4902,8.4812,8.4635,8.4706,8.4773,8.4691,8.4464,8.4173,8.3952,8.4461,8.5004,8.5363,8.5738,8.5967,8.6375,9.8837,9.9227,9.9477,9.9787,9.9966,9.8944,9.8519,9.8428,9.7381,9.6497,9.5936,9.6117,9.667,9.7529,9.8235,9.8451,9.7846,9.8219,9.7601,9.6764,9.5971,9.5462,9.4806,9.4025,9.324,9.277,9.2181,9.1924,9.1818,9.1697,9.1374,9.1132,9.0494,9.0222,8.9973,8.9678,8.9887,9.0712,9.1797,9.2797,9.3791,9.4712,9.5472,9.5975,9.6419,9.6717,9.6685,9.6543,9.625,9.5685,9.5208,9.44,9.3487,9.2973,9.2537,9.1955,9.1812,9.1812,9.1812,9.1812,9.1812,9.1812,9.1812,9.1812,9.1812,9.1812,9.1812,9.1771,9.1175,9.073,9.0265,8.9854,8.9235,8.8861,8.862,8.8642,8.8621,8.8782,8.883,8.898,8.8752,8.829,8.8036,8.7258,8.6401,8.6177,8.5858,8.565,8.5258,8.5183,8.4993,8.4852,8.4765,8.4758,8.4725,8.4927,8.5337,8.562,8.572,8.5713,8.5705,8.5603,8.5568,8.5336,8.5305,8.5376,8.5465,8.5205,8.5123,8.5512,8.5878,8.6183,8.6647,8.7051,8.7427,9.7601,9.7688,9.734,9.7759,9.8634,9.8243,9.7678,9.6996,9.6167,9.546,9.496,9.542,9.5969,9.6681,9.749,9.7648,9.7099,9.745,9.7081,9.6505,9.592,9.5279,9.4601,9.4082,9.3525,9.2825,9.2438,9.2406,9.2485,9.2318,9.2547,9.2247,9.1481,9.1,9.0664,9.0359,9.0557,9.1022,9.1709,9.2444,9.3426,9.4372,9.5183,9.5797,9.6281,9.6555,9.6657,9.6722,9.6502,9.6203,9.5768,9.4887,9.3969,9.3492,9.2758,9.1991,9.1881,9.1812,9.1812,9.1812,9.1812,9.1812,9.1812,9.1812,9.1812,9.1812,9.1812,9.1661,9.151,9.1138,9.0564,9.0303,8.9973,8.9584,8.9483,8.9542,8.9628,8.9748,8.9716,8.972,8.942,8.8995,8.8833,8.867,8.7822,8.7083,8.6759,8.6403,8.611,8.5799,8.5672,8.5661,8.5631,8.5711,8.5756,8.5941,8.6122,8.6347,8.6535,8.6619,8.6645,8.6531,8.6442,8.6114,8.6069,8.6397,8.6507,8.628,8.6229,8.633,8.6563,8.688,8.7418,8.7996,8.8441,9.6571,9.6496,9.6014,9.6346,9.7191,9.7043,9.6508,9.5786,9.5043,9.4699,9.4535,9.4874,9.5341,9.5998,9.6634,9.7094,9.7015,9.7304,9.7179,9.6847,9.6353,9.5618,9.4992,9.4407,9.3787,9.3111,9.2865,9.2893,9.3057,9.2854,9.3033,9.3018,9.2605,9.2056,9.1471,9.1049,9.0972,9.1368,9.1653,9.2135,9.3185,9.412,9.4986,9.5664,9.6187,9.6487,9.6632,9.6727,9.669,9.6507,9.614,9.5515,9.4708,9.3896,9.3088,9.2427,9.195,9.1812,9.1812,9.1812,9.1812,9.1812,9.1812,9.1812,9.1812,9.1812,9.1812,9.1812,9.1771,9.1546,9.0918,9.0936,9.0859,9.0565,9.0497,9.0547,9.0496,9.055,9.0459,9.0377,9.0053,8.9751,8.9534,8.9431,8.8928,8.812,8.7634,8.7355,8.7159,8.688,8.6634,8.6615,8.6667,8.6777,8.6945,8.6807,8.6738,8.7198,8.7435,8.7643,8.7662,8.7567,8.7651,8.7703,8.7711,8.7714,8.7718,8.7701,8.7353,8.6986,8.7299,8.7672,8.823,8.8808,8.9244,9.5804,9.5811,9.5736,9.5766,9.5766,9.5097,9.4826,9.4721,9.4085,9.3986,9.4315,9.4344,9.476,9.5541,9.5898,9.6413,9.7066,9.7533,9.7714,9.7393,9.6903,9.6294,9.5479,9.4729,9.4104,9.3725,9.3437,9.3367,9.3509,9.3412,9.3526,9.3559,9.3255,9.2936,9.2327,9.1292,9.1041,9.1431,9.1594,9.2235,9.3055,9.399,9.4841,9.554,9.607,9.6414,9.6674,9.6727,9.6727,9.6653,9.6617,9.6061,9.5322,9.4666,9.3896,9.3157,9.2317,9.1918,9.1812,9.1812,9.1812,9.1812,9.1812,9.1812,9.1812,9.1812,9.1812,9.1812,9.1812,9.1812,9.1698,9.1693,9.1542,9.1459,9.1322,9.1281,9.1193,9.1202,9.1088,9.1014,9.0777,9.052,9.0304,9.0049,8.9757,8.92,8.8611,8.8296,8.8138,8.7976,8.7684,8.7654,8.7727,8.7716,8.7753,8.7353,8.7386,8.7882,8.8258,8.8425,8.8635,8.8682,8.8843,8.9165,8.8926,8.858,8.8877,8.9238,8.8676,8.8169,8.8224,8.8568,8.9103,8.9624,9.0101,9.506,9.5026,9.4526,9.433,9.4364,9.462,9.4409,9.3984,9.3717,9.3523,9.352,9.3723,9.3753,9.4069,9.4749,9.55,9.636,9.6879,9.7091,9.7666,9.7255,9.6389,9.5621,9.5021,9.4397,9.3883,9.3691,9.3643,9.3574,9.3593,9.3593,9.3593,9.3593,9.3451,9.3045,9.2317,9.1971,9.1925,9.1924,9.2131,9.2751,9.3636,9.4565,9.5415,9.5919,9.6335,9.6688,9.6722,9.6727,9.6727,9.6727,9.6355,9.5721,9.5107,9.4698,9.3928,9.3125,9.2359,9.2028,9.1812,9.1812,9.1849,9.1808,9.1808,9.1812,9.1812,9.1812,9.1812,9.1812,9.1812,9.1771,9.1771,9.1698,9.1698,9.1647,9.1647,9.162,9.1661,9.162,9.1546,9.1404,9.1317,9.1143,9.0904,9.0567,9.0314,8.9745,8.9246,8.8981,8.8938,8.8802,8.8787,8.8788,8.8714,8.856,8.8193,8.8275,8.8817,8.8992,8.9042,8.9279,8.966,8.9602,8.9626,8.9519,8.9406,8.9667,8.9851,8.9695,8.9454,8.953,8.9622,8.9982,9.0564,9.1179,9.3895,9.3834,9.3098,9.2808,9.2943,9.3598,9.3496,9.2868,9.2781,9.2677,9.2616,9.2857,9.297,9.2982,9.3551,9.4841,9.5914,9.6531,9.7316,9.7851,9.7501,9.6772,9.6031,9.5291,9.4715,9.4154,9.3897,9.3852,9.3608,9.3593,9.3593,9.3593,9.3593,9.3559,9.3281,9.2798,9.2243,9.2142,9.2025,9.2051,9.263,9.3403,9.4372,9.5158,9.5766,9.621,9.656,9.6727,9.6727,9.6727,9.6617,9.6465,9.602,9.5575,9.5286,9.4625,9.3969,9.3276,9.2909,9.2395,9.2432,9.2354,9.2024,9.1808,9.1812,9.1812,9.1812,9.1812,9.1812,9.1812,9.1812,9.1812,9.1776,9.1776,9.1698,9.1693,9.1602,9.1588,9.1597,9.1616,9.1689,9.1739,9.1812,9.1739,9.1468,9.1188,9.09,9.0373,8.9813,8.9685,8.9643,8.9591,8.9493,8.929,8.919,8.9069,8.9262,8.9748,8.9817,8.9808,9.0289,9.0674,9.0401,9.0191,9.0409,9.0477,9.0381,9.0376,9.0463,9.0642,9.0822,9.0904,9.1027,9.1317,9.1776,9.2365,9.2271,9.1609,9.1379,9.1474,9.2102,9.1967,9.1379,9.1346,9.151,9.1721,9.1624,9.189,9.2546,9.2968,9.4231,9.5886,9.663,9.7488,9.8105,9.7812,9.7103,9.6277,9.5457,9.4523,9.4216,9.3929,9.3493,9.354,9.3593,9.3593,9.3593,9.3593,9.3593,9.3342,9.2878,9.2373,9.2169,9.224,9.224,9.2581,9.338,9.4349,9.5137,9.5751,9.6215,9.6545,9.6727,9.6727,9.6727,9.669,9.669,9.6428,9.5942,9.5685,9.5281,9.4666,9.4336,9.3937,9.335,9.3015,9.2831,9.2336,9.2001,9.1812,9.1812,9.1812,9.1812,9.1812,9.1812,9.1812,9.1758,9.1712,9.1651,9.1551,9.1441,9.1312,9.1263,9.1255,9.133,9.1482,9.1584,9.1753,9.1812,9.1812,9.1657,9.1349,9.1184,9.0629,9.0235,9.0164,9.0096,8.996,8.9755,8.9727,8.9982,9.0184,9.0601,9.067,9.0734,9.1253,9.1473,9.1216,9.1125,9.1528,9.1551,9.1179,9.1221,9.1482,9.1652,9.1496,9.1505,9.1386,9.1491,9.1812,9.1643,9.1575,9.1372,9.1312,9.1278,9.0959,9.0993,9.1278,9.1312,9.1106,9.0656,9.1054,9.1299,9.139,9.2065,9.3546,9.4912,9.6141,9.6967,9.7403,9.7431,9.6681,9.5698,9.4612,9.3674,9.305,9.2773,9.2876,9.289,9.3173,9.3492,9.3593,9.3356,9.3424,9.318,9.2793,9.2404,9.2237,9.2343,9.2433,9.2651,9.3374,9.4349,9.5147,9.5745,9.6215,9.6574,9.6722,9.6727,9.6727,9.6727,9.6727,9.6653,9.6428,9.624,9.5538,9.5171,9.4919,9.4377,9.4084,9.3786,9.3396,9.2886,9.2377,9.206,9.1849,9.1849,9.1812,9.1812,9.1812,9.1812,9.1771,9.1647,9.1535,9.1416,9.1308,9.1165,9.1081,9.1116,9.1244,9.1361,9.1542,9.1716,9.1812,9.1812,9.1812,9.173,9.1602,9.1414,9.0941,9.0721,9.0698,9.0689,9.0589,9.0864,9.1143,9.1262,9.1413,9.1372,9.1331,9.1514,9.1698,9.1776,9.1812,9.1812,9.1812,9.1702,9.1812,9.1812,9.1812,9.1693,9.1771,9.1812,9.1812,9.1812,9.0865,9.0831,9.0527,9.0439,9.0364,8.9958,9.0053,9.0398,9.0432,9.0161,8.986,9.0384,9.0652,9.0863,9.1648,9.2865,9.4305,9.5095,9.5794,9.6158,9.6398,9.5361,9.4333,9.3464,9.2675,9.2046,9.1864,9.2003,9.2143,9.2353,9.2638,9.2605,9.2672,9.2706,9.2462,9.2092,9.1878,9.1944,9.2157,9.2411,9.2826,9.3374,9.4349,9.5179,9.5745,9.6215,9.6618,9.6717,9.6727,9.6727,9.6727,9.6727,9.6727,9.6649,9.6612,9.6057,9.5978,9.58,9.5437,9.4992,9.4552,9.4093,9.3713,9.3116,9.2505,9.2102,9.1923,9.1812,9.1812,9.1812,9.1812,9.1781,9.1573,9.1404,9.1332,9.1227,9.1099,9.0965,9.1053,9.1182,9.133,9.1526,9.1656,9.1739,9.1812,9.1812,9.1812,9.173,9.1689,9.1546,9.14,9.1354,9.1464,9.1537,9.1812,9.1812,9.1702,9.1633,9.1666,9.1661,9.1812,9.1812,9.1812,9.1812,9.1812,9.1812,9.1812,9.1812,9.1812,9.1812,9.1812,9.1812,9.1812,9.1812,9.1812,9.0113,9.0046,8.939,8.9228,8.9127,8.9161,8.9194,8.9134,8.9262,8.9127,8.9266,8.9723,9.0181,9.0574,9.1379,9.2328,9.3349,9.4116,9.4528,9.4664,9.4575,9.3881,9.3047,9.215,9.1582,9.1472,9.143,9.1305,9.1372,9.1582,9.1718,9.1312,9.1481,9.1616,9.165,9.1372,9.1246,9.1445,9.1675,9.1965,9.2587,9.338,9.4344,9.519,9.5751,9.62,9.6565,9.6727,9.6727,9.6727,9.6727,9.6727,9.6727,9.6727,9.6653,9.6617,9.6502,9.6465,9.6208,9.5836,9.5538,9.5153,9.4792,9.4011,9.329,9.2533,9.2276,9.1845,9.1812,9.1812,9.1812,9.1781,9.1634,9.1391,9.1247,9.106,9.0865,9.0834,9.0985,9.1147,9.134,9.152,9.1684,9.1812,9.1812,9.1812,9.1812,9.1812,9.1812,9.1812,9.1812,9.1812,9.1812,9.1812,9.1812,9.1812,9.1812,9.1776,9.1812,9.1812,9.1812,9.1812,9.1812,9.1812,9.1812,9.1812,9.1812,9.1812,9.1812,9.1812,9.1812,9.1812,9.1812,9.1812,9.1812,8.9357,8.9357,8.9187,8.9134,8.9093,8.9134,8.9134,8.9134,8.9134,8.9134,8.9163,8.9503,8.9935,9.0434,9.0917,9.1694,9.241,9.3119,9.3477,9.3561,9.3395,9.2655,9.1931,9.1211,9.0596,9.0114,9.0156,9.0696,9.0973,9.1143,9.1244,9.1244,9.1176,9.1075,9.1041,9.0737,9.0594,9.094,9.1139,9.1672,9.2453,9.3374,9.4333,9.5121,9.5745,9.621,9.6541,9.6727,9.6727,9.6727,9.6727,9.6727,9.6727,9.6727,9.6727,9.6727,9.6727,9.6727,9.6653,9.6424,9.613,9.5721,9.5227,9.4713,9.4079,9.3258,9.2597,9.2134,9.1812,9.1812,9.1803,9.1726,9.1648,9.1424,9.1214,9.0953,9.0687,9.0816,9.0936,9.1118,9.1338,9.1515,9.173,9.1812,9.1812,9.1812,9.1812,9.1812,9.1812,9.1812,9.1812,9.1812,9.1812,9.1812,9.1812,9.1812,9.1812,9.1812,9.1812,9.1812,9.1812,9.1812,9.1812,9.1812,9.1812,9.1812,9.1812,9.1812,9.1812,9.1812,9.1812,9.1812,9.1812,9.1812,9.1812,8.8436,8.8199,8.847,8.8612,8.8673,8.8958,8.9134,8.9134,8.9134,8.9134,8.9135,8.9393,8.9758,9.0247,9.0614,9.1022,9.1704,9.2256,9.2236,9.2229,9.2084,9.1407,9.0776,9.0267,8.9812,8.9344,8.9492,8.9958,9.0398,9.0297,9.027,9.0405,9.0372,9.0372,9.0338,8.9967,9.0044,9.0571,9.0686,9.1385,9.2382,9.3374,9.4349,9.5137,9.5745,9.621,9.6531,9.6727,9.6727,9.6727,9.6727,9.6727,9.6727,9.6727,9.6727,9.6727,9.6727,9.6727,9.6727,9.6653,9.6502,9.6135,9.602,9.5626,9.5029,9.4249,9.3551,9.3015,9.1991,9.1808,9.1812,9.1785,9.1675,9.1471,9.1366,9.1222,9.1055,9.1001,9.1163,9.1311,9.1471,9.1551,9.173,9.1812,9.1812,9.1812,9.1812,9.1812,9.1812,9.1812,9.1812,9.1812,9.1812,9.1812,9.1812,9.1812,9.1812,9.1812,9.1812,9.1812,9.1812,9.1812,9.1812,9.1812,9.1812,9.1812,9.1812,9.1812,9.1812,9.1812,9.1812,9.1812,9.1812,9.1812,9.1812,8.7509,8.7028,8.7583,8.7929,8.8098,8.868,8.9025,8.9093,8.9134,8.9134,8.9114,8.9323,8.9648,9.0031,9.0374,9.0781,9.1085,9.1312,9.1106,9.0829,9.0558,9.0304,8.9935,8.9342,8.919,8.9175,8.9228,8.9262,8.9397,8.9397,8.9397,8.9161,8.9134,8.9127,8.9134,8.919,8.9515,9.012,9.0629,9.1398,9.2382,9.3374,9.4349,9.5121,9.5751,9.621,9.6545,9.6727,9.6727,9.6727,9.6727,9.6727,9.6727,9.6727,9.6727,9.6727,9.6727,9.6727,9.6727,9.669,9.669,9.6653,9.6727,9.6392,9.5763,9.5171,9.4478,9.3818,9.2758,9.2212,9.2212,9.2005,9.189,9.1687,9.1616,9.1449,9.1282,9.1198,9.1345,9.1501,9.1588,9.1651,9.1734,9.1817,9.1817,9.1817,9.1812,9.1812,9.1812,9.1812,9.1812,9.1812,9.1812,9.1812,9.1812,9.1812,9.1812,9.1812,9.1812,9.1812,9.1812,9.1812,9.1812,9.1812,9.1812,9.1812,9.1812,9.1812,9.1812,9.1812,9.1812,9.1812,9.1812,9.1812,9.1812,8.7028,8.6934,8.7062,8.7441,8.7955,8.8158,8.8538,8.9059,8.9059,8.9134,8.9073,8.9142,8.9357,8.9613,8.9655,9.0004,9.0422,9.0502,9.0362,9.0112,8.9908,8.9662,8.9441,8.9205,8.9121,8.9134,8.9134,8.9134,8.9134,8.9134,8.9134,8.9134,8.9134,8.9134,8.9134,8.9211,8.9399,8.9942,9.0528,9.1254,9.2327,9.3333,9.4314,9.5094,9.5751,9.6215,9.656,9.6712,9.6727,9.6727,9.6693,9.6637,9.6618,9.6608,9.6618,9.6637,9.6642,9.6671,9.6666,9.6722,9.6727,9.6727,9.6727,9.669,9.6135,9.5758,9.5286,9.5102,9.4263,9.379,9.3575,9.3019,9.2748,9.2296,9.2096,9.1619,9.1317,9.1371,9.1477,9.1648,9.1767,9.1822,9.1904,9.1959,9.1982,9.1941,9.1854,9.1817,9.1812,9.1812,9.1812,9.1812,9.1812,9.1812,9.1812,9.1812,9.1812,9.1812,9.1812,9.1812,9.1812,9.1812,9.1812,9.1812,9.1812,9.1812,9.1812,9.1812,9.1812,9.1812,9.1812,9.1812,9.1812,9.1812,9.1812]},{"header":{"parameterUnit":"m.s-1","parameterCategory":1,"la1":31.0,"la2":29.5877,"lo1":-88.7671,"lo2":-86.6584,"dy":0.0162,"dx":0.0185,"nx":115,"ny":88,"refTime":"2023-10-07T00:00:00:Z","depth":0,"parameterNumber":3,"parameterNumberName":"V-component_of_WINDS"},"data":[0.0,0.0,0.0,0.0,0.0,0.0,0.0,0.0,0.0,0.0,0.0,0.0,0.0,0.0,0.0,0.0,0.0,0.0,0.0,0.0,0.0,0.0,0.0,0.0,0.0,0.0,0.0,0.0,0.0,0.0,0.0,0.0,0.0,0.0,0.0,0.0,0.0,0.0,0.0,0.0,0.0,0.0,0.0,0.0,0.0,0.0,0.0,0.0,0.0,0.0,0.0,0.0,0.0,0.0,0.0,0.0,0.0,0.0,0.0,0.0,0.0,0.0,0.0,0.0,0.0,0.0,0.0,0.0,0.0,0.0,0.0,0.0,0.0,0.0,0.0,0.0,0.0,0.0,0.0,0.0,0.0,0.0,0.0,0.0,0.0,0.0,0.0,0.0,0.0,0.0,0.0,0.0,0.0,0.0,0.0,0.0,0.0,0.0,0.0,0.0,0.0,0.0,0.0,0.0,0.0,0.0,0.0,0.0,0.0,0.0,0.0,0.0,0.0,0.0,0.0,0.0,0.0,0.0,0.0,0.0,0.0,0.0,0.0,0.0,0.0,0.0,0.0,0.0,0.0,0.0,0.0,0.0,0.0,0.0,0.0,0.0,0.0,0.0,0.0,0.0,0.0,0.0,0.0,0.0,0.0,0.0,0.0,0.0,0.0,0.0,0.0,0.0,0.0,0.0,0.0,0.0,0.0,0.0,0.0,0.0,0.0,0.0,0.0,0.0,0.0,0.0,0.0,0.0,0.0,0.0,0.0,0.0,0.0,0.0,0.0,0.0,0.0,0.0,0.0,0.0,0.0,0.0,0.0,0.0,0.0,0.0,0.0,0.0,0.0,0.0,0.0,0.0,0.0,0.0,0.0,0.0,0.0,0.0,0.0,0.0,0.0,0.0,0.0,0.0,0.0,0.0,0.0,0.0,0.0,0.0,0.0,0.0,0.0,0.0,0.0,0.0,0.0,0.0,0.0,0.0,0.0,0.0,0.0,0.0,0.0,0.0,0.0,0.0,0.0,0.0,0.0,0.0,0.0,0.0,0.0,0.0,0.0,0.0,0.0,0.0,0.0,0.0,0.0,0.0,0.0,0.0,0.0,0.0,0.0,0.0,0.0,0.0,0.0,0.0,0.0,0.0,0.0,0.0,0.0,0.0,0.0,0.0,0.0,0.0,0.0,0.0,0.0,0.0,0.0,0.0,0.0,0.0,0.0,0.0,0.0,0.0,0.0,0.0,0.0,0.0,0.0,0.0,0.0,0.0,0.0,0.0,0.0,0.0,0.0,0.0,0.0,0.0,0.0,0.0,0.0,0.0,0.0,0.0,0.0,0.0,0.0,0.0,0.0,0.0,0.0,0.0,0.0,0.0,0.0,0.0,0.0,0.0,0.0,0.0,0.0,0.0,0.0,0.0,0.0,0.0,0.0,0.0,0.0,0.0,0.0,0.0,0.0,0.0,0.0,0.0,0.0,0.0,0.0,0.0,0.0,0.0,0.0,0.0,0.0,0.0,0.0,0.0,0.0,0.0,0.0,0.0,0.0,0.0,0.0,0.0,0.0,0.0,0.0,0.0,0.0,0.0,0.0,0.0,0.0,0.0,0.0,0.0,0.0,0.0,0.0,0.0,0.0,0.0,0.0,0.0,0.0,0.0,0.0,0.0,0.0,0.0,0.0,0.0,0.0,0.0,0.0,0.0,0.0,0.0,0.0,0.0,0.0,0.0,0.0,0.0,0.0,0.0,0.0,0.0,0.0,0.0,0.0,0.0,0.0,0.0,0.0,0.0,0.0,0.0,0.0,0.0,0.0,0.0,0.0,0.0,0.0,0.0,0.0,0.0,0.0,0.0,0.0,0.0,0.0,0.0,0.0,0.0,0.0,0.0,0.0,0.0,0.0,0.0,0.0,0.0,0.0,0.0,0.0,0.0,0.0,0.0,0.0,0.0,0.0,0.0,0.0,0.0,0.0,0.0,0.0,0.0,0.0,0.0,0.0,0.0,0.0,0.0,0.0,0.0,0.0,0.0,0.0,0.0,0.0,0.0,0.0,0.0,0.0,0.0,0.0,0.0,0.0,0.0,0.0,0.0,0.0,0.0,0.0,0.0,0.0,0.0,0.0,0.0,0.0,0.0,0.0,0.0,0.0,0.0,0.0,0.0,0.0,0.0,0.0,0.0,0.0,0.0,0.0,0.0,0.0,0.0,0.0,0.0,0.0,0.0,0.0,0.0,0.0,0.0,0.0,0.0,0.0,0.0,0.0,0.0,0.0,0.0,0.0,0.0,0.0,0.0,0.0,0.0,0.0,0.0,0.0,0.0,0.0,0.0,0.0,0.0,0.0,0.0,0.0,0.0,0.0,0.0,0.0,0.0,0.0,0.0,0.0,0.0,0.0,0.0,0.0,0.0,0.0,0.0,0.0,0.0,0.0,0.0,0.0,0.0,0.0,0.0,0.0,0.0,0.0,0.0,0.0,0.0,0.0,0.0,0.0,0.0,0.0,0.0,0.0,0.0,0.0,0.0,0.0,0.0,0.0,0.0,0.0,0.0,0.0,0.0,0.0,0.0,0.0,0.0,0.0,0.0,0.0,0.0,0.0,0.0,0.0,0.0,0.0,0.0,0.0,0.0,0.0,0.0,0.0,0.0,0.0,0.0,0.0,0.0,0.0,0.0,0.0,0.0,0.0,0.0,0.0,0.0,0.0,0.0,0.0,0.0,0.0,0.0,0.0,0.0,0.0,0.0,0.0,0.0,0.0,0.0,0.0,0.0,0.0,0.0,0.0,0.0,0.0,0.0,0.0,0.0,0.0,0.0,0.0,0.0,0.0,0.0,0.0,0.0,0.0,0.0,0.0,0.0,0.0,0.0,0.0,0.0,0.0,0.0,0.0,0.0,0.0,0.0,0.0,0.0,0.0,0.0,0.0,0.0,0.0,0.0,0.0,0.0,0.0,0.0,0.0,0.0,0.0,0.0,0.0,0.0,0.0,0.0,0.0,0.0,0.0,0.0,0.0,0.0,0.0,0.0,0.0,0.0,0.0,0.0,0.0,0.0,0.0,0.0,0.0,0.0,0.0,0.0,0.0,0.0,0.0,0.0,0.0,0.0,0.0,0.0,0.0,0.0,0.0,0.0,0.0,0.0,0.0,0.0,0.0,0.0,0.0,0.0,0.0,0.0,0.0,0.0,0.0,0.0,0.0,0.0,0.0,0.0,0.0,0.0,0.0,0.0,0.0,0.0,0.0,0.0,0.0,0.0,0.0,0.0,0.0,0.0,0.0,0.0,0.0,0.0,0.0,0.0,0.0,0.0,0.0,0.0,0.0,0.0,0.0,0.0,0.0,0.0,0.0,0.0,0.0,0.0,0.0,0.0,0.0,0.0,0.0,0.0,0.0,0.0,0.0,0.0,0.0,0.0,0.0,0.0,0.0,0.0,0.0,0.0,0.0,0.0,0.0,0.0,0.0,0.0,0.0,0.0,0.0,0.0,0.0,0.0,0.0,0.0,0.0,0.0,0.0,0.0,0.0,0.0,0.0,0.0,0.0,0.0,0.0,0.0,0.0,0.0,0.0,0.0,0.0,0.0,0.0,0.0,0.0,0.0,0.0,0.0,0.0,0.0,0.0,0.0,0.0,0.0,0.0,0.0,0.0,0.0,0.0,0.0,0.0,0.0,0.0,0.0,0.0,0.0,0.0,0.0,0.0,0.0,0.0,0.0,0.0,0.0,0.0,0.0,0.0,0.0,0.0,0.0,0.0,0.0,0.0,0.0,0.0,0.0,0.0,0.0,0.0,0.0,0.0,0.0,0.0,0.0,0.0,0.0,0.0,0.0,0.0,0.0,0.0,0.0,0.0,0.0,0.0,0.0,0.0,0.0,0.0,0.0,0.0,0.0,0.0,0.0,0.0,0.0,0.0,0.0,0.0,0.0,0.0,0.0,0.0,0.0,0.0,0.0,0.0,0.0,0.0,0.0,0.0,0.0,0.0,0.0,0.0,0.0,0.0,0.0,0.0,0.0,0.0,0.0,0.0,0.0,0.0,0.0,0.0,0.0,0.0,0.0,0.0,0.0,0.0,0.0,0.0,0.0,0.0,0.0,0.0,0.0,0.0,0.0,0.0,0.0,0.0,0.0,0.0,0.0,0.0,0.0,0.0,0.0,0.0,0.0,0.0,0.0,0.0,0.0,0.0,0.0,0.0,0.0,0.0,0.0,0.0,0.0,0.0,0.0,0.0,0.0,0.0,0.0,0.0,0.0,0.0,0.0,0.0,0.0,0.0,0.0,0.4683,0.0,0.0,0.0,0.0,0.0,0.0,0.0,0.0,0.0,0.0,0.0,0.0,0.0,0.0,0.0,0.0,0.0,0.0,0.0,0.0,0.0,0.0,0.0,0.0,0.0,0.0,0.0,0.0,0.0,0.0,0.0,0.0,0.0,0.0,0.0,0.0,0.0,0.0,0.0,0.0,0.0,0.0,0.0,0.0,0.0,0.0,0.0,0.0,0.0,0.0,0.0,0.0,0.0,0.0,0.0,0.0,0.0,0.0,0.0,0.0,0.0,0.0,0.0,0.0,0.0,0.0,0.0,0.0,0.0,0.0,0.0,0.0,0.0,0.0,0.0,0.0,0.0,0.0,0.0,0.0,0.0,0.0,0.0,0.0,0.0,0.0,0.0,0.0,0.0,0.0,0.0,0.0,0.0,0.0,0.0,0.0,0.0,0.0,0.0,0.0,0.0,0.0,0.0,0.0,0.0,0.0,0.0,0.0,0.0,0.0,0.3738,0.4242,0.476,0.5151,0.5371,0.0,0.0,0.0,0.0,0.0,0.0,0.0,0.0,0.0,0.0,0.0,0.0,0.0,0.0,0.0,0.0,0.0,0.0,0.0,0.0,0.0,0.0,0.0,0.0,0.0,0.0,0.0,0.0,0.0,0.0,0.0,0.0,0.0,0.0,0.0,0.0,0.0,0.0,0.0,0.0,0.0,0.0,0.0,0.0,0.0,0.0,0.0,0.0,0.0,0.0,0.0,0.0,0.0,0.0,0.0,0.0,0.0,0.0,0.0,0.0,0.0,0.0,0.0,0.0,0.0,0.0,0.0,0.0,0.0,0.0,0.0,0.0,0.0,0.0,0.0,0.0,0.0,0.0,0.0,0.0,0.0,0.0,0.0,0.0,0.0,0.0,0.0,0.0,0.0,0.0,0.0,0.0,0.0,0.0,0.0,0.0,0.0,0.0,0.0,0.0,0.0,0.0,0.0,0.0,0.0,0.0,0.0,0.0,0.0,0.0,0.0,0.0,0.5534,0.5756,0.5839,0.0,0.0,0.0,0.0,0.0,0.0,0.0,0.0,0.0,0.0,0.0,0.0,0.0,0.0,0.0,0.0,0.0,0.0,0.0,0.0,0.0,0.0,0.0,0.0,0.0,0.0,0.0,0.0,0.0,0.0,0.0,0.0,0.0,0.0,0.0,0.0,0.0,0.0,0.0,0.0,0.0,0.0,0.0,0.0,0.0,0.0,0.0,0.0,0.0,0.0,0.0,0.0,0.0,0.0,0.0,0.0,0.0,0.0,0.0,0.0,0.0,0.0,0.0,0.0,0.0,0.0,0.0,0.0,0.0,0.0,0.0,0.0,0.0,0.0,0.0,0.0,0.0,0.0,0.0,0.0,0.0,0.0,0.0,0.0,0.0,0.0,0.0,0.0,0.0,0.0,0.0,0.0,0.0,0.0,0.0,0.0,0.0,0.0,0.0,0.0,0.0,0.0,0.0,0.0,0.0,0.0,0.0,0.0,0.0,0.0,0.5373,0.5971,0.642,0.0,0.603,0.0,0.0,0.0,0.0,0.0,0.0,0.0,0.0,0.0,0.0,0.0,0.0,0.0,0.0,0.0,0.0,0.0,0.0,0.0,0.0,0.0,0.0,0.0,0.0,0.0,0.0,0.0,0.0,0.0,0.0,0.0,0.0,0.0,0.0,0.0,0.0,0.0,0.0,0.0,0.0,0.0,0.0,0.0,0.0,0.0,0.0,0.0,0.0,0.0,0.0,0.0,0.0,0.0,0.0,0.0,0.0,0.0,0.0,0.0,0.0,0.0,0.0,0.0,0.0,0.0,0.0,0.0,0.0,0.0,0.0,0.0,0.0,0.0,0.0,0.0,0.0,0.0,0.0,0.0,0.0,0.0,0.0,0.0,0.0,0.0,0.0,0.0,0.0,0.0,0.0,0.0,0.0,0.0,0.0,0.0,0.0,0.0,0.0,0.0,0.0,0.0,0.0,0.0,0.0,0.0,0.0,0.0,0.0,0.0,0.0,0.597,0.6738,0.701,0.6933,0.0,0.0,0.0,0.0,0.0,0.0,0.0,0.0,0.0,0.0,0.0,0.0,0.0,0.0,0.0,0.0,0.0,0.0,0.0,0.0,0.0,0.0,0.0,0.0,0.0,0.0,0.0,0.0,0.0,0.0,0.0,0.0,0.0,0.0,0.0,0.0,0.0,0.0,0.0,0.0,0.0,0.0,0.0,0.0,0.0,0.0,0.0,0.0,0.0,0.0,0.0,0.0,0.0,0.0,0.0,0.0,0.0,0.0,0.0,0.0,0.0,0.0,0.0,0.0,0.0,0.0,0.0,0.0,0.0,0.0,0.0,0.0,0.0,0.0,0.0,0.0,0.0,0.0,0.0,0.0,0.0,0.0,0.0,0.0,0.0,0.0,0.0,0.0,0.0,0.0,0.0,0.0,0.0,0.0,0.0,0.0,0.0,0.0,0.0,0.0,0.0,0.0,0.0,0.0,0.0,0.0,0.0,0.0,0.0,0.0,0.5821,0.6508,0.7324,0.7422,0.7257,0.6882,0.0,0.0,0.0,0.0,0.0,0.0,0.0,0.0,0.0,0.0,0.0,0.0,0.0,0.0,0.0,0.0,0.0,0.0,0.0,0.0,0.0,0.0,0.0,0.0,0.0,0.0,0.0,0.0,0.0,0.0,0.0,0.0,0.0,0.0,0.0,0.0,0.0,0.0,0.0,0.0,0.0,0.0,0.0,0.0,0.0,0.0,0.0,0.0,0.0,0.0,0.0,0.0,0.0,0.0,0.0,0.0,0.0,0.0,0.0,0.0,0.0,0.0,0.0,0.0,0.0,0.0,0.0,0.0,0.0,0.0,0.0,0.0,0.0,0.0,0.0,0.0,0.0,0.0,0.0,0.0,0.0,0.0,0.0,0.0,0.0,0.0,0.0,0.0,0.0,0.0,0.0,0.0,0.0,0.0,0.0,0.0,0.0,0.0,0.0,0.0,0.0,0.0,0.0,0.0,0.0,0.0,0.0,0.0,0.5463,0.6277,0.7021,0.7734,0.7659,0.7406,0.0,0.0,0.0,0.0,0.0,0.0,0.0,0.0,0.0,0.0,0.0,0.0,0.0,0.0,0.0,0.0,0.0,0.0,0.0,0.0,0.0,0.0,0.0,0.0,0.0,0.0,0.0,0.0,0.0,0.0,0.0,0.0,0.0,0.0,0.0,0.0,0.0,0.0,0.0,0.0,0.0,0.0,0.0,0.0,0.0,0.0,0.0,0.0,0.0,0.0,0.0,0.0,0.0,0.0,0.0,0.0,0.0,0.0,0.0,0.0,0.0,0.0,0.0,0.0,0.0,0.0,0.0,0.0,0.0,0.0,0.0,0.0,0.0,0.0,0.0,0.0,0.0,0.0,0.0,0.0,0.0,0.0,0.0,0.0,0.0,0.0,0.0,0.0,0.0,0.0,0.0,0.0,0.0,0.0,0.0,0.0,0.0,0.0,0.0,0.0,0.0,0.0,0.0,0.0,0.0,0.0,0.0,0.0,0.0,0.6228,0.7088,0.7609,0.7796,0.7766,0.7589,0.0,0.0,0.0,0.0,0.0,0.0,0.0,0.0,0.0,0.0,0.0,0.0,0.0,0.0,0.0,0.0,0.0,0.0,0.0,0.0,0.0,0.0,0.0,0.0,0.0,0.0,0.0,0.0,0.0,0.0,0.0,0.0,0.0,0.0,0.0,0.0,0.0,0.0,0.0,0.0,0.0,0.0,0.0,0.0,0.0,0.0,0.0,0.0,0.0,0.0,0.0,0.0,0.0,0.0,0.0,0.0,0.0,0.0,0.0,0.0,0.0,0.0,0.0,0.0,0.0,0.0,0.0,0.0,0.0,0.0,0.0,0.0,0.0,0.0,0.0,0.0,0.0,0.0,0.0,0.0,0.0,0.0,0.0,0.0,0.0,0.0,0.0,0.0,0.0,0.0,0.0,0.0,0.0,0.0,0.0,0.0,0.0,0.0,0.0,0.0,0.0,0.0,0.0,0.0,0.0,0.0,0.0,0.0,0.0,0.7032,0.0,0.81,0.797,0.7891,0.7734,0.0,0.0,0.0,0.0,0.0,0.0,0.0,0.0,0.0,0.0,0.0,0.0,0.0,0.0,0.0,0.0,0.0,0.0,0.0,0.0,0.0,0.0,0.0,0.0,0.0,0.0,0.0,0.0,0.0,0.0,0.0,0.0,0.0,0.0,0.0,0.0,0.0,0.0,0.0,0.0,0.0,0.0,0.0,0.0,0.0,0.0,0.0,0.0,0.0,0.0,0.0,0.0,0.0,0.0,0.0,0.0,0.0,0.0,0.0,0.0,0.0,0.0,0.0,0.0,0.0,0.0,0.0,0.0,0.0,0.0,0.0,0.0,0.0,0.0,0.0,0.0,0.0,0.0,0.0,0.0,0.0,0.0,0.0,0.0,0.0,0.0,0.0,0.0,0.0,0.0,0.0,0.0,0.0,0.0,0.0,0.0,0.0,0.0,0.0,0.0,0.0,0.0,0.0,0.0,0.0,0.0,0.0,0.0,0.6255,0.7827,0.8268,0.8431,0.8307,0.8107,0.7879,0.0,0.0,0.0,0.0,0.0,0.0,0.0,0.0,0.0,0.0,0.0,0.0,0.0,0.0,0.0,0.0,0.0,0.0,0.0,0.0,0.0,0.0,0.0,0.0,0.0,0.0,0.0,0.0,0.0,0.0,0.0,0.0,0.0,0.0,0.0,0.0,0.0,0.0,0.0,0.0,0.0,0.0,0.0,0.0,0.0,0.0,0.0,0.0,0.0,0.0,0.0,0.0,0.0,0.0,0.0,0.0,0.0,0.0,0.0,0.0,0.0,0.0,0.0,0.0,0.0,0.0,0.0,0.0,0.0,0.0,0.0,0.0,0.0,0.0,0.0,0.0,0.0,0.0,0.0,0.0,0.0,0.0,0.0,0.0,0.0,0.0,0.0,0.0,0.0,0.0,0.0,0.0,0.0,0.0,0.0,0.0,0.0,0.0,0.0,0.0,0.0,0.0,0.0,0.0,0.0,0.0,0.0,0.0,0.0,0.8149,0.8475,0.8608,0.8567,0.8412,0.8195,0.0,0.0,0.0,0.0,0.0,0.0,0.0,0.0,0.0,0.0,0.0,0.0,0.0,0.0,0.0,0.0,0.0,0.0,0.0,0.0,0.0,0.0,0.0,0.0,0.0,0.0,0.0,0.0,0.0,0.0,0.0,0.0,0.0,0.0,0.0,0.0,0.0,0.0,0.0,0.0,0.0,0.0,0.0,0.0,0.0,0.0,0.0,0.0,0.0,0.0,0.0,0.0,0.0,0.0,0.0,0.0,0.0,0.0,0.0,0.0,0.0,0.0,0.0,0.0,0.0,0.0,0.0,0.0,0.0,0.0,0.0,0.0,0.0,0.0,0.0,0.0,0.0,0.0,0.0,0.0,0.0,0.0,0.0,0.0,0.0,0.0,0.0,0.0,0.0,0.0,0.0,0.0,0.0,0.0,0.0,0.0,0.0,0.0,0.0,0.0,0.0,0.0,0.0,0.0,0.0,0.0,0.0,0.0,0.0,0.9027,0.9031,0.9015,0.8974,0.8825,0.8553,0.8127,0.0,0.0,0.0,0.0,0.0,0.0,0.0,0.0,0.0,0.0,0.0,0.0,0.0,0.0,0.0,0.0,0.0,0.0,0.0,0.0,0.0,0.0,0.0,0.0,0.0,0.0,0.0,0.0,0.0,0.0,0.0,0.0,0.0,0.0,0.0,0.0,0.0,0.0,0.0,0.0,0.0,0.0,0.0,0.0,0.0,0.0,0.0,0.0,0.0,0.0,0.0,0.0,0.0,0.0,0.0,0.0,0.0,0.0,0.0,0.0,0.0,0.0,0.0,0.0,0.0,0.0,0.0,0.0,0.0,0.0,0.0,0.0,0.0,0.0,0.0,0.0,0.0,0.0,0.0,0.0,0.0,0.0,0.0,0.0,0.0,0.0,0.0,0.0,0.0,0.0,0.0,0.0,0.0,0.0,0.0,0.0,0.0,0.0,0.0,0.0,0.0,0.0,0.0,0.0,0.0,0.0,0.0,0.0,1.0333,0.9923,0.9631,0.9443,0.9316,0.8954,0.0,0.0,0.0,0.0,0.0,0.0,0.0,0.0,0.0,0.0,0.0,0.0,0.0,0.0,0.0,0.0,0.0,0.0,0.0,0.0,0.0,0.0,0.0,0.0,0.0,0.0,0.0,0.0,0.0,0.0,0.0,0.0,0.0,0.0,0.0,0.0,0.0,0.0,0.0,0.0,0.0,0.0,0.0,0.0,0.0,0.0,0.0,0.0,0.0,0.0,0.0,0.0,0.0,0.0,0.0,0.0,0.0,0.0,0.0,0.0,0.0,0.0,0.0,0.0,0.0,0.0,0.0,0.0,0.0,0.0,0.0,0.0,0.0,0.0,0.0,0.0,0.0,0.0,0.0,0.0,0.0,0.0,0.0,0.0,0.0,0.0,0.0,0.0,0.0,0.0,0.0,0.0,0.0,0.0,0.0,0.0,0.0,0.0,0.0,0.0,0.0,0.0,0.0,0.0,0.0,0.0,0.0,0.0,0.0,1.0933,1.1028,1.075,1.0081,0.9803,0.9353,0.0,0.0,0.0,0.0,0.0,0.0,0.0,0.0,0.0,0.0,0.0,0.0,0.0,0.0,0.0,0.0,0.0,0.0,0.0,0.0,0.0,0.0,0.0,0.0,0.0,0.0,0.0,0.0,0.0,0.0,0.0,0.0,0.0,0.0,0.0,0.0,0.0,0.0,0.0,0.0,0.0,0.0,0.0,0.0,0.0,0.0,0.0,0.0,0.0,0.0,0.0,0.0,0.0,0.0,0.0,0.0,0.0,0.0,0.0,0.0,0.0,0.0,0.0,0.0,0.0,0.0,0.0,0.0,0.0,0.0,0.0,0.0,0.0,0.0,0.0,0.0,0.0,0.0,0.0,0.0,0.0,0.0,0.0,0.0,0.0,0.0,0.0,0.0,0.0,0.0,0.0,0.0,0.0,0.0,0.0,0.0,0.0,0.0,0.0,0.0,0.0,0.0,0.0,0.0,0.0,0.0,0.0,0.0,1.0975,1.1567,1.1898,1.1773,1.1155,1.0512,0.9882,0.0,0.0,0.0,0.0,0.0,0.0,0.0,0.0,0.0,0.0,0.0,0.0,0.0,0.0,0.0,0.0,0.0,0.0,0.0,0.0,0.0,0.0,0.0,0.0,0.0,0.0,0.0,0.0,0.0,0.0,0.0,0.0,0.0,0.0,0.0,0.0,0.0,0.0,0.0,0.0,0.0,0.0,0.0,0.0,0.0,0.0,0.0,0.0,0.0,0.0,0.0,0.0,0.0,0.0,0.0,0.0,0.0,0.0,0.0,0.0,0.0,0.0,0.0,0.0,0.0,0.0,0.0,0.0,0.0,0.0,0.0,0.0,0.0,0.0,0.0,0.0,0.0,0.0,0.0,0.0,0.0,0.0,0.0,0.0,0.0,0.0,0.0,0.0,0.0,0.0,0.0,0.0,0.0,0.0,0.0,0.0,0.0,0.0,0.0,0.0,0.0,0.0,0.0,0.0,0.0,0.0,0.0,0.0,1.1583,1.2196,1.261,1.2695,1.2402,1.136,1.0445,0.0,0.0,0.0,0.0,0.0,0.0,0.0,0.0,0.0,0.0,0.0,0.0,0.0,0.0,0.0,0.0,0.0,0.0,0.0,0.0,0.0,0.0,0.0,0.0,0.0,0.0,0.0,0.0,0.0,0.0,0.0,0.0,0.0,0.0,0.0,0.0,0.0,0.0,0.0,0.0,0.0,0.0,0.0,0.0,0.0,0.0,0.0,0.0,0.0,0.0,0.0,0.0,0.0,0.0,0.0,0.0,0.0,0.0,0.0,0.0,0.0,0.0,0.0,0.0,0.0,0.0,0.0,0.0,0.0,0.0,0.0,0.0,0.0,0.0,0.0,0.0,0.0,0.0,0.0,0.0,0.0,0.0,0.0,0.0,0.0,0.0,0.0,0.0,0.0,0.0,0.0,0.0,0.0,0.0,0.0,0.0,0.0,0.0,0.0,0.0,0.0,0.0,0.0,0.0,0.0,0.0,0.0,0.0,1.204,1.2789,1.3305,1.3433,1.3156,1.2033,1.0945,0.0,0.0,0.0,0.0,0.0,0.0,0.0,0.0,0.0,0.0,0.0,0.0,0.0,0.0,0.0,0.0,0.0,0.0,0.0,0.0,0.0,0.0,0.0,0.0,0.0,0.0,0.0,0.0,0.0,0.0,0.0,0.0,0.0,0.0,0.0,0.0,0.0,0.0,0.0,0.0,0.0,0.0,0.0,0.0,0.0,0.0,0.0,0.0,0.7047,0.0,0.0,0.0,0.0,0.0,0.0,0.0,0.0,0.0,0.0,0.0,0.0,0.0,0.0,0.0,0.0,0.0,0.0,0.0,0.0,0.0,0.0,0.0,0.0,0.0,0.0,0.0,0.0,0.0,0.0,0.0,0.0,0.0,0.0,0.0,0.0,0.0,0.0,0.0,0.0,0.0,0.0,0.0,0.0,0.0,0.0,0.0,0.0,0.0,0.0,0.0,0.0,0.0,0.0,0.0,0.0,0.0,0.0,0.0,1.2523,1.3339,1.3813,1.4022,1.3981,1.3022,1.1832,0.0,0.0,0.0,0.0,0.0,0.0,0.0,0.0,0.0,0.0,0.0,0.0,0.0,0.0,0.0,0.0,0.0,0.0,0.0,0.0,0.0,0.0,0.0,0.0,0.0,0.0,0.0,0.0,0.0,0.0,0.0,0.0,0.0,0.0,0.0,0.0,0.0,0.0,0.0,0.0,0.0,0.0,0.0,0.0,0.0,0.0,0.0,0.0,0.0,0.0,0.0,0.0,0.0,0.0,0.0,0.0,0.0,0.0,0.0,0.0,0.0,0.0,0.0,0.0,0.0,0.0,0.0,0.0,0.0,0.0,0.0,0.0,0.0,0.0,0.0,0.0,0.0,0.0,0.0,0.0,0.0,0.0,0.0,0.0,0.0,0.0,0.0,0.0,0.0,0.0,0.0,0.0,0.0,0.0,0.0,0.0,0.0,0.0,0.0,0.0,0.0,0.0,0.0,0.0,0.0,0.0,0.0,1.2096,1.3104,1.3975,1.4418,1.4762,1.4966,1.4194,1.301,1.1348,0.0,0.0,0.0,0.0,0.0,0.0,0.0,0.0,0.0,0.0,0.0,0.0,0.0,0.0,0.0,0.0,0.0,0.0,0.0,0.0,0.0,0.0,0.0,0.0,0.0,0.0,0.0,0.0,0.0,0.0,0.0,0.0,0.0,0.0,0.0,0.0,0.0,0.0,0.1528,0.4636,0.0,0.0,0.0,0.0,0.0,0.0,0.0,0.0,0.7538,0.0,0.0,0.0,0.0,0.0,0.0,0.0,0.0,0.0,0.0,0.0,0.0,0.0,0.0,0.0,0.0,0.0,0.0,0.0,0.0,0.0,0.0,0.0,0.0,0.0,0.0,0.0,0.0,0.0,0.0,0.0,0.0,0.0,0.0,0.0,0.0,0.0,0.0,0.0,0.0,0.0,0.0,0.0,0.0,0.0,0.0,0.0,0.0,0.0,0.0,0.0,0.0,0.0,0.0,0.0,0.0,1.1323,1.2765,1.3956,1.4877,1.5712,1.6193,1.625,1.5472,1.4366,1.3007,0.0,0.0,0.0,0.0,0.0,0.0,0.0,0.0,0.0,0.0,0.0,0.0,0.0,0.0,0.0,0.0,0.0,0.0,0.0,0.0,0.0,0.0,0.0,0.0,0.0,0.0,0.0,0.0,0.0,0.0,0.0,0.0,0.0,0.0,0.0,0.0,0.0,0.0,0.0,0.5401,0.7347,0.0,0.0,0.0,0.0,0.0,0.0,0.0,0.0,0.763,0.0,0.0,0.0,0.0,0.0,0.0,0.0,0.0,0.0,0.0,0.0,0.0,0.0,0.0,0.0,0.0,0.0,0.0,0.0,0.0,0.0,0.0,0.0,0.0,0.0,0.0,0.0,0.0,0.0,0.0,0.0,0.0,0.0,0.0,0.0,0.0,0.0,0.0,0.0,0.0,0.0,0.0,0.0,0.0,0.0,0.0,0.0,0.0,0.0,0.0,0.0,0.0,0.0,0.0,0.0,1.2109,1.3306,1.4656,1.6141,1.6625,1.717,1.7738,1.6615,1.5533,0.0,0.0,0.0,0.0,0.0,0.0,0.0,0.0,0.0,0.0,0.0,0.0,0.0,0.0,0.0,0.0,0.0,0.0,0.0,0.0,0.0,0.0,0.0,0.0,0.0,0.0,0.0,0.0,0.0,0.0,0.0,0.0,0.0,0.0,0.0,0.0,0.0,0.0,0.0,0.0,0.5849,0.7658,0.8183,0.0,0.0,0.0,0.0,0.0,0.0,0.8651,0.8564,0.0,0.0,0.0,0.0,0.0,0.0,0.0,0.0,0.0,0.0,0.0,0.0,0.0,0.0,0.0,0.0,0.0,0.0,0.0,0.0,0.0,0.0,0.0,0.0,0.0,0.0,0.0,0.0,0.0,0.0,0.0,0.0,0.0,0.0,0.0,0.0,0.0,0.0,0.0,0.0,0.0,0.0,0.0,0.0,0.0,0.0,0.0,0.0,0.0,0.0,0.0,0.0,0.0,0.0,0.0,1.2804,1.3973,1.5532,1.7419,1.7745,1.8374,1.9406,1.7942,1.6793,0.0,0.0,0.0,0.0,0.0,0.0,0.0,0.0,0.0,0.0,0.0,0.0,0.0,0.0,0.0,0.0,0.0,0.0,0.0,0.0,0.0,0.0,0.0,0.0,0.0,0.0,0.0,0.0,0.0,0.0,0.0,0.0,0.0,0.0,0.0,0.0,0.0,0.0,0.0,0.0,0.0,0.8167,0.8772,0.8781,0.0,0.0,0.0,0.0,0.9469,0.9668,0.0,0.0,0.0,0.0,0.0,0.0,0.0,0.0,0.0,0.0,0.0,0.0,0.0,0.0,0.0,0.0,0.0,0.0,0.0,0.0,0.0,0.0,0.0,0.0,0.0,0.0,0.0,0.0,0.0,0.0,0.0,0.0,0.0,0.0,0.0,0.0,0.0,0.0,0.0,0.0,0.0,0.0,0.0,0.0,0.0,0.0,0.0,0.0,0.0,0.0,0.0,0.0,0.0,0.0,0.0,0.0,1.3012,1.5125,1.6997,1.8563,1.9543,2.0499,2.1411,1.9801,1.8397,0.0,0.0,0.0,0.0,0.0,0.0,0.0,0.0,0.0,0.0,0.0,0.0,0.0,0.0,0.0,0.0,0.0,0.0,0.0,0.0,0.0,0.0,0.0,0.0,0.0,0.0,0.0,0.0,0.0,0.0,0.0,0.0,0.0,0.0,0.0,0.0,0.0,0.0,0.0,0.0,0.0,0.9086,0.9963,1.0134,0.9753,0.0,0.0,0.9175,1.0069,1.0644,0.0,0.0,0.0,0.0,0.0,0.0,0.0,0.0,0.0,0.0,0.0,0.0,0.0,0.0,0.0,0.0,0.0,0.0,0.0,0.0,0.0,0.0,0.0,0.0,0.0,0.0,0.0,0.0,0.0,0.0,0.0,0.0,0.0,0.0,0.0,0.0,0.0,0.0,0.0,0.0,0.0,0.0,0.0,0.0,0.0,0.0,0.0,0.0,0.0,0.0,0.0,0.0,0.0,0.0,0.0,1.2302,1.4031,1.599,1.8183,2.0538,2.1151,2.1942,2.3029,2.1181,1.9528,0.0,0.0,0.0,0.0,0.0,0.0,0.0,0.0,0.0,0.0,0.0,0.0,0.0,0.0,0.0,0.0,0.0,0.0,0.0,0.0,0.0,0.0,0.0,0.0,0.0,0.0,0.0,0.0,0.0,0.0,0.0,0.0,0.0,0.0,0.0,0.0,0.0,0.0,0.0,0.0,0.0,0.0,1.1842,1.1719,0.0,0.0,0.0,1.0259,1.1818,0.0,0.0,0.0,0.0,0.0,0.0,0.0,0.0,0.0,0.0,0.0,0.0,0.0,0.0,0.0,0.0,0.0,0.0,0.0,0.0,0.0,0.0,0.0,0.0,0.0,0.0,0.0,0.0,0.0,0.0,0.0,0.0,0.0,0.0,0.0,0.0,0.0,0.0,0.0,0.0,0.0,0.0,0.0,0.0,0.0,0.0,0.0,0.0,0.0,0.0,0.0,0.0,0.0,0.0,0.0,0.0,0.0,1.479,1.6806,1.9276,2.2095,2.2698,2.3448,2.4451,2.255,0.0,0.0,0.0,0.0,0.0,0.0,0.0,0.0,0.0,0.0,0.0,0.0,0.0,0.0,0.0,0.0,0.0,0.0,0.0,0.0,0.0,0.0,0.0,0.0,0.0,0.0,0.0,0.6061,0.0,0.0,0.0,0.0,0.0,0.0,0.0,0.0,0.0,0.0,0.0,0.0,0.0,0.0,1.1481,1.3645,1.373,1.3131,0.0,0.0,1.1862,1.376,1.3759,1.3364,0.0,0.0,0.0,0.0,0.0,0.0,0.0,0.0,0.0,0.0,0.0,0.0,0.0,0.0,0.0,0.0,0.0,0.0,0.0,0.0,0.0,0.0,0.0,0.0,0.0,0.0,0.0,0.0,0.0,0.0,0.0,0.0,0.0,0.0,0.0,0.0,0.0,0.0,0.0,0.0,0.0,0.0,0.0,0.0,0.0,0.0,0.0,0.0,0.0,0.0,0.0,0.0,0.0,0.0,0.0,1.4827,1.7618,2.0279,2.2678,2.4221,2.5298,2.591,2.4131,2.2239,0.0,0.0,0.0,0.0,0.0,0.0,0.0,0.0,0.0,0.0,0.0,0.0,0.0,0.0,0.0,0.0,0.0,0.0,0.0,0.0,0.0,0.0,0.0,0.0,0.0,0.0,0.0,0.0,0.0,0.0,0.0,0.0,0.0,0.0,0.0,0.0,0.0,0.0,0.0,0.0,0.0,1.2621,1.5113,1.6369,1.6275,0.0,0.0,1.417,1.5611,1.5807,1.5314,1.3936,0.0,0.0,0.0,0.0,0.0,0.0,0.0,0.0,0.0,0.0,0.0,0.0,0.0,0.0,0.0,0.0,0.0,0.0,0.0,0.0,0.0,0.0,0.0,0.0,0.0,0.0,0.0,0.0,0.0,0.0,0.0,0.0,0.0,0.0,0.0,0.0,0.0,0.0,0.0,0.0,0.0,0.0,0.0,0.0,0.0,0.0,0.0,0.0,0.0,0.0,0.0,0.0,0.0,1.4012,1.614,1.9135,2.1944,2.4489,2.572,2.653,2.7009,2.4977,2.2828,0.0,0.0,0.0,0.0,0.0,0.0,0.0,0.0,0.0,0.0,0.0,0.0,0.0,0.0,0.0,0.0,0.0,0.0,0.0,0.0,0.0,0.0,0.0,0.0,0.0,0.0,0.0,0.0,0.6849,0.6944,0.695,0.0,0.0,0.0,0.0,0.0,0.0,0.0,0.0,0.0,0.0,1.4005,1.7334,1.8602,0.0,0.0,1.6424,1.704,1.8061,1.7584,1.6778,1.574,1.4629,0.0,0.0,0.0,0.0,0.0,0.0,0.0,0.0,0.0,0.0,0.0,0.0,0.0,0.0,0.0,0.0,0.0,0.0,0.0,0.0,0.0,0.0,0.0,0.0,0.0,0.0,0.0,0.0,0.0,0.0,0.0,0.0,0.0,0.0,0.0,0.0,0.0,0.0,0.0,0.0,0.0,0.0,0.0,0.0,0.0,0.0,0.0,0.0,0.0,0.0,0.0,0.0,1.451,1.6985,2.0096,2.2982,2.5651,2.6852,2.7549,2.7728,2.5681,2.3389,0.0,0.0,0.0,0.0,0.0,0.0,0.0,0.0,0.0,0.0,0.0,0.0,0.0,0.0,0.0,0.0,0.0,0.0,0.0,0.0,0.0,0.0,0.0,0.0,0.0,0.0,0.0,0.0,0.7138,0.7251,0.7251,0.0,0.0,0.0,0.0,0.0,0.0,0.0,0.0,0.0,0.0,1.5277,1.8985,2.0315,2.0276,1.8513,1.8995,1.9701,2.0199,1.9497,1.8532,1.7447,0.0,0.0,0.0,0.0,0.0,0.0,0.0,0.0,0.0,0.0,0.0,0.0,0.0,0.0,0.0,0.0,0.0,0.0,0.0,0.0,0.0,0.0,0.0,0.0,0.0,0.0,0.0,0.9884,0.0,0.0,0.9395,0.0,0.0,0.0,0.0,0.0,0.0,0.0,0.0,0.0,0.0,0.0,0.0,0.0,0.0,0.0,0.0,0.0,0.0,0.0,0.0,0.0,0.0,1.4546,1.7004,2.0276,2.3154,2.565,2.7522,2.8388,2.8247,2.6324,2.4035,2.1397,0.0,0.0,0.0,0.0,0.0,0.0,0.0,0.0,0.0,0.0,0.0,0.0,0.0,0.0,0.0,0.0,0.0,0.0,0.0,0.0,0.0,0.0,0.0,0.0,0.0,0.0,0.757,0.7578,0.7592,0.0,0.0,0.0,0.0,0.0,0.0,0.0,0.0,0.0,0.0,1.372,1.6343,1.9814,2.1408,2.1736,2.0444,2.1295,2.2035,2.1798,2.1556,2.0767,0.0,0.0,0.0,0.0,0.0,0.0,0.0,0.0,0.0,0.0,0.0,0.0,0.0,0.0,0.0,0.0,0.0,0.0,0.0,0.0,0.0,0.0,0.0,0.0,0.0,0.0,0.0,1.1107,1.1015,0.0,0.0,0.0,0.0,0.0,0.0,0.0,0.0,0.0,0.0,0.0,1.177,1.2781,0.0,0.0,0.0,0.0,0.0,0.0,0.0,0.0,0.0,0.0,0.0,0.0,1.5343,1.7882,2.1102,2.3942,2.631,2.7943,2.868,2.8497,2.6599,2.3557,1.9334,0.0,0.0,0.0,0.0,0.0,0.0,0.0,0.0,0.0,0.0,0.0,0.0,0.0,0.0,0.0,0.0,0.0,0.0,0.0,0.0,0.0,0.0,0.0,0.0,0.0,0.7673,0.0,0.0,0.0,0.0,0.0,0.0,0.0,0.0,0.0,0.0,0.0,1.3299,1.4641,1.5601,1.7705,2.1898,2.2374,2.2301,0.0,0.0,0.0,0.0,0.0,0.0,0.0,0.0,0.0,0.0,0.0,0.0,0.0,0.0,1.4031,1.3854,1.4353,1.4555,1.3787,0.0,0.0,0.0,0.0,0.0,0.0,0.0,0.0,0.0,0.0,0.0,0.0,0.0,0.0,1.288,0.0,1.2362,0.0,0.0,0.0,0.0,0.0,0.0,0.0,0.0,1.2603,1.3178,1.3435,1.4675,1.5282,0.0,1.5473,1.4792,0.0,0.0,0.0,0.0,0.0,0.0,0.0,0.0,1.5778,1.8402,2.1557,2.4338,2.6627,2.8148,2.8848,2.8689,2.618,2.2837,1.8707,1.6806,1.5044,0.0,0.0,0.0,0.0,0.0,0.0,0.0,0.0,0.0,0.0,0.0,0.0,0.0,0.0,0.0,0.0,0.0,0.0,0.0,0.0,0.0,0.0,0.0,0.8305,0.0,0.0,0.0,0.0,0.0,0.0,0.0,0.0,0.0,1.1699,1.3207,1.4831,1.6347,1.7025,1.8882,2.302,0.0,0.0,0.0,0.0,0.0,0.0,0.0,2.2578,2.1988,2.1238,2.0464,1.9684,1.9237,1.8086,1.5343,0.0,0.0,1.7197,1.6777,1.6371,1.6213,1.6169,1.6171,1.629,1.5372,1.5024,0.0,0.0,0.0,0.0,0.0,0.0,0.0,0.0,1.4917,1.5021,0.0,1.4546,0.0,0.0,0.0,0.0,0.0,1.221,0.0,0.0,1.4293,1.4996,1.5408,1.6888,1.7612,1.7628,1.7671,1.7407,1.6741,1.4165,0.0,0.0,0.0,0.0,0.0,0.0,1.5913,1.8673,2.1704,2.4371,2.666,2.817,2.8912,2.8832,2.5205,2.2065,1.9667,1.7598,1.5991,1.4911,1.317,0.0,0.0,0.0,0.0,0.0,0.0,0.0,0.0,0.0,0.0,0.0,0.0,0.0,0.0,0.0,0.0,0.0,0.0,0.0,0.0,0.9165,0.0,0.0,0.0,0.0,0.0,0.0,0.0,0.0,0.0,0.0,1.1232,1.3796,1.6098,1.7047,0.0,0.0,0.0,0.0,2.5694,2.3799,2.4668,2.5314,2.4766,2.4622,2.4196,2.3069,0.0,0.0,2.0506,2.0584,2.0118,1.7724,1.8252,1.933,2.0589,1.8943,1.7784,1.8998,1.8719,1.8384,1.8552,1.7717,1.7337,2.227,0.0,0.0,0.0,0.0,1.7438,1.7339,1.7499,1.7524,1.7463,1.7324,1.6431,0.0,0.0,0.0,0.0,0.0,0.0,1.4345,1.5055,1.6506,1.7407,1.7812,1.9407,2.0136,2.0134,1.9959,1.9589,1.8936,1.6911,1.4964,1.313,0.0,0.0,0.0,0.0,1.721,1.9816,2.2693,2.5185,2.7152,2.8454,2.8644,2.7667,2.5306,2.3067,2.1057,1.9176,1.7601,1.6336,1.4843,0.0,0.0,0.0,0.0,0.0,0.0,0.0,0.0,0.0,0.0,0.0,0.0,0.0,0.0,0.0,0.0,0.0,0.0,0.0,0.9625,1.0115,1.0449,0.0,0.0,0.0,0.0,0.0,0.0,0.0,0.0,0.0,1.3823,1.5761,1.7839,0.0,0.0,2.1027,2.4415,2.5749,2.6197,2.5624,2.588,0.0,2.5921,2.5362,2.4858,2.4489,2.4048,2.3024,2.091,2.1758,2.2664,2.2384,2.1925,2.2052,2.361,2.2487,2.1122,2.0985,2.0894,2.0974,2.1159,2.0224,1.9828,2.5889,2.3395,2.2007,2.12,2.0788,2.0449,2.0358,2.0459,2.0459,2.034,2.0052,1.8913,1.8291,1.802,1.6656,0.0,0.0,0.0,1.6508,1.7331,1.8942,1.9942,2.0421,2.1855,2.2548,2.2526,2.2177,2.1721,2.1177,1.9414,1.7629,1.5818,0.0,0.0,1.4688,1.6128,1.8062,2.0488,2.3209,2.5515,2.7364,2.8517,2.8552,2.7358,2.5673,2.3984,2.2269,2.0501,1.9058,1.8038,1.6438,1.5429,0.0,0.0,0.0,0.0,0.0,0.0,0.0,0.0,0.0,0.0,0.0,0.8404,0.8492,0.0,0.0,0.0,0.9556,1.0268,1.088,1.1212,0.0,0.0,0.0,0.0,0.0,0.0,0.0,1.6169,1.5672,1.5547,1.6713,1.8608,2.06,2.2534,2.2255,2.2817,2.537,0.0,2.6397,2.64,2.6606,2.675,2.6748,2.6106,2.5508,2.5179,2.4887,2.4147,2.2639,2.3411,2.4494,2.4992,2.445,2.4272,2.5909,2.5256,2.4103,2.2984,2.3101,2.3445,2.3518,2.2912,2.2729,2.9183,2.7687,2.5378,2.4292,2.4057,2.3669,2.3521,2.3533,2.3502,2.3364,2.3016,2.1756,2.0989,2.0524,1.8667,0.0,1.8361,1.8473,1.8987,1.9884,2.1524,2.2504,2.2998,2.4206,2.4796,2.4746,2.4233,2.3761,2.3261,2.1622,2.0398,1.9484,1.6562,1.5465,1.623,1.721,1.8814,2.1065,2.3571,2.5716,2.7556,2.8515,2.8585,2.7739,2.6231,2.4744,2.3297,2.1547,2.0331,1.9725,1.7928,1.6875,1.6799,0.0,0.0,0.0,0.0,0.0,0.0,0.0,0.0,0.0,0.0,0.0,0.0,0.0,0.0,0.0,1.0918,0.0,1.2387,1.2455,0.0,0.0,0.0,1.3646,1.2577,1.3223,1.5025,1.8411,0.0,0.0,1.968,2.1955,2.3975,2.5267,2.482,2.4841,2.6093,2.6467,2.6522,2.6521,2.7,2.7358,2.7357,2.6846,2.6197,2.5505,2.5494,2.5401,2.4849,2.5205,2.5836,2.6221,2.5927,2.5922,2.7135,2.7242,2.6821,2.4972,2.5178,2.5578,2.5368,2.5459,2.5476,3.0686,3.025,2.9278,2.7594,2.5592,2.5489,2.5438,2.5438,2.5428,2.5243,2.4905,2.4145,2.3063,2.1761,2.0979,2.0592,2.0568,2.1129,2.182,2.2624,2.3952,2.4768,2.5109,2.6053,2.637,2.6114,2.5789,2.5271,2.4539,2.3284,2.2042,2.086,1.9757,1.8877,1.8212,1.9574,2.1334,2.3443,2.562,2.7561,2.9221,2.9114,2.8714,2.8074,2.6541,2.5123,2.3921,2.2351,2.1129,2.0336,1.9218,1.8424,1.8006,1.6791,0.0,0.0,0.0,0.0,0.0,0.0,0.0,0.0,0.0,0.9298,0.9546,0.0,0.9931,0.0,1.1818,1.3155,1.4286,1.4106,0.0,0.0,1.621,1.5857,1.4767,1.5268,1.695,2.014,2.0247,2.0694,2.2345,2.4628,2.6437,2.732,2.6028,2.5485,2.682,2.7489,2.7591,2.7237,2.7598,2.7975,2.7921,2.7473,2.6843,2.6237,2.6529,2.6666,2.6064,2.6469,2.678,2.6492,2.6294,2.6678,2.7745,2.7987,2.7734,2.7012,2.668,2.658,2.6765,2.6964,2.7153,3.2051,3.1782,3.1341,3.0166,2.8544,2.8012,2.7793,2.7803,2.7793,2.7537,2.7067,2.6172,2.5009,2.372,2.3296,2.3105,2.3158,2.3547,2.4148,2.4931,2.603,2.6711,2.6989,2.7641,2.7846,2.7662,2.7284,2.6744,2.6071,2.4811,2.3721,2.2826,2.2323,2.1766,2.1216,2.1575,2.2872,2.5091,2.7265,2.8951,3.0042,2.9397,2.874,2.8179,2.6819,2.5528,2.4352,2.3007,2.1929,2.1189,2.0206,1.9516,1.9188,1.7955,1.6932,0.0,0.0,0.0,0.0,0.0,0.0,0.0,0.0,0.0,0.0,0.0,1.1312,1.2676,1.3808,1.5018,1.635,1.5987,1.6373,1.8052,1.9028,1.8871,1.7107,1.7458,1.9151,2.2528,2.2994,2.341,2.4358,2.596,2.7204,2.7652,2.7029,2.6808,2.7519,2.8017,2.8069,2.7772,2.7983,2.8155,2.8002,2.7698,2.7319,2.6925,2.7068,2.7265,2.7204,2.7234,2.7265,2.7183,2.6983,2.7086,2.8006,2.8201,2.8116,2.7907,2.7642,2.7516,2.766,2.7776,2.801,3.3279,3.2782,3.2464,3.2183,3.1822,3.0755,3.0221,3.0076,3.0076,2.9731,2.9097,2.7886,2.683,2.5957,2.5559,2.548,2.5645,2.5733,2.6202,2.6974,2.7846,2.8356,2.8603,2.8944,2.9068,2.8975,2.8532,2.8055,2.7589,2.6331,2.5467,2.5,2.446,2.4313,2.448,2.3631,2.4284,2.6522,2.8638,2.992,3.0364,2.9488,2.874,2.8189,2.7021,2.5829,2.4639,2.3536,2.2666,2.2004,2.0967,2.0341,2.0247,1.8945,1.8007,0.0,1.6227,0.0,0.0,0.0,0.0,0.0,0.0,0.0,0.0,1.1955,1.3196,1.535,1.6198,1.7139,1.8366,1.7957,1.8352,2.0169,2.1922,2.2019,1.9791,1.9851,2.1438,2.4923,2.588,2.6169,2.5871,2.661,2.7182,2.7354,2.775,2.8035,2.8176,2.8183,2.8181,2.8203,2.8203,2.8118,2.7889,2.7794,2.7693,2.7473,2.7436,2.7607,2.8058,2.775,2.759,2.7975,2.7729,2.7621,2.8112,2.8199,2.8197,2.8176,2.8136,2.8136,2.8149,2.8149,2.8387,3.4322,3.3949,3.368,3.3374,3.304,3.2598,3.1851,3.0959,3.0959,3.0637,3.0069,2.908,2.8369,2.7853,2.7512,2.7189,2.6976,2.756,2.814,2.8745,2.9281,2.9577,2.963,2.9697,2.9477,2.9015,2.8914,2.8633,2.823,2.7952,2.738,2.6566,2.6444,2.6516,2.6776,0.0,0.0,0.0,2.981,3.0297,3.0362,2.9488,2.874,2.8203,2.7031,0.0,2.4639,2.3714,2.2846,2.2039,2.1579,0.0,0.0,0.0,0.0,0.0,0.0,0.0,0.0,0.0,0.0,0.0,1.4056,1.3621,1.3069,1.4221,1.5497,1.6591,1.7772,1.8873,1.9788,1.961,2.0163,2.1996,2.383,2.4411,2.3126,2.2827,2.361,2.5642,2.7013,2.753,2.6953,2.7282,2.7675,2.7922,2.8099,2.8189,2.8203,2.8203,2.8203,2.8203,2.8203,2.8186,2.8112,2.8085,2.8048,2.8029,2.8029,2.8057,2.8151,2.812,2.8026,2.8196,2.809,2.8032,2.8182,2.8194,2.8203,2.8203,2.8203,2.8203,2.8203,2.8203,2.835,3.503,3.471,3.4455,3.4135,0.0,3.3682,3.3121,3.2254,3.1998,3.1592,3.099,3.0221,2.9708,2.9373,2.9216,2.9017,2.8853,2.922,2.9601,3.0,3.0227,3.0354,3.0366,3.0343,3.0102,2.97,2.9542,2.9249,2.893,2.8588,2.8149,2.769,2.7725,2.7806,2.7957,2.8738,2.9427,3.0043,3.0528,3.0738,3.0564,2.9724,2.8909,2.8203,2.7021,0.0,0.0,0.0,0.0,0.0,0.0,0.0,0.0,2.0748,0.0,1.971,1.8786,1.7956,1.7286,1.6889,1.6555,1.6263,1.6507,1.6211,1.516,1.6575,1.7881,1.872,1.989,2.0945,2.1811,2.1523,2.1983,2.3879,2.5462,2.6051,2.526,2.4735,2.5202,2.6812,2.7761,2.804,2.7694,2.7797,2.8008,2.8162,2.8203,2.8203,2.8203,2.8203,2.8203,2.8203,2.8203,2.8189,2.8203,2.8203,2.8203,2.8189,2.8203,2.8203,2.8203,2.8203,2.8203,2.8203,2.8203,2.8203,2.8203,2.8203,2.8203,2.8203,2.8203,2.8203,2.8203,2.8203,2.8387,3.5672,3.5404,3.5137,3.4803,3.4456,3.447,3.4122,3.3521,0.0,0.0,0.0,3.1286,3.0885,3.0641,3.0576,3.0522,3.0469,3.0469,3.0644,3.0942,3.0914,3.0902,3.0954,3.0889,3.0726,3.048,3.0194,2.9929,2.9713,2.9117,2.8822,2.8841,2.887,2.8936,2.906,3.0076,3.0653,3.0704,3.1028,3.1077,3.0782,2.9962,2.9096,2.8286,2.7101,2.6052,2.5193,2.411,2.3349,2.2987,2.2485,2.2186,2.2049,2.1336,2.0867,2.0727,1.9776,1.9127,1.9019,1.8696,1.8507,1.8469,1.904,1.8812,1.756,1.8838,2.0069,2.095,2.1997,2.2933,2.3736,2.3416,2.3813,2.5549,2.6755,2.7217,2.662,2.6141,2.6407,2.7805,2.8116,2.8188,2.817,2.8165,2.8203,2.8203,2.8203,2.8203,2.8203,2.8203,2.8203,2.8203,2.8203,2.8203,2.8203,2.8203,2.8203,2.8203,2.8203,2.8203,2.8203,2.8203,2.8203,2.8203,2.8203,2.8203,2.8203,2.8203,2.8203,2.8203,2.8203,2.8203,2.8203,2.8203,2.8411,3.6553,3.6299,3.6019,3.5591,3.5057,3.5084,3.4723,3.4096,3.3063,3.2554,3.2447,3.2088,3.1769,3.1512,3.1223,3.0957,3.0765,3.0751,3.1034,3.154,3.1276,3.1303,3.1554,3.1289,3.0997,3.0742,3.0688,3.0648,3.0597,3.0509,3.0461,3.0438,3.0486,3.0563,3.0813,3.1017,3.1239,3.1514,3.1321,3.1064,3.0795,2.994,2.9189,2.8548,2.7378,2.6326,2.5478,2.4791,2.4061,2.3296,2.3171,2.2874,2.2375,2.221,2.1917,2.1421,2.12,2.096,2.0617,2.0519,2.0666,2.1036,2.1636,2.1399,2.0145,2.0766,2.1673,2.2589,2.3583,2.4344,2.4763,2.496,2.5459,2.649,2.7483,2.7816,2.7249,2.7088,2.7197,2.775,2.802,2.8199,2.8197,2.8203,2.8203,2.8203,2.8203,2.8203,2.8203,2.8203,2.8203,2.8203,2.8203,2.8203,2.8203,2.8203,2.8203,2.8203,2.8203,2.8203,2.8203,2.8203,2.8203,2.8203,2.8203,2.8203,2.8203,2.8203,2.8203,2.8203,2.8203,2.8203,2.8203,2.8203,2.8403,3.7234,3.6954,3.666,3.6299,3.5859,3.5404,3.5044,3.4723,3.3894,3.3345,3.2985,3.257,3.2314,3.2181,3.2021,3.1901,3.1767,3.1767,3.1926,3.2179,3.2035,3.2035,3.2154,3.2033,3.1715,3.1326,3.1274,3.1126,3.0822,3.0795,3.0795,3.0808,3.093,3.1169,3.1463,3.1623,3.1702,3.1711,3.1542,3.1249,3.0807,3.027,2.9537,2.862,2.7739,2.6881,2.6002,2.5405,2.4831,2.4302,2.3963,2.3665,2.3398,2.3078,2.2774,2.2496,2.2299,2.2125,2.194,2.2047,2.2319,2.282,2.326,2.3508,2.3406,2.3242,2.349,2.4233,2.5054,2.5643,2.5944,2.6291,2.6707,2.7234,2.7853,2.8071,2.7851,2.7801,2.7818,2.796,2.8109,2.82,2.8203,2.8203,2.8203,2.8203,2.8203,2.8203,2.8203,2.8203,2.8203,2.8203,2.8203,2.8203,2.8203,2.8203,2.8203,2.8203,2.8203,2.8203,2.8203,2.8203,2.8203,2.8203,2.8203,2.8203,2.8203,2.8203,2.8203,2.8203,2.8203,2.8203,2.8213,2.8312,2.8561,3.7875,3.7662,3.7274,3.69,3.6526,3.5738,3.5364,3.5244,3.4723,3.4215,3.3681,3.3144,3.2862,3.2781,3.2728,3.2673,3.2594,3.2594,3.2609,3.2688,3.2621,3.2609,3.2662,3.2634,3.2341,3.194,3.1888,3.166,3.1246,3.1206,3.1219,3.1233,3.1421,3.1637,3.1913,3.2103,3.2103,3.1913,3.19,3.1568,3.0902,3.0564,2.9909,2.8941,2.82,2.7465,2.673,2.6109,2.5628,2.5319,2.4846,2.4543,2.4405,2.3959,2.3661,2.359,2.3342,2.3244,2.3331,2.3606,2.3956,2.4414,2.4762,2.5273,2.5967,2.5534,2.532,2.5803,2.6281,2.6684,2.692,2.7127,2.7427,2.777,2.8038,2.8178,2.8191,2.8203,2.8203,2.8203,2.8203,2.8203,2.8203,2.8203,2.8203,2.8203,2.8203,2.8203,2.8203,2.8203,2.8203,2.8203,2.8203,2.8203,2.8203,2.8203,2.8203,2.8203,2.8203,2.8203,2.8203,2.8203,2.8203,2.8203,2.8203,2.8203,2.8203,2.8203,2.8203,2.8203,2.8203,2.8203,2.8203,2.8339,2.8617,3.8596,3.8489,3.7955,3.738,3.6833,3.6246,3.5845,3.5565,3.5244,3.495,3.4615,3.404,3.3613,3.332,3.3079,3.2863,3.2648,3.2594,3.2741,3.2917,3.2714,3.2729,3.2918,3.2716,3.2567,3.2513,3.25,3.2447,3.234,3.2367,3.2395,3.2433,3.246,3.246,3.25,3.2527,3.2541,3.2514,3.2514,3.2087,3.1211,3.0671,3.0214,2.9784,2.873,2.7991,2.7575,2.7014,2.644,2.5971,2.5864,2.5573,2.5086,2.4962,2.4796,2.4528,2.4452,2.4558,2.4879,2.5426,2.5812,2.6141,2.6351,2.6673,2.7073,2.7054,2.7047,2.7104,2.7161,2.7302,2.7552,2.7439,2.7572,2.8037,2.8167,2.8207,2.82,2.8203,2.8203,2.8203,2.8203,2.8203,2.8203,2.8203,2.8203,2.8203,2.8203,2.8203,2.8203,2.8203,2.8203,2.8203,2.8203,2.8203,2.8203,2.8203,2.8203,2.8203,2.8203,2.8203,2.8203,2.8203,2.8203,2.8203,2.8203,2.8203,2.8203,2.8203,2.8203,2.8203,2.8203,2.8203,2.8203,2.8243,2.8438,3.9469,3.8901,3.8502,3.7903,3.7195,3.6754,3.642,3.6099,3.5645,3.5378,3.5217,3.4669,3.4255,3.3909,3.3641,3.3465,3.3371,3.3171,3.3132,3.3227,3.3119,3.3145,3.3213,3.312,3.2998,3.2849,3.2836,3.2742,3.2621,3.2594,3.2594,3.2594,3.2594,3.2594,3.262,3.2756,3.2768,3.2607,3.2768,3.257,3.2035,3.146,3.0753,2.9967,2.9432,2.8882,2.827,2.784,2.7436,2.7011,2.6673,2.6369,2.6109,2.5965,2.5798,2.5678,2.5655,2.5798,2.6102,2.6346,2.66,2.6924,2.7185,2.7402,2.7519,2.7724,2.7841,2.7814,2.767,2.7652,2.793,2.7887,2.7927,2.8165,2.8203,2.8203,2.8203,2.8203,2.8203,2.8203,2.8203,2.8203,2.8203,2.8203,2.8203,2.8203,2.8203,2.8203,2.8203,2.8203,2.8203,2.8203,2.8203,2.8203,2.8203,2.8203,2.8203,2.8203,2.8203,2.8203,2.8203,2.8203,2.8203,2.8203,2.8203,2.8203,2.8203,2.8203,2.8203,2.8203,2.8203,2.8203,2.8203,2.8203,2.8369,4.0138,3.924,3.8769,3.8238,3.7624,3.7207,3.6873,3.6566,3.6072,3.5818,3.5685,3.523,3.4883,3.4629,3.4215,3.4014,3.3988,3.3748,3.3614,3.3547,3.3534,3.3506,3.3389,3.3389,3.3293,3.3132,3.3105,3.2999,3.2824,3.2823,3.2823,3.2823,3.2823,3.2835,3.2836,3.3024,3.3024,3.285,3.3024,3.2984,3.2663,3.2276,3.1515,3.0476,3.0074,2.9595,2.8994,2.8625,2.8264,2.7939,2.7445,2.7138,2.7044,2.6797,2.6637,2.6637,2.6657,2.677,2.7041,2.7134,2.7318,2.7636,2.7896,2.8059,2.8086,2.8291,2.8409,2.8398,2.8211,2.816,2.8149,2.8203,2.8203,2.8203,2.8203,2.8203,2.8203,2.8203,2.8203,2.8203,2.8203,2.8203,2.8203,2.8203,2.8203,2.8203,2.8203,2.8203,2.8203,2.8203,2.8203,2.8203,2.8203,2.8203,2.8203,2.8203,2.8203,2.8203,2.8203,2.8203,2.8203,2.8203,2.8203,2.8203,2.8203,2.8203,2.8203,2.8203,2.8203,2.8203,2.8203,2.8203,2.8203,2.8203,2.8272,4.0436,3.9525,3.868,3.832,3.8198,3.7623,3.7195,3.6859,3.6566,3.6313,3.6046,3.5698,3.5551,3.5431,3.467,3.4296,3.4295,3.4243,3.4082,3.3894,3.3854,3.3707,3.3389,3.3389,3.3375,3.3348,3.3334,3.3347,3.3346,3.3334,3.3374,3.3334,3.3345,3.3372,3.3396,3.3434,3.3399,3.3383,3.3409,3.3252,3.3011,3.2944,3.2463,3.1605,3.0528,2.9942,2.9757,2.9266,2.885,2.8556,2.8278,2.7991,2.7682,2.7412,2.7288,2.7299,2.7285,2.7385,2.7679,2.7944,2.8222,2.8484,2.8703,2.8895,2.8815,2.8863,2.889,2.8935,2.8863,2.8687,2.8315,2.8259,2.8229,2.8203,2.8203,2.8203,2.8203,2.8203,2.8203,2.8203,2.8203,2.8203,2.8203,2.8203,2.8203,2.8203,2.8203,2.8203,2.8203,2.8203,2.8203,2.8203,2.8203,2.8203,2.8203,2.8203,2.8203,2.8203,2.8203,2.8203,2.8203,2.8203,2.8203,2.8203,2.8203,2.8203,2.8203,2.8203,2.8203,2.8203,2.8203,2.8203,2.8203,2.8203,2.8245,4.0986,3.9559,3.9037,3.8611,3.8293,3.8051,3.769,3.7222,3.6887,3.6606,3.634,3.6059,3.5805,3.5565,3.5284,3.495,3.4603,3.4403,3.4256,3.4148,3.3975,3.3828,3.3708,3.3507,3.3389,3.3389,3.3389,3.3389,3.3389,3.3389,3.3389,3.3464,3.3764,3.3914,3.3976,3.4251,3.4263,3.3939,3.3913,3.3697,3.329,3.3092,3.2837,3.2516,3.158,3.0885,3.0488,2.9891,2.953,2.9446,2.897,2.8671,2.8543,2.8436,2.8393,2.8382,2.8382,2.8433,2.8529,2.8647,2.8754,2.8839,2.8932,2.9015,2.9001,2.9001,2.9001,2.9001,2.9001,2.8865,2.874,2.8551,2.8371,2.8243,2.8203,2.8203,2.8203,2.8203,2.8203,2.8203,2.8203,2.8203,2.8203,2.8203,2.8203,2.8203,2.8203,2.8203,2.8203,2.8203,2.8203,2.8203,2.8203,2.8203,2.8203,2.8203,2.8203,2.8203,2.8203,2.8203,2.8203,2.8203,2.8203,2.8203,2.8203,2.8203,2.8203,2.8203,2.8203,2.8203,2.8203,2.8203,2.8203,2.8203,2.8203,4.1098,3.9766,3.9275,3.8917,3.8558,3.8358,3.8079,3.7636,3.7248,3.6967,3.674,3.6407,3.6099,3.5858,3.5685,3.5418,3.5043,3.4723,3.4536,3.4456,3.4268,3.4081,3.3881,3.3668,3.3507,3.3415,3.3389,3.3389,3.3426,3.3576,3.3651,3.3689,3.4201,3.4463,3.4525,3.4824,3.4812,3.4488,3.4287,3.4014,3.3649,3.3301,3.3079,3.2918,3.2435,3.1794,3.1114,3.0526,3.0196,3.0116,2.9613,2.9212,2.9017,2.9001,2.9001,2.9001,2.8988,2.9052,2.9143,2.9157,2.9197,2.9293,2.9304,2.9304,2.9304,2.9293,2.9293,2.9282,2.9282,2.9266,2.9143,2.8994,2.8735,2.8395,2.8245,2.8203,2.8203,2.8203,2.8203,2.8203,2.8203,2.8203,2.8203,2.8203,2.8203,2.8203,2.8203,2.8203,2.8203,2.8203,2.8203,2.8203,2.8203,2.8203,2.8203,2.8203,2.8203,2.8203,2.8203,2.8203,2.8203,2.8203,2.8203,2.8203,2.8203,2.8203,2.8203,2.8203,2.8203,2.8203,2.8203,2.8203,2.8203,2.8203,2.8203,4.0685,4.0008,3.9355,3.9144,3.8982,3.8517,3.8306,3.8132,3.765,3.7396,3.7222,3.6781,3.6513,3.6339,3.5885,3.5605,3.5498,3.5217,3.499,3.4816,3.4736,3.4441,3.3935,3.3881,3.3668,3.3414,3.3389,3.3414,3.3501,3.3914,3.4151,3.4326,3.4852,3.5202,3.5073,3.5286,3.5186,3.4998,3.4625,3.4275,3.4139,3.3637,3.3253,3.3052,3.2944,3.253,3.1753,3.1116,3.0807,3.0753,3.0234,2.9648,2.9228,2.9161,2.9081,2.9159,2.9081,2.9223,2.9508,2.9566,2.97,2.9849,2.9915,2.9891,2.9891,2.9902,2.9889,2.9862,2.9862,2.9771,2.955,2.943,2.9176,2.8673,2.8382,2.8256,2.8203,2.8203,2.8203,2.8203,2.8203,2.8203,2.8203,2.8203,2.8203,2.8203,2.8203,2.8203,2.8203,2.8203,2.8203,2.8203,2.8203,2.8203,2.8203,2.8203,2.8203,2.8203,2.8203,2.8203,2.8203,2.8203,2.8203,2.8203,2.8203,2.8203,2.8203,2.8203,2.8203,2.8203,2.8203,2.8203,2.8203,2.8203,2.8203,4.1853,4.069,4.028,3.9715,3.9089,3.873,3.8478,3.8292,3.8078,3.7784,3.7409,3.7209,3.6901,3.6487,3.6099,3.5819,3.5591,3.5324,3.5164,3.507,3.487,3.4589,3.4215,3.3975,3.3734,3.3429,3.3389,3.3601,3.3926,3.4126,3.4538,3.5288,3.6084,3.6491,3.673,3.7199,3.7154,3.6156,3.557,3.4973,3.4237,3.3676,3.3348,3.3267,3.3104,3.2838,3.2582,3.1848,3.1447,3.1406,3.0835,3.0434,3.0263,3.0236,3.0247,3.0236,3.0236,3.0274,3.0354,3.0379,3.0381,3.0488,3.0526,3.0528,3.0515,3.0501,3.0408,3.0272,3.0232,3.0123,2.982,2.9604,2.927,2.866,2.8532,2.8395,2.8211,2.8203,2.8203,2.8203,2.8203,2.8203,2.8203,2.8203,2.8203,2.8203,2.8203,2.8203,2.8203,2.8203,2.8203,2.8203,2.8203,2.8203,2.8203,2.8203,2.8203,2.8203,2.8203,2.8203,2.8203,2.8203,2.8203,2.8203,2.8203,2.8203,2.8203,2.8203,2.8203,2.8203,2.8203,2.8203,2.8203,2.8203,2.8203,4.2952,4.1827,4.1059,4.0341,3.9601,3.9086,3.869,3.8451,3.8332,3.8011,3.7609,3.7436,3.7114,3.666,3.6366,3.6072,3.5765,3.5498,3.5284,3.5191,3.503,3.4776,3.4456,3.4081,3.3721,3.3441,3.3389,3.3676,3.4201,3.4748,3.5516,3.6568,3.7645,3.8369,3.8628,3.8826,3.8418,3.742,3.6534,3.5582,3.4637,3.3976,3.3614,3.3412,3.3227,3.3146,3.3105,3.2516,3.2128,3.1941,3.146,3.1072,3.0847,3.0768,3.0795,3.0795,3.0782,3.0768,3.0795,3.0742,3.0795,3.0795,3.0795,3.0782,3.0782,3.0795,3.0711,3.0578,3.0455,3.031,3.0098,2.982,2.9432,2.8981,2.8831,2.8601,2.831,2.8203,2.8203,2.8203,2.8203,2.8203,2.8203,2.8203,2.8203,2.8203,2.8203,2.8203,2.8203,2.8203,2.8203,2.8203,2.8203,2.8203,2.8203,2.8203,2.8203,2.8203,2.8203,2.8203,2.8203,2.8203,2.8203,2.8203,2.8203,2.8203,2.8203,2.8203,2.8203,2.8203,2.8203,2.8203,2.8203,2.8203,2.8203,4.404,4.3188,4.1708,4.0883,4.0419,3.9487,3.8929,3.8676,3.8466,3.8143,3.7836,3.7583,3.7261,3.6913,3.6607,3.6313,3.6073,3.5712,3.5405,3.5244,3.5151,3.5003,3.4683,3.4228,3.3801,3.3508,3.3557,3.3908,3.4609,3.58,3.6995,3.8249,3.955,4.0447,4.0736,4.0157,3.9616,3.8763,3.7484,3.6284,3.5152,3.445,3.3914,3.3426,3.3374,3.3361,3.3308,3.3079,3.2824,3.2554,3.2019,3.1527,3.1049,3.0902,3.102,3.1061,3.094,3.1007,3.0942,3.1112,3.1034,3.1009,3.1009,3.086,3.0954,3.0967,3.0915,3.0822,3.0656,3.0482,3.0377,3.0125,2.9818,2.9537,2.9157,2.8752,2.8291,2.822,2.8251,2.8216,2.8203,2.8203,2.8203,2.8203,2.8203,2.8203,2.8203,2.8203,2.8203,2.8203,2.8203,2.8203,2.8203,2.8203,2.8203,2.8203,2.8203,2.8203,2.8203,2.8203,2.8203,2.8203,2.8203,2.8203,2.8203,2.8203,2.8203,2.8203,2.8203,2.8203,2.8203,2.8203,2.8203,2.8203,2.8248,4.5488,4.3921,4.2366,4.1313,4.0492,3.9514,3.8954,3.8717,3.8623,3.8397,3.8131,3.7836,3.7529,3.7221,3.6727,3.6353,3.6086,3.5765,3.5445,3.5217,3.5191,3.5043,3.4776,3.4402,3.4055,3.389,3.4327,3.5039,3.5803,3.7107,3.8739,4.0617,4.1627,4.2342,4.2514,4.2596,4.1771,4.0281,3.8856,3.7382,3.5968,3.4772,3.3939,3.3451,3.3389,3.3389,3.3389,3.3334,3.3053,3.2634,3.2486,3.2313,3.2074,3.2047,3.2007,3.202,3.206,3.2087,3.2074,3.2072,3.1981,3.1784,3.1715,3.1675,3.1473,3.146,3.133,3.1158,3.0999,3.0877,3.07,3.043,3.0125,2.9795,2.937,2.8867,2.8448,2.8374,2.8425,2.8256,2.8205,2.8216,2.8203,2.8203,2.8203,2.8203,2.8203,2.8203,2.8203,2.8203,2.8203,2.8203,2.8203,2.8203,2.8203,2.8203,2.8203,2.8203,2.8203,2.8203,2.8203,2.8203,2.8203,2.8203,2.8203,2.8203,2.8203,2.8203,2.8203,2.8203,2.8203,2.8203,2.8203,2.8203,2.8331,4.6987,4.5339,4.3374,4.1945,4.0888,3.9768,3.909,3.8757,3.8703,3.8544,3.8279,3.7957,3.7649,3.7356,3.6887,3.654,3.6246,3.5952,3.5658,3.5378,3.5257,3.507,3.4802,3.4576,3.4465,3.4465,3.4881,3.5732,3.6893,3.8266,4.0083,4.2033,4.3557,4.4338,4.4662,4.4429,4.359,4.1732,3.9984,3.8179,3.635,3.5152,3.4177,3.3589,3.3389,3.3389,3.3389,3.3389,3.3187,3.2863,3.2756,3.2728,3.262,3.2594,3.2594,3.2594,3.2594,3.2581,3.2594,3.2594,3.2514,3.2342,3.2316,3.2235,3.2087,3.198,3.1732,3.1625,3.1373,3.1132,3.0944,3.062,3.0348,3.0098,2.9675,2.9252,2.8926,2.885,2.8604,2.8356,2.8281,2.8312,2.8219,2.8203,2.8203,2.8203,2.8203,2.8203,2.8203,2.8203,2.8203,2.8203,2.8203,2.8203,2.8203,2.8203,2.8203,2.8203,2.8256,2.8243,2.8198,2.8208,2.8203,2.8203,2.8203,2.8203,2.8203,2.8203,2.8203,2.8203,2.8203,2.8203,2.8216,2.8201,2.834,4.8374,4.7002,4.4355,4.2592,4.1359,4.0094,3.9184,3.877,3.8689,3.8642,3.8447,3.8083,3.7858,3.752,3.7269,3.6822,3.6487,3.6193,3.5845,3.5525,3.5297,3.507,3.4896,3.4843,3.4915,3.5123,3.5235,3.6415,3.7976,3.9394,4.1325,4.3473,4.5338,4.6253,4.6466,4.6078,4.4835,4.3161,4.1209,3.9121,3.7178,3.5827,3.4696,3.3726,3.3426,3.3401,3.3389,3.3388,3.328,3.3052,3.3039,3.2931,3.2729,3.2701,3.2702,3.2729,3.2756,3.2755,3.2714,3.2768,3.2688,3.2661,3.2622,3.2621,3.2514,3.2289,3.2116,3.1998,3.1586,3.1346,3.1119,3.0742,3.0537,3.0404,3.0127,2.9961,2.9808,2.9398,2.8878,2.8456,2.8577,2.8446,2.8339,2.8226,2.8203,2.8203,2.8203,2.8203,2.8203,2.8203,2.8203,2.8203,2.8203,2.8203,2.8203,2.8203,2.8203,2.8203,2.8299,2.8318,2.8214,2.8198,2.8208,2.8203,2.8203,2.8203,2.8203,2.8203,2.8216,2.8203,2.8203,2.8229,2.8248,2.8215,2.8289,4.8786,4.6971,4.415,4.2408,4.1332,3.9877,3.9037,3.8717,3.8718,3.8997,3.911,3.8775,3.8503,3.8436,3.7863,3.7221,3.6595,3.6247,3.5819,3.5311,3.5231,3.5177,3.511,3.5123,3.5263,3.5685,3.6667,3.7867,3.938,4.1341,4.3685,4.569,4.6824,4.7839,4.7853,4.7619,4.6639,4.4739,4.2973,4.0883,3.8575,3.6775,3.5313,3.4107,3.3589,3.3401,3.3389,3.3389,3.3361,3.3321,3.3293,3.3214,3.3186,3.3186,3.3172,3.316,3.3187,3.32,3.3226,3.3172,3.3132,3.2956,3.2904,3.2823,3.2607,3.2567,3.2381,3.2183,3.1971,3.1678,3.1279,3.1106,3.0904,3.0713,3.0459,3.0175,2.9927,2.9608,2.9398,2.9349,2.8953,2.8601,2.8577,2.8363,2.8296,2.8229,2.8205,2.8203,2.8216,2.8229,2.8203,2.8203,2.8203,2.8203,2.8216,2.8238,2.8254,2.8308,2.8401,2.8649,2.8545,2.8295,2.8332,2.8278,2.8203,2.8219,2.8313,2.8286,2.8339,2.8269,2.8269,2.8379,2.8438,2.8328,2.8444,4.9576,4.7369,4.455,4.2648,4.1392,4.0132,3.9394,3.9223,3.9485,3.9761,3.9883,3.9414,3.9137,3.9124,3.8501,3.7812,3.7086,3.6382,3.5845,3.5445,3.5271,3.5191,3.5283,3.5494,3.578,3.6336,3.7452,3.885,4.053,4.2417,4.438,4.6663,4.8007,4.8731,4.8941,4.878,4.7635,4.58,4.3921,4.1853,3.9565,3.7562,3.5682,3.432,3.3632,3.3389,3.3389,3.3389,3.3389,3.3389,3.3389,3.3389,3.3389,3.3389,3.3389,3.3389,3.3389,3.3389,3.3375,3.3375,3.3334,3.32,3.3199,3.3131,3.2971,3.2876,3.2729,3.2516,3.2263,3.1916,3.149,3.1251,3.1131,3.0997,3.074,3.0398,3.0015,2.977,2.9737,2.9772,2.9373,2.9043,2.8837,2.8623,2.8609,2.865,2.8265,2.8263,2.8387,2.8374,2.8229,2.8203,2.8203,2.8203,2.8253,2.8286,2.8324,2.8422,2.8555,2.8958,2.9212,2.8853,2.8508,2.8382,2.8241,2.8457,2.8529,2.8497,2.8588,2.8639,2.8682,2.8708,2.87,2.8675,2.8867,5.0409,4.7987,4.5155,4.3106,4.1746,4.075,4.0169,4.0034,4.0583,4.0972,4.0916,4.0307,4.0122,3.9799,3.9291,3.8583,3.7579,3.6625,3.5872,3.5565,3.5311,3.531,3.548,3.602,3.6728,3.733,3.8345,3.9731,4.1453,4.3116,4.5372,4.7088,4.8589,4.9507,4.9809,4.944,4.8397,4.6672,4.4625,4.2376,4.0116,3.8082,3.6132,3.4317,3.3719,3.3535,3.3508,3.3442,3.3389,3.3389,3.3389,3.3389,3.3389,3.3389,3.3389,3.3389,3.3389,3.3389,3.3389,3.3389,3.3375,3.3389,3.3388,3.3388,3.3308,3.3172,3.3025,3.2784,3.2477,3.1983,3.1726,3.1502,3.1343,3.1236,3.1059,3.0709,3.0305,3.0079,2.9976,2.9833,2.9529,2.921,2.9103,2.8978,2.9018,2.8996,2.8608,2.8384,2.8524,2.8489,2.8332,2.834,2.8382,2.8497,2.8545,2.8548,2.8571,2.8672,2.8801,2.9188,2.964,2.9424,2.8989,2.8443,2.8351,2.8634,2.8954,2.9114,2.9149,2.9121,2.901,2.8916,2.8952,2.9009,2.9293,5.0657,4.8588,4.5544,4.3767,4.2948,4.1804,4.1273,4.1302,4.1905,4.2392,4.2717,4.2141,4.1593,4.1111,4.0491,3.9251,3.777,3.6667,3.5979,3.5645,3.5377,3.5362,3.5902,3.6768,3.78,3.8839,3.9746,4.1099,4.2989,4.512,4.6713,4.8533,4.9753,5.0414,5.036,4.998,4.899,4.7486,4.5602,4.3527,4.1205,3.88,3.6633,3.455,3.4012,3.3841,3.3747,3.3548,3.3389,3.3389,3.3389,3.3389,3.3389,3.3389,3.3389,3.3389,3.3389,3.3389,3.3389,3.3389,3.3389,3.3389,3.3389,3.3389,3.3388,3.3347,3.3187,3.2893,3.2491,3.2009,3.1739,3.162,3.162,3.1576,3.1509,3.1436,3.1204,3.0751,3.0243,3.0045,2.968,2.9375,2.9337,2.9312,2.9329,2.9311,2.9098,2.888,2.8895,2.8687,2.8405,2.8485,2.8625,2.877,2.8906,2.8916,2.8929,2.9035,2.9182,2.9403,2.9734,2.982,2.9511,2.8954,2.8815,2.9108,2.9394,2.9607,2.9544,2.9393,2.9249,2.9119,2.9317,2.9504,2.963,5.1106,4.8985,4.6367,4.4623,4.3645,4.3113,4.2892,4.3034,4.3845,4.4293,4.4229,4.3884,4.3269,4.2512,4.1721,4.0167,3.8276,3.7019,3.6343,3.5899,3.5458,3.548,3.6138,3.7213,3.849,3.9823,4.1176,4.2508,4.3983,4.6025,4.7802,4.9002,5.0157,5.0793,5.0903,5.0556,4.9569,4.8206,4.6658,4.4733,4.2217,3.943,3.6762,3.5387,3.441,3.4148,3.4055,3.3841,3.3668,3.3615,3.3507,3.3415,3.3389,3.3389,3.3389,3.3389,3.3389,3.3389,3.3389,3.3389,3.3389,3.3389,3.3389,3.3389,3.3389,3.3361,3.328,3.2972,3.2663,3.2235,3.1943,3.1781,3.1712,3.1709,3.1709,3.1705,3.1567,3.1073,3.0709,3.0341,2.9986,2.9751,2.9657,2.9631,2.9617,2.958,2.9522,2.9416,2.9312,2.9085,2.8798,2.8828,2.9021,2.9151,2.9267,2.9239,2.9275,2.9382,2.9504,2.974,2.9831,2.9909,2.9788,2.9422,2.949,2.954,2.9659,2.9795,2.9719,2.9665,2.9619,2.9622,2.9822,2.9986,3.0113,5.1722,4.9496,4.748,4.5813,4.4688,4.4807,4.4937,4.5164,4.6207,4.6506,4.6095,4.5647,4.4896,4.3715,4.2288,4.0647,3.8717,3.7534,3.6612,3.5966,3.5644,3.5704,3.6545,3.7721,3.9267,4.1253,4.2938,4.4266,4.5171,4.6913,4.8335,4.9495,5.0451,5.0988,5.1207,5.0842,5.0072,4.8941,4.7486,4.5536,4.25,3.9376,3.6831,3.5728,3.4847,3.4389,3.4389,3.4122,3.3947,3.3827,3.3667,3.3469,3.3402,3.3389,3.3389,3.3389,3.3389,3.3389,3.3389,3.3389,3.3389,3.3389,3.3389,3.3389,3.3389,3.3362,3.3281,3.3012,3.2729,3.2435,3.209,3.1861,3.1739,3.1712,3.1709,3.1691,3.1588,3.134,3.1109,3.0751,3.0341,3.016,3.0086,3.0233,3.0272,3.0074,3.0019,2.9827,2.9715,2.97,2.9494,2.9396,2.9454,2.958,2.9623,2.9555,2.9597,2.9694,2.9812,2.9993,2.9984,2.9977,2.985,2.9795,2.9726,2.9784,2.9873,2.9953,2.9905,2.9914,2.9976,3.0087,3.0261,3.0428,3.0574,5.2581,5.0428,4.8767,4.7619,4.7039,4.7239,4.7372,4.7526,4.8615,4.8954,4.846,4.762,4.6488,4.4688,4.2025,4.0272,3.8911,3.7682,3.6544,3.5832,3.5801,3.6374,3.7552,3.9189,4.0736,4.2568,4.4565,4.5824,4.6699,4.8149,4.9372,5.0341,5.0854,5.1328,5.1316,5.1012,5.0164,4.9027,4.7498,4.4733,4.1196,3.878,3.7205,3.6092,3.5223,3.4736,3.4683,3.4429,3.4202,3.3974,3.3894,3.3681,3.3455,3.3389,3.3389,3.3389,3.3389,3.3389,3.3389,3.3389,3.3389,3.3389,3.3389,3.3389,3.3389,3.3375,3.3281,3.3025,3.2769,3.2514,3.2197,3.1876,3.1741,3.1712,3.1699,3.1711,3.1641,3.1531,3.1311,3.1266,3.0918,3.0684,3.0539,3.0772,3.0933,3.0698,3.0473,3.0278,3.0086,3.0021,3.0139,3.0037,2.9751,2.9828,3.0028,2.9956,2.9853,2.9939,3.0127,3.0267,3.0382,3.0403,3.0201,3.0145,3.0072,3.0045,3.0181,3.0197,3.0136,3.0203,3.0333,3.0509,3.0675,3.0839,3.0953,5.3812,5.1362,5.0263,4.9374,4.8738,4.9128,4.9504,4.9868,5.0438,5.0695,5.0454,4.9608,4.7845,4.5337,4.2908,4.0922,3.9219,3.7909,3.6718,3.5885,3.5959,3.6663,3.7839,3.9435,4.1327,4.3594,4.5419,4.7166,4.8195,4.9108,4.9993,5.0685,5.1165,5.1365,5.1428,5.1214,5.0488,4.915,4.7075,4.4283,4.1443,3.9213,3.7603,3.6532,3.5529,3.5095,3.4936,3.471,3.4523,3.4335,3.4161,3.3841,3.3668,3.3521,3.3389,3.3389,3.3389,3.3389,3.3389,3.3389,3.3389,3.3389,3.3389,3.3389,3.3389,3.3375,3.3361,3.3252,3.2972,3.2703,3.2359,3.1969,3.1791,3.172,3.1806,3.1718,3.1705,3.1622,3.1488,3.1507,3.1489,3.1254,3.1026,3.1052,3.1162,3.1008,3.082,3.0665,3.0379,3.0128,3.0339,3.0628,3.0292,3.0016,3.0261,3.0356,3.0077,3.014,3.0444,3.062,3.0899,3.0915,3.0682,3.0473,3.0336,3.0366,3.0485,3.0686,3.0847,3.0796,3.0725,3.0853,3.098,3.1036,3.1164,5.4854,5.27,5.2005,5.1264,5.0545,5.1004,5.1399,5.1787,5.2005,5.2119,5.1742,5.0573,4.8353,4.5919,4.3802,4.1565,3.9239,3.8244,3.7011,3.6229,3.6315,3.7226,3.8735,4.0275,4.2323,4.4354,4.6469,4.8321,4.9717,5.045,5.0762,5.1163,5.1523,5.1604,5.1558,5.1333,5.072,4.9126,4.6601,4.4093,4.1763,3.9588,3.807,3.6858,3.5888,3.5191,3.5151,3.4977,3.4857,3.4669,3.4415,3.4121,3.3881,3.3681,3.3495,3.3441,3.3389,3.3389,3.3389,3.3389,3.3389,3.3389,3.3389,3.3389,3.3389,3.3389,3.3375,3.3374,3.3131,3.2903,3.2628,3.2116,3.1929,3.1928,3.2007,3.1856,3.1745,3.1695,3.1782,3.1916,3.1888,3.1732,3.1533,3.1368,3.1316,3.126,3.1156,3.1029,3.0791,3.0472,3.0536,3.0866,3.0935,3.0571,3.0587,3.0674,3.0399,3.0384,3.0679,3.0948,3.1243,3.1263,3.1066,3.087,3.0685,3.0799,3.0964,3.1301,3.1558,3.1199,3.0965,3.1122,3.1233,3.1289,3.1425,5.5352,5.4649,5.4029,5.3372,5.2786,5.3043,5.3092,5.3095,5.3304,5.3129,5.2445,5.0369,4.8346,4.6226,4.4042,4.179,3.947,3.8319,3.7099,3.6661,3.7095,3.8282,3.9877,4.1878,4.4239,4.6538,4.8034,4.9684,5.1256,5.1632,5.2043,5.2466,5.2165,5.209,5.1897,5.1548,5.0468,4.8805,4.6474,4.4262,4.2019,3.9899,3.815,3.6976,3.5915,3.5217,3.5191,3.5124,3.5017,3.4856,3.4682,3.4388,3.4041,3.3854,3.3681,3.3455,3.3389,3.3389,3.3389,3.3389,3.3389,3.3389,3.3389,3.3389,3.3389,3.3389,3.3389,3.3388,3.3199,3.3051,3.2728,3.2372,3.2245,3.2247,3.2337,3.2277,3.2105,3.189,3.1989,3.2262,3.2317,3.2217,3.2002,3.1854,3.1581,3.1512,3.1475,3.1359,3.1295,3.1044,3.0882,3.1041,3.139,3.1295,3.1047,3.095,3.0849,3.0872,3.1054,3.1303,3.1552,3.1488,3.1356,3.131,3.1167,3.1312,3.1411,3.1552,3.1549,3.1282,3.1191,3.1381,3.1591,3.1738,3.1848,5.5713,5.548,5.4985,5.4398,5.3781,5.3845,5.39,5.3921,5.3804,5.3307,5.2519,5.0769,4.8783,4.6552,4.4268,4.178,3.9339,3.8034,3.7038,3.6683,3.7226,3.8631,4.0461,4.2798,4.5001,4.7296,4.8972,5.0597,5.2143,5.2597,5.3062,5.3192,5.28,5.2539,5.2262,5.1694,5.0471,4.9052,4.7075,4.4994,4.2823,4.0698,3.8865,3.7434,3.6283,3.5546,3.527,3.5204,3.5124,3.503,3.4857,3.4536,3.4202,3.4028,3.3761,3.3468,3.3428,3.3389,3.3389,3.3389,3.3389,3.3389,3.3389,3.3389,3.3389,3.3389,3.3389,3.3348,3.3307,3.3186,3.2935,3.2854,3.2845,3.2772,3.2707,3.266,3.2539,3.232,3.2294,3.2628,3.2767,3.2791,3.2552,3.2314,3.2019,3.1763,3.1739,3.1689,3.1581,3.152,3.1301,3.1218,3.1525,3.1647,3.1411,3.136,3.1319,3.1388,3.1443,3.1554,3.171,3.1682,3.1583,3.1569,3.1579,3.1593,3.1633,3.1684,3.1598,3.1435,3.148,3.1635,3.1872,3.211,3.2258,5.5703,5.5677,5.5416,5.4996,5.4534,5.4399,5.4393,5.44,5.4047,5.3306,5.2318,5.1044,4.9153,4.6708,4.4262,4.1982,3.9752,3.8406,3.7654,3.7753,3.8472,3.9759,4.172,4.396,4.6425,4.8277,4.9833,5.1574,5.3035,5.339,5.3628,5.3653,5.3432,5.3132,5.2661,5.1825,5.0768,4.948,4.7695,4.5624,4.3438,4.1276,3.9345,3.7773,3.6532,3.5731,3.5336,3.5191,3.5177,3.5111,3.4977,3.475,3.4456,3.4175,3.3881,3.3641,3.3467,3.3389,3.3389,3.3389,3.3389,3.3389,3.3389,3.3389,3.3389,3.3389,3.3389,3.3389,3.3388,3.332,3.3105,3.3168,3.3154,3.3047,3.312,3.3096,3.3008,3.286,3.2882,3.2992,3.3083,3.3111,3.2795,3.2509,3.2175,3.1883,3.1734,3.17,3.1669,3.1635,3.1626,3.1565,3.1651,3.1691,3.1686,3.1609,3.157,3.1791,3.1824,3.171,3.1771,3.1804,3.1916,3.2002,3.1979,3.1858,3.1846,3.1893,3.1821,3.1687,3.1855,3.2086,3.2154,3.2392,3.2565,5.5312,5.5299,5.5273,5.5221,5.5065,5.4818,5.4662,5.4532,5.4149,5.3378,5.2313,5.0875,4.9001,4.6663,4.4273,4.2078,4.0346,3.9097,3.8644,3.9133,3.9922,4.2057,4.4064,4.6011,4.7884,5.0377,5.156,5.2489,5.3818,5.383,5.3946,5.3966,5.379,5.364,5.3288,5.2029,5.0806,4.9611,4.7808,4.5861,4.3717,4.1571,3.9694,3.7981,3.6728,3.5928,3.5336,3.5191,3.5191,3.5164,3.5151,3.4963,3.4709,3.4456,3.4175,3.3921,3.3601,3.3441,3.3389,3.3389,3.3389,3.3389,3.3389,3.3389,3.3389,3.3389,3.3389,3.3389,3.3389,3.3389,3.3361,3.3374,3.3333,3.3331,3.3365,3.3364,3.3262,3.3237,3.321,3.3183,3.3264,3.3283,3.2965,3.2636,3.2295,3.1998,3.1787,3.1742,3.1835,3.1708,3.1711,3.1795,3.1822,3.1967,3.198,3.1821,3.1846,3.2081,3.2191,3.2075,3.2069,3.2168,3.2295,3.244,3.2298,3.2104,3.2088,3.2122,3.207,3.2091,3.2397,3.2592,3.261,3.2662,3.2836,5.4883,5.4863,5.4557,5.4427,5.4447,5.4629,5.4524,5.4245,5.4005,5.3402,5.2374,5.1119,4.9326,4.6997,4.4703,4.2504,4.0716,3.9465,3.915,3.9708,4.0907,4.2522,4.4684,4.7101,4.9107,5.0825,5.2068,5.3031,5.394,5.3985,5.3985,5.3985,5.3985,5.392,5.3685,5.2914,5.2101,5.066,4.8941,4.7022,4.4629,4.2364,4.0247,3.8293,3.712,3.6138,3.5296,3.5204,3.5191,3.5191,3.5191,3.507,3.4869,3.4616,3.4482,3.4201,3.3895,3.3601,3.3481,3.3389,3.3389,3.3402,3.3401,3.3401,3.3389,3.3389,3.3389,3.3389,3.3389,3.3389,3.3388,3.3388,3.3361,3.3361,3.3385,3.3385,3.3347,3.3348,3.3347,3.332,3.3367,3.3378,3.3173,3.303,3.2698,3.2593,3.2443,3.2331,3.2373,3.1918,3.1719,3.1878,3.1988,3.2193,3.2274,3.214,3.2143,3.2368,3.2459,3.2436,3.2467,3.2564,3.2723,3.2884,3.261,3.2348,3.2429,3.2495,3.2466,3.2559,3.2807,3.2897,3.282,3.2935,3.3187,5.4244,5.4192,5.375,5.3549,5.3627,5.4056,5.3997,5.36,5.3517,5.307,5.215,5.0993,4.9303,4.7073,4.4857,4.3206,4.1363,4.0309,4.0559,4.1001,4.2221,4.4149,4.6191,4.8047,5.0014,5.1471,5.2501,5.3454,5.396,5.3985,5.3985,5.3985,5.3985,5.3966,5.3822,5.3409,5.2571,5.1075,4.9415,4.7521,4.5147,4.2874,4.0698,3.8824,3.7407,3.6361,3.5533,3.5191,3.5191,3.5191,3.5151,3.511,3.4963,3.4816,3.4696,3.4455,3.4202,3.3935,3.3802,3.3615,3.3628,3.3614,3.3494,3.3401,3.3389,3.3389,3.3389,3.3389,3.3389,3.3389,3.3389,3.3389,3.3489,3.3489,3.3815,3.3827,3.385,3.3888,3.3749,3.3699,3.35,3.3475,3.3389,3.3362,3.3193,3.3162,3.3155,3.3005,3.2828,3.238,3.2034,3.218,3.2338,3.2554,3.26,3.2474,3.2516,3.2666,3.2704,3.2729,3.2891,3.2975,3.3155,3.3273,3.3018,3.2833,3.2868,3.288,3.287,3.2949,3.3141,3.3143,3.3033,3.3152,3.3375,5.3378,5.3306,5.2891,5.2741,5.2812,5.3209,5.313,5.2741,5.2722,5.2435,5.1827,5.0478,4.9004,4.7155,4.4718,4.3317,4.2597,4.1578,4.2152,4.3375,4.4221,4.6121,4.7822,4.9609,5.0872,5.2007,5.2923,5.3453,5.392,5.3985,5.3985,5.3985,5.3985,5.3985,5.3874,5.3505,5.2579,5.1189,4.9757,4.7666,4.5248,4.2925,4.0749,3.8876,3.7446,3.6347,3.5573,3.5191,3.5191,3.5191,3.5177,3.5177,3.5097,3.495,3.4856,3.4709,3.4456,3.4336,3.4176,3.3962,3.3855,3.3788,3.355,3.3443,3.3389,3.3389,3.3389,3.3389,3.3389,3.3389,3.3389,3.3539,3.3664,3.4054,3.4543,3.4615,3.4624,3.4534,3.4332,3.4133,3.3835,3.3673,3.3438,3.3389,3.3389,3.336,3.3291,3.3287,3.3098,3.2926,3.2664,3.2737,3.2882,3.2987,3.2949,3.282,3.2838,3.2948,3.2987,3.3039,3.3213,3.3293,3.3313,3.3336,3.337,3.3308,3.3187,3.3187,3.3269,3.3373,3.3344,3.3319,3.3191,3.3244,3.3389,5.291,5.2871,5.2754,5.2702,5.2683,5.2532,5.2551,5.2683,5.2702,5.2434,5.1962,5.0781,4.9362,4.786,4.6027,4.4416,4.3332,4.2695,4.2856,4.3893,4.5239,4.6731,4.8367,5.0042,5.1209,5.2094,5.2823,5.3352,5.3563,5.3776,5.3926,5.3985,5.3848,5.3887,5.3764,5.3574,5.2446,5.1227,4.9894,4.7718,4.5283,4.2938,4.0749,3.885,3.7459,3.6347,3.5494,3.5204,3.5191,3.5191,3.5191,3.5191,3.5164,3.5097,3.5043,3.4802,3.4669,3.4562,3.4336,3.4229,3.4135,3.395,3.3636,3.3437,3.3393,3.3402,3.3402,3.3389,3.3389,3.3389,3.3389,3.3501,3.3839,3.4366,3.4791,3.4964,3.5009,3.5119,3.4919,3.4583,3.4272,3.3899,3.3651,3.3389,3.3389,3.3389,3.3387,3.3397,3.3342,3.3156,3.3076,3.3138,3.3162,3.321,3.3254,3.3173,3.3188,3.3229,3.3228,3.3228,3.3294,3.3361,3.3375,3.3389,3.3389,3.3389,3.3349,3.3389,3.3389,3.3389,3.3374,3.3388,3.3389,3.3389,3.3389,5.2461,5.2441,5.2266,5.2182,5.2156,5.1921,5.1992,5.2175,5.2195,5.2038,5.1701,5.0699,4.9653,4.844,4.6681,4.5199,4.4179,4.3588,4.3751,4.4919,4.5786,4.7383,4.8976,5.0368,5.1404,5.2127,5.2604,5.3068,5.3216,5.332,5.3451,5.3432,5.3471,5.349,5.3366,5.3069,5.2264,5.1031,4.9582,4.7675,4.5368,4.2938,4.0749,3.8772,3.7459,3.6347,3.5375,3.5217,3.5191,3.5191,3.5191,3.5191,3.5191,3.5177,3.5164,3.4977,3.4963,3.4883,3.4736,3.4589,3.4429,3.4204,3.3877,3.369,3.3541,3.3508,3.3429,3.3389,3.3389,3.3389,3.3389,3.3476,3.4039,3.4601,3.4902,3.5176,3.5398,3.5632,3.5408,3.5073,3.4687,3.4277,3.3927,3.3589,3.3389,3.3389,3.3389,3.3387,3.3386,3.332,3.3267,3.3278,3.3318,3.3345,3.3389,3.3389,3.3349,3.3309,3.3335,3.3348,3.3389,3.3389,3.3389,3.3389,3.3389,3.3389,3.3389,3.3389,3.3389,3.3389,3.3389,3.3389,3.3389,3.3389,3.3389,5.2043,5.2004,5.1577,5.1467,5.1409,5.1428,5.1448,5.1397,5.1487,5.1409,5.1246,5.044,4.9699,4.8731,4.7205,4.6112,4.5277,4.4671,4.4898,4.6235,4.7121,4.8319,4.949,5.0981,5.1518,5.195,5.2339,5.2715,5.2754,5.2858,5.2937,5.2702,5.28,5.2878,5.2898,5.2754,5.1953,5.0722,4.9323,4.7603,4.5236,4.2925,4.0762,3.8746,3.7446,3.6387,3.552,3.5191,3.5191,3.5191,3.5191,3.5191,3.5191,3.5191,3.5164,3.5151,3.5124,3.511,3.5017,3.4896,3.4802,3.4604,3.434,3.4087,3.3897,3.3694,3.36,3.3415,3.3389,3.3389,3.3389,3.3476,3.3876,3.4525,3.5012,3.5497,3.5993,3.5966,3.5582,3.5273,3.4991,3.4517,3.3739,3.3389,3.3389,3.3389,3.3389,3.3389,3.3389,3.3389,3.3389,3.3389,3.3389,3.3389,3.3389,3.3389,3.3389,3.3375,3.3389,3.3389,3.3389,3.3389,3.3389,3.3389,3.3389,3.3389,3.3389,3.3389,3.3389,3.3389,3.3389,3.3389,3.3389,3.3389,3.3389,5.1558,5.1558,5.146,5.1397,5.1389,5.1397,5.1397,5.1397,5.1397,5.1397,5.1268,5.0751,4.998,4.899,4.8088,4.702,4.5948,4.5748,4.6082,4.6791,4.7812,4.8813,4.9671,5.0901,5.1436,5.1651,5.197,5.2363,5.2507,5.2605,5.2663,5.2663,5.2624,5.2566,5.2546,5.237,5.1599,5.0425,4.9083,4.7404,4.5155,4.2938,4.0788,3.8915,3.7459,3.6361,3.5586,3.5191,3.5191,3.5191,3.5191,3.5191,3.5191,3.5191,3.5191,3.5191,3.5191,3.5191,3.5164,3.511,3.5003,3.4869,3.463,3.4443,3.4242,3.3986,3.3745,3.3534,3.3389,3.3389,3.3414,3.3513,3.3725,3.4438,3.5099,3.577,3.6439,3.6117,3.5706,3.5348,3.5104,3.4529,3.3727,3.3389,3.3389,3.3389,3.3389,3.3389,3.3389,3.3389,3.3389,3.3389,3.3389,3.3389,3.3389,3.3389,3.3389,3.3389,3.3389,3.3389,3.3389,3.3389,3.3389,3.3389,3.3389,3.3389,3.3389,3.3389,3.3389,3.3389,3.3389,3.3389,3.3389,3.3389,3.3389,5.1043,5.0906,5.1062,5.1128,5.1179,5.1311,5.1397,5.1397,5.1397,5.1397,5.1316,5.0866,5.0219,4.9335,4.8657,4.7889,4.6741,4.6517,4.6902,4.7517,4.8304,4.9244,5.0156,5.0908,5.1234,5.1501,5.1636,5.1921,5.2175,5.2116,5.2085,5.2163,5.2143,5.2143,5.2124,5.1828,5.1301,5.0204,4.8935,4.7193,4.512,4.2938,4.0749,3.8876,3.7459,3.6361,3.5612,3.5191,3.5191,3.5191,3.5191,3.5191,3.5191,3.5191,3.5191,3.5191,3.5191,3.5191,3.5191,3.5164,3.5124,3.499,3.4963,3.479,3.4602,3.4347,3.4093,3.3855,3.3468,3.3401,3.3389,3.3464,3.3764,3.4313,3.4701,3.5188,3.5724,3.5861,3.5123,3.4296,3.4313,3.4543,3.3841,3.3389,3.3389,3.3389,3.3389,3.3389,3.3389,3.3389,3.3389,3.3389,3.3389,3.3389,3.3389,3.3389,3.3389,3.3389,3.3389,3.3389,3.3389,3.3389,3.3389,3.3389,3.3389,3.3389,3.3389,3.3389,3.3389,3.3389,3.3389,3.3389,3.3389,3.3389,3.3389,5.0539,5.0278,5.0566,5.075,5.0847,5.1167,5.135,5.1389,5.1397,5.1397,5.1353,5.0988,5.0495,4.9809,4.9101,4.8428,4.7938,4.7756,4.7981,4.8422,4.9089,4.9799,5.0463,5.1112,5.1299,5.1404,5.1467,5.1487,5.1565,5.1565,5.1565,5.1428,5.1397,5.1409,5.1397,5.1299,5.0968,4.997,4.8712,4.7168,4.512,4.2938,4.0749,3.8915,3.7446,3.6361,3.5573,3.5191,3.5191,3.5191,3.5191,3.5191,3.5191,3.5191,3.5191,3.5191,3.5191,3.5191,3.5191,3.5177,3.5177,3.5164,3.5191,3.5084,3.487,3.4669,3.4402,3.4161,3.3761,3.3548,3.3548,3.3544,3.3857,3.4181,3.4482,3.4704,3.514,3.5465,3.4536,3.3558,3.3774,3.4167,3.3942,3.349,3.3376,3.3376,3.3389,3.3389,3.3389,3.3389,3.3389,3.3389,3.3389,3.3389,3.3389,3.3389,3.3389,3.3389,3.3389,3.3389,3.3389,3.3389,3.3389,3.3389,3.3389,3.3389,3.3389,3.3389,3.3389,3.3389,3.3389,3.3389,3.3389,3.3389,3.3389,5.0278,5.0207,5.0297,5.05,5.0781,5.0898,5.1101,5.137,5.137,5.1397,5.1345,5.1304,5.1007,5.0556,5.0402,4.9858,4.9095,4.8947,4.9206,4.9661,4.9949,5.039,5.0781,5.1195,5.1341,5.1397,5.1397,5.1397,5.1397,5.1397,5.1397,5.1397,5.1397,5.1397,5.1397,5.1263,5.0934,4.9968,4.8817,4.7361,4.5234,4.3027,4.0734,3.898,3.7446,3.6347,3.5533,3.523,3.5191,3.5191,3.5283,3.5322,3.5375,3.5401,3.5375,3.5322,3.5309,3.523,3.5243,3.5204,3.5191,3.5191,3.5191,3.5177,3.499,3.4883,3.4696,3.4629,3.4309,3.4122,3.4029,3.3842,3.4016,3.4336,3.4648,3.4697,3.4939,3.4689,3.4074,3.3612,3.3514,3.3704,3.3706,3.3442,3.3379,3.3379,3.3389,3.3376,3.3389,3.3389,3.3389,3.3389,3.3389,3.3389,3.3389,3.3389,3.3389,3.3389,3.3389,3.3389,3.3389,3.3389,3.3389,3.3389,3.3389,3.3389,3.3389,3.3389,3.3389,3.3389,3.3389,3.3389,3.3389,3.3389,3.3389]}]]